<?xml version="1.0" encoding="UTF-8"?>
<gpx version="1.0" creator="GPSBabel - https://www.gpsbabel.org" xmlns="http://www.topografix.com/GPX/1/0">
  <time>2021-11-21T17:29:26.340Z</time>
  <bounds minlat="35.071025000" minlon="-106.484670000" maxlat="35.080255000" maxlon="-106.466131000"/>
  <trk>
    <name>Eye of the Sandias Hike.Jay.2016-02-21</name>
    <trkseg>
      <trkpt lat="35.078911000" lon="-106.483293000">
        <ele>1795.000</ele>
        <time>2016-02-21T17:20:42Z</time>
        <name>WPT</name>
      </trkpt>
      <trkpt lat="35.078864000" lon="-106.483259000">
        <ele>1796.000</ele>
        <time>2016-02-21T17:20:47Z</time>
        <name>WPT.1</name>
      </trkpt>
      <trkpt lat="35.078811000" lon="-106.483248000">
        <ele>1797.000</ele>
        <time>2016-02-21T17:20:51Z</time>
        <name>WPT.2</name>
      </trkpt>
      <trkpt lat="35.078764000" lon="-106.483217000">
        <ele>1797.000</ele>
        <time>2016-02-21T17:20:56Z</time>
        <name>WPT.3</name>
      </trkpt>
      <trkpt lat="35.078720000" lon="-106.483197000">
        <ele>1799.000</ele>
        <time>2016-02-21T17:21:00Z</time>
        <name>WPT.4</name>
      </trkpt>
      <trkpt lat="35.078674000" lon="-106.483186000">
        <ele>1798.000</ele>
        <time>2016-02-21T17:21:04Z</time>
        <name>WPT.5</name>
      </trkpt>
      <trkpt lat="35.078626000" lon="-106.483177000">
        <ele>1799.000</ele>
        <time>2016-02-21T17:21:08Z</time>
        <name>WPT.6</name>
      </trkpt>
      <trkpt lat="35.078571000" lon="-106.483170000">
        <ele>1802.000</ele>
        <time>2016-02-21T17:21:12Z</time>
        <name>WPT.7</name>
      </trkpt>
      <trkpt lat="35.078526000" lon="-106.483153000">
        <ele>1803.000</ele>
        <time>2016-02-21T17:21:16Z</time>
        <name>WPT.8</name>
      </trkpt>
      <trkpt lat="35.078480000" lon="-106.483139000">
        <ele>1805.000</ele>
        <time>2016-02-21T17:21:20Z</time>
        <name>WPT.9</name>
      </trkpt>
      <trkpt lat="35.078431000" lon="-106.483120000">
        <ele>1806.000</ele>
        <time>2016-02-21T17:21:24Z</time>
        <name>WPT.10</name>
      </trkpt>
      <trkpt lat="35.078379000" lon="-106.483123000">
        <ele>1807.000</ele>
        <time>2016-02-21T17:21:28Z</time>
        <name>WPT.11</name>
      </trkpt>
      <trkpt lat="35.078329000" lon="-106.483137000">
        <ele>1806.000</ele>
        <time>2016-02-21T17:21:32Z</time>
        <name>WPT.12</name>
      </trkpt>
      <trkpt lat="35.078284000" lon="-106.483172000">
        <ele>1805.000</ele>
        <time>2016-02-21T17:21:36Z</time>
        <name>WPT.13</name>
      </trkpt>
      <trkpt lat="35.078250000" lon="-106.483214000">
        <ele>1805.000</ele>
        <time>2016-02-21T17:21:40Z</time>
        <name>WPT.14</name>
      </trkpt>
      <trkpt lat="35.078204000" lon="-106.483235000">
        <ele>1806.000</ele>
        <time>2016-02-21T17:21:44Z</time>
        <name>WPT.15</name>
      </trkpt>
      <trkpt lat="35.078159000" lon="-106.483247000">
        <ele>1806.000</ele>
        <time>2016-02-21T17:21:48Z</time>
        <name>WPT.16</name>
      </trkpt>
      <trkpt lat="35.078100000" lon="-106.483259000">
        <ele>1807.000</ele>
        <time>2016-02-21T17:21:52Z</time>
        <name>WPT.17</name>
      </trkpt>
      <trkpt lat="35.078050000" lon="-106.483254000">
        <ele>1808.000</ele>
        <time>2016-02-21T17:21:56Z</time>
        <name>WPT.18</name>
      </trkpt>
      <trkpt lat="35.078001000" lon="-106.483263000">
        <ele>1811.000</ele>
        <time>2016-02-21T17:22:00Z</time>
        <name>WPT.19</name>
      </trkpt>
      <trkpt lat="35.077952000" lon="-106.483268000">
        <ele>1810.000</ele>
        <time>2016-02-21T17:22:03Z</time>
        <name>WPT.20</name>
      </trkpt>
      <trkpt lat="35.077903000" lon="-106.483273000">
        <ele>1812.000</ele>
        <time>2016-02-21T17:22:07Z</time>
        <name>WPT.21</name>
      </trkpt>
      <trkpt lat="35.077858000" lon="-106.483266000">
        <ele>1811.000</ele>
        <time>2016-02-21T17:22:16Z</time>
        <name>WPT.22</name>
      </trkpt>
      <trkpt lat="35.077803000" lon="-106.483282000">
        <ele>1812.000</ele>
        <time>2016-02-21T17:22:21Z</time>
        <name>WPT.23</name>
      </trkpt>
      <trkpt lat="35.077755000" lon="-106.483295000">
        <ele>1813.000</ele>
        <time>2016-02-21T17:22:25Z</time>
        <name>WPT.24</name>
      </trkpt>
      <trkpt lat="35.077701000" lon="-106.483311000">
        <ele>1812.000</ele>
        <time>2016-02-21T17:22:30Z</time>
        <name>WPT.25</name>
      </trkpt>
      <trkpt lat="35.077651000" lon="-106.483318000">
        <ele>1815.000</ele>
        <time>2016-02-21T17:22:34Z</time>
        <name>WPT.26</name>
      </trkpt>
      <trkpt lat="35.077595000" lon="-106.483330000">
        <ele>1816.000</ele>
        <time>2016-02-21T17:22:39Z</time>
        <name>WPT.27</name>
      </trkpt>
      <trkpt lat="35.077549000" lon="-106.483338000">
        <ele>1816.000</ele>
        <time>2016-02-21T17:22:42Z</time>
        <name>WPT.28</name>
      </trkpt>
      <trkpt lat="35.077501000" lon="-106.483332000">
        <ele>1815.000</ele>
        <time>2016-02-21T17:22:46Z</time>
        <name>WPT.29</name>
      </trkpt>
      <trkpt lat="35.077453000" lon="-106.483318000">
        <ele>1814.000</ele>
        <time>2016-02-21T17:22:51Z</time>
        <name>WPT.30</name>
      </trkpt>
      <trkpt lat="35.077397000" lon="-106.483316000">
        <ele>1814.000</ele>
        <time>2016-02-21T17:22:55Z</time>
        <name>WPT.31</name>
      </trkpt>
      <trkpt lat="35.077347000" lon="-106.483318000">
        <ele>1814.000</ele>
        <time>2016-02-21T17:22:58Z</time>
        <name>WPT.32</name>
      </trkpt>
      <trkpt lat="35.077309000" lon="-106.483287000">
        <ele>1813.000</ele>
        <time>2016-02-21T17:23:01Z</time>
        <name>WPT.33</name>
      </trkpt>
      <trkpt lat="35.077259000" lon="-106.483266000">
        <ele>1814.000</ele>
        <time>2016-02-21T17:23:05Z</time>
        <name>WPT.34</name>
      </trkpt>
      <trkpt lat="35.077210000" lon="-106.483241000">
        <ele>1816.000</ele>
        <time>2016-02-21T17:23:09Z</time>
        <name>WPT.35</name>
      </trkpt>
      <trkpt lat="35.077165000" lon="-106.483216000">
        <ele>1815.000</ele>
        <time>2016-02-21T17:23:13Z</time>
        <name>WPT.36</name>
      </trkpt>
      <trkpt lat="35.077116000" lon="-106.483194000">
        <ele>1814.000</ele>
        <time>2016-02-21T17:23:17Z</time>
        <name>WPT.37</name>
      </trkpt>
      <trkpt lat="35.077071000" lon="-106.483191000">
        <ele>1815.000</ele>
        <time>2016-02-21T17:23:21Z</time>
        <name>WPT.38</name>
      </trkpt>
      <trkpt lat="35.077021000" lon="-106.483213000">
        <ele>1813.000</ele>
        <time>2016-02-21T17:23:25Z</time>
        <name>WPT.39</name>
      </trkpt>
      <trkpt lat="35.076970000" lon="-106.483238000">
        <ele>1812.000</ele>
        <time>2016-02-21T17:23:30Z</time>
        <name>WPT.40</name>
      </trkpt>
      <trkpt lat="35.076924000" lon="-106.483248000">
        <ele>1807.000</ele>
        <time>2016-02-21T17:24:02Z</time>
        <name>WPT.41</name>
      </trkpt>
      <trkpt lat="35.076874000" lon="-106.483245000">
        <ele>1807.000</ele>
        <time>2016-02-21T17:24:05Z</time>
        <name>WPT.42</name>
      </trkpt>
      <trkpt lat="35.076823000" lon="-106.483249000">
        <ele>1808.000</ele>
        <time>2016-02-21T17:24:09Z</time>
        <name>WPT.43</name>
      </trkpt>
      <trkpt lat="35.076769000" lon="-106.483263000">
        <ele>1809.000</ele>
        <time>2016-02-21T17:24:13Z</time>
        <name>WPT.44</name>
      </trkpt>
      <trkpt lat="35.076725000" lon="-106.483277000">
        <ele>1811.000</ele>
        <time>2016-02-21T17:24:16Z</time>
        <name>WPT.45</name>
      </trkpt>
      <trkpt lat="35.076671000" lon="-106.483285000">
        <ele>1813.000</ele>
        <time>2016-02-21T17:24:21Z</time>
        <name>WPT.46</name>
      </trkpt>
      <trkpt lat="35.076615000" lon="-106.483302000">
        <ele>1815.000</ele>
        <time>2016-02-21T17:24:25Z</time>
        <name>WPT.47</name>
      </trkpt>
      <trkpt lat="35.076555000" lon="-106.483328000">
        <ele>1815.000</ele>
        <time>2016-02-21T17:24:30Z</time>
        <name>WPT.48</name>
      </trkpt>
      <trkpt lat="35.076493000" lon="-106.483338000">
        <ele>1813.000</ele>
        <time>2016-02-21T17:24:34Z</time>
        <name>WPT.49</name>
      </trkpt>
      <trkpt lat="35.076438000" lon="-106.483350000">
        <ele>1813.000</ele>
        <time>2016-02-21T17:24:37Z</time>
        <name>WPT.50</name>
      </trkpt>
      <trkpt lat="35.076385000" lon="-106.483349000">
        <ele>1815.000</ele>
        <time>2016-02-21T17:24:41Z</time>
        <name>WPT.51</name>
      </trkpt>
      <trkpt lat="35.076340000" lon="-106.483338000">
        <ele>1816.000</ele>
        <time>2016-02-21T17:24:46Z</time>
        <name>WPT.52</name>
      </trkpt>
      <trkpt lat="35.076290000" lon="-106.483334000">
        <ele>1816.000</ele>
        <time>2016-02-21T17:24:50Z</time>
        <name>WPT.53</name>
      </trkpt>
      <trkpt lat="35.076209000" lon="-106.483333000">
        <ele>1818.000</ele>
        <time>2016-02-21T17:24:55Z</time>
        <name>WPT.54</name>
      </trkpt>
      <trkpt lat="35.076159000" lon="-106.483331000">
        <ele>1817.000</ele>
        <time>2016-02-21T17:24:59Z</time>
        <name>WPT.55</name>
      </trkpt>
      <trkpt lat="35.076110000" lon="-106.483328000">
        <ele>1818.000</ele>
        <time>2016-02-21T17:25:03Z</time>
        <name>WPT.56</name>
      </trkpt>
      <trkpt lat="35.076063000" lon="-106.483318000">
        <ele>1818.000</ele>
        <time>2016-02-21T17:25:07Z</time>
        <name>WPT.57</name>
      </trkpt>
      <trkpt lat="35.076007000" lon="-106.483313000">
        <ele>1820.000</ele>
        <time>2016-02-21T17:25:11Z</time>
        <name>WPT.58</name>
      </trkpt>
      <trkpt lat="35.075952000" lon="-106.483290000">
        <ele>1820.000</ele>
        <time>2016-02-21T17:25:15Z</time>
        <name>WPT.59</name>
      </trkpt>
      <trkpt lat="35.075898000" lon="-106.483280000">
        <ele>1820.000</ele>
        <time>2016-02-21T17:25:19Z</time>
        <name>WPT.60</name>
      </trkpt>
      <trkpt lat="35.075855000" lon="-106.483252000">
        <ele>1820.000</ele>
        <time>2016-02-21T17:25:23Z</time>
        <name>WPT.61</name>
      </trkpt>
      <trkpt lat="35.075811000" lon="-106.483216000">
        <ele>1820.000</ele>
        <time>2016-02-21T17:25:28Z</time>
        <name>WPT.62</name>
      </trkpt>
      <trkpt lat="35.075746000" lon="-106.483202000">
        <ele>1819.000</ele>
        <time>2016-02-21T17:25:32Z</time>
        <name>WPT.63</name>
      </trkpt>
      <trkpt lat="35.075699000" lon="-106.483175000">
        <ele>1817.000</ele>
        <time>2016-02-21T17:25:36Z</time>
        <name>WPT.64</name>
      </trkpt>
      <trkpt lat="35.075654000" lon="-106.483141000">
        <ele>1819.000</ele>
        <time>2016-02-21T17:25:41Z</time>
        <name>WPT.65</name>
      </trkpt>
      <trkpt lat="35.075618000" lon="-106.483106000">
        <ele>1820.000</ele>
        <time>2016-02-21T17:25:46Z</time>
        <name>WPT.66</name>
      </trkpt>
      <trkpt lat="35.075550000" lon="-106.483090000">
        <ele>1821.000</ele>
        <time>2016-02-21T17:25:50Z</time>
        <name>WPT.67</name>
      </trkpt>
      <trkpt lat="35.075500000" lon="-106.483062000">
        <ele>1822.000</ele>
        <time>2016-02-21T17:25:55Z</time>
        <name>WPT.68</name>
      </trkpt>
      <trkpt lat="35.075453000" lon="-106.483047000">
        <ele>1823.000</ele>
        <time>2016-02-21T17:25:59Z</time>
        <name>WPT.69</name>
      </trkpt>
      <trkpt lat="35.075400000" lon="-106.483050000">
        <ele>1823.000</ele>
        <time>2016-02-21T17:26:03Z</time>
        <name>WPT.70</name>
      </trkpt>
      <trkpt lat="35.075346000" lon="-106.483048000">
        <ele>1822.000</ele>
        <time>2016-02-21T17:26:07Z</time>
        <name>WPT.71</name>
      </trkpt>
      <trkpt lat="35.075297000" lon="-106.483026000">
        <ele>1821.000</ele>
        <time>2016-02-21T17:26:11Z</time>
        <name>WPT.72</name>
      </trkpt>
      <trkpt lat="35.075250000" lon="-106.483017000">
        <ele>1818.000</ele>
        <time>2016-02-21T17:26:15Z</time>
        <name>WPT.73</name>
      </trkpt>
      <trkpt lat="35.075202000" lon="-106.483022000">
        <ele>1821.000</ele>
        <time>2016-02-21T17:26:19Z</time>
        <name>WPT.74</name>
      </trkpt>
      <trkpt lat="35.075147000" lon="-106.483009000">
        <ele>1819.000</ele>
        <time>2016-02-21T17:26:23Z</time>
        <name>WPT.75</name>
      </trkpt>
      <trkpt lat="35.075093000" lon="-106.482992000">
        <ele>1817.000</ele>
        <time>2016-02-21T17:26:27Z</time>
        <name>WPT.76</name>
      </trkpt>
      <trkpt lat="35.075045000" lon="-106.482984000">
        <ele>1818.000</ele>
        <time>2016-02-21T17:26:31Z</time>
        <name>WPT.77</name>
      </trkpt>
      <trkpt lat="35.074986000" lon="-106.482978000">
        <ele>1817.000</ele>
        <time>2016-02-21T17:26:35Z</time>
        <name>WPT.78</name>
      </trkpt>
      <trkpt lat="35.074933000" lon="-106.482958000">
        <ele>1817.000</ele>
        <time>2016-02-21T17:26:40Z</time>
        <name>WPT.79</name>
      </trkpt>
      <trkpt lat="35.074880000" lon="-106.482967000">
        <ele>1818.000</ele>
        <time>2016-02-21T17:26:44Z</time>
        <name>WPT.80</name>
      </trkpt>
      <trkpt lat="35.074829000" lon="-106.482952000">
        <ele>1820.000</ele>
        <time>2016-02-21T17:26:51Z</time>
        <name>WPT.81</name>
      </trkpt>
      <trkpt lat="35.074780000" lon="-106.482963000">
        <ele>1822.000</ele>
        <time>2016-02-21T17:26:55Z</time>
        <name>WPT.82</name>
      </trkpt>
      <trkpt lat="35.074730000" lon="-106.482948000">
        <ele>1822.000</ele>
        <time>2016-02-21T17:26:59Z</time>
        <name>WPT.83</name>
      </trkpt>
      <trkpt lat="35.074685000" lon="-106.482922000">
        <ele>1820.000</ele>
        <time>2016-02-21T17:27:04Z</time>
        <name>WPT.84</name>
      </trkpt>
      <trkpt lat="35.074639000" lon="-106.482913000">
        <ele>1820.000</ele>
        <time>2016-02-21T17:27:07Z</time>
        <name>WPT.85</name>
      </trkpt>
      <trkpt lat="35.074601000" lon="-106.482880000">
        <ele>1824.000</ele>
        <time>2016-02-21T17:27:12Z</time>
        <name>WPT.86</name>
      </trkpt>
      <trkpt lat="35.074556000" lon="-106.482869000">
        <ele>1823.000</ele>
        <time>2016-02-21T17:27:16Z</time>
        <name>WPT.87</name>
      </trkpt>
      <trkpt lat="35.074511000" lon="-106.482879000">
        <ele>1823.000</ele>
        <time>2016-02-21T17:27:20Z</time>
        <name>WPT.88</name>
      </trkpt>
      <trkpt lat="35.074461000" lon="-106.482883000">
        <ele>1824.000</ele>
        <time>2016-02-21T17:27:24Z</time>
        <name>WPT.89</name>
      </trkpt>
      <trkpt lat="35.074407000" lon="-106.482885000">
        <ele>1826.000</ele>
        <time>2016-02-21T17:27:28Z</time>
        <name>WPT.90</name>
      </trkpt>
      <trkpt lat="35.074350000" lon="-106.482884000">
        <ele>1826.000</ele>
        <time>2016-02-21T17:27:33Z</time>
        <name>WPT.91</name>
      </trkpt>
      <trkpt lat="35.074290000" lon="-106.482872000">
        <ele>1826.000</ele>
        <time>2016-02-21T17:27:38Z</time>
        <name>WPT.92</name>
      </trkpt>
      <trkpt lat="35.074236000" lon="-106.482883000">
        <ele>1826.000</ele>
        <time>2016-02-21T17:27:42Z</time>
        <name>WPT.93</name>
      </trkpt>
      <trkpt lat="35.074190000" lon="-106.482869000">
        <ele>1826.000</ele>
        <time>2016-02-21T17:27:47Z</time>
        <name>WPT.94</name>
      </trkpt>
      <trkpt lat="35.074132000" lon="-106.482867000">
        <ele>1827.000</ele>
        <time>2016-02-21T17:27:51Z</time>
        <name>WPT.95</name>
      </trkpt>
      <trkpt lat="35.074092000" lon="-106.482841000">
        <ele>1824.000</ele>
        <time>2016-02-21T17:27:55Z</time>
        <name>WPT.96</name>
      </trkpt>
      <trkpt lat="35.074045000" lon="-106.482829000">
        <ele>1823.000</ele>
        <time>2016-02-21T17:28:00Z</time>
        <name>WPT.97</name>
      </trkpt>
      <trkpt lat="35.074004000" lon="-106.482805000">
        <ele>1825.000</ele>
        <time>2016-02-21T17:28:04Z</time>
        <name>WPT.98</name>
      </trkpt>
      <trkpt lat="35.073942000" lon="-106.482796000">
        <ele>1827.000</ele>
        <time>2016-02-21T17:28:09Z</time>
        <name>WPT.99</name>
      </trkpt>
      <trkpt lat="35.073893000" lon="-106.482774000">
        <ele>1824.000</ele>
        <time>2016-02-21T17:28:14Z</time>
        <name>WPT.100</name>
      </trkpt>
      <trkpt lat="35.073842000" lon="-106.482757000">
        <ele>1824.000</ele>
        <time>2016-02-21T17:28:18Z</time>
        <name>WPT.101</name>
      </trkpt>
      <trkpt lat="35.073789000" lon="-106.482749000">
        <ele>1820.000</ele>
        <time>2016-02-21T17:28:22Z</time>
        <name>WPT.102</name>
      </trkpt>
      <trkpt lat="35.073740000" lon="-106.482766000">
        <ele>1820.000</ele>
        <time>2016-02-21T17:28:25Z</time>
        <name>WPT.103</name>
      </trkpt>
      <trkpt lat="35.073690000" lon="-106.482795000">
        <ele>1818.000</ele>
        <time>2016-02-21T17:28:30Z</time>
        <name>WPT.104</name>
      </trkpt>
      <trkpt lat="35.073651000" lon="-106.482837000">
        <ele>1819.000</ele>
        <time>2016-02-21T17:28:55Z</time>
        <name>WPT.105</name>
      </trkpt>
      <trkpt lat="35.073603000" lon="-106.482860000">
        <ele>1820.000</ele>
        <time>2016-02-21T17:29:01Z</time>
        <name>WPT.106</name>
      </trkpt>
      <trkpt lat="35.073550000" lon="-106.482873000">
        <ele>1818.000</ele>
        <time>2016-02-21T17:29:06Z</time>
        <name>WPT.107</name>
      </trkpt>
      <trkpt lat="35.073490000" lon="-106.482884000">
        <ele>1819.000</ele>
        <time>2016-02-21T17:29:11Z</time>
        <name>WPT.108</name>
      </trkpt>
      <trkpt lat="35.073446000" lon="-106.482872000">
        <ele>1819.000</ele>
        <time>2016-02-21T17:29:14Z</time>
        <name>WPT.109</name>
      </trkpt>
      <trkpt lat="35.073417000" lon="-106.482827000">
        <ele>1823.000</ele>
        <time>2016-02-21T17:29:18Z</time>
        <name>WPT.110</name>
      </trkpt>
      <trkpt lat="35.073369000" lon="-106.482798000">
        <ele>1826.000</ele>
        <time>2016-02-21T17:29:22Z</time>
        <name>WPT.111</name>
      </trkpt>
      <trkpt lat="35.073329000" lon="-106.482763000">
        <ele>1826.000</ele>
        <time>2016-02-21T17:29:27Z</time>
        <name>WPT.112</name>
      </trkpt>
      <trkpt lat="35.073265000" lon="-106.482735000">
        <ele>1823.000</ele>
        <time>2016-02-21T17:29:31Z</time>
        <name>WPT.113</name>
      </trkpt>
      <trkpt lat="35.073227000" lon="-106.482690000">
        <ele>1822.000</ele>
        <time>2016-02-21T17:29:36Z</time>
        <name>WPT.114</name>
      </trkpt>
      <trkpt lat="35.073186000" lon="-106.482658000">
        <ele>1823.000</ele>
        <time>2016-02-21T17:29:40Z</time>
        <name>WPT.115</name>
      </trkpt>
      <trkpt lat="35.073152000" lon="-106.482611000">
        <ele>1824.000</ele>
        <time>2016-02-21T17:29:45Z</time>
        <name>WPT.116</name>
      </trkpt>
      <trkpt lat="35.073107000" lon="-106.482564000">
        <ele>1826.000</ele>
        <time>2016-02-21T17:29:50Z</time>
        <name>WPT.117</name>
      </trkpt>
      <trkpt lat="35.073070000" lon="-106.482527000">
        <ele>1825.000</ele>
        <time>2016-02-21T17:29:54Z</time>
        <name>WPT.118</name>
      </trkpt>
      <trkpt lat="35.073031000" lon="-106.482490000">
        <ele>1828.000</ele>
        <time>2016-02-21T17:29:59Z</time>
        <name>WPT.119</name>
      </trkpt>
      <trkpt lat="35.072988000" lon="-106.482472000">
        <ele>1829.000</ele>
        <time>2016-02-21T17:30:03Z</time>
        <name>WPT.120</name>
      </trkpt>
      <trkpt lat="35.072941000" lon="-106.482429000">
        <ele>1830.000</ele>
        <time>2016-02-21T17:30:08Z</time>
        <name>WPT.121</name>
      </trkpt>
      <trkpt lat="35.072885000" lon="-106.482413000">
        <ele>1829.000</ele>
        <time>2016-02-21T17:30:12Z</time>
        <name>WPT.122</name>
      </trkpt>
      <trkpt lat="35.072835000" lon="-106.482388000">
        <ele>1828.000</ele>
        <time>2016-02-21T17:30:18Z</time>
        <name>WPT.123</name>
      </trkpt>
      <trkpt lat="35.072788000" lon="-106.482374000">
        <ele>1829.000</ele>
        <time>2016-02-21T17:30:23Z</time>
        <name>WPT.124</name>
      </trkpt>
      <trkpt lat="35.072739000" lon="-106.482370000">
        <ele>1830.000</ele>
        <time>2016-02-21T17:30:28Z</time>
        <name>WPT.125</name>
      </trkpt>
      <trkpt lat="35.072682000" lon="-106.482359000">
        <ele>1828.000</ele>
        <time>2016-02-21T17:30:34Z</time>
        <name>WPT.126</name>
      </trkpt>
      <trkpt lat="35.072632000" lon="-106.482356000">
        <ele>1829.000</ele>
        <time>2016-02-21T17:30:40Z</time>
        <name>WPT.127</name>
      </trkpt>
      <trkpt lat="35.072586000" lon="-106.482356000">
        <ele>1830.000</ele>
        <time>2016-02-21T17:30:44Z</time>
        <name>WPT.128</name>
      </trkpt>
      <trkpt lat="35.072532000" lon="-106.482357000">
        <ele>1834.000</ele>
        <time>2016-02-21T17:30:50Z</time>
        <name>WPT.129</name>
      </trkpt>
      <trkpt lat="35.072472000" lon="-106.482363000">
        <ele>1835.000</ele>
        <time>2016-02-21T17:30:54Z</time>
        <name>WPT.130</name>
      </trkpt>
      <trkpt lat="35.072416000" lon="-106.482367000">
        <ele>1834.000</ele>
        <time>2016-02-21T17:30:59Z</time>
        <name>WPT.131</name>
      </trkpt>
      <trkpt lat="35.072366000" lon="-106.482345000">
        <ele>1838.000</ele>
        <time>2016-02-21T17:31:04Z</time>
        <name>WPT.132</name>
      </trkpt>
      <trkpt lat="35.072382000" lon="-106.482290000">
        <ele>1834.000</ele>
        <time>2016-02-21T17:31:14Z</time>
        <name>WPT.133</name>
      </trkpt>
      <trkpt lat="35.072316000" lon="-106.482292000">
        <ele>1833.000</ele>
        <time>2016-02-21T17:33:57Z</time>
        <name>WPT.134</name>
      </trkpt>
      <trkpt lat="35.072259000" lon="-106.482296000">
        <ele>1834.000</ele>
        <time>2016-02-21T17:34:01Z</time>
        <name>WPT.135</name>
      </trkpt>
      <trkpt lat="35.072206000" lon="-106.482306000">
        <ele>1835.000</ele>
        <time>2016-02-21T17:34:06Z</time>
        <name>WPT.136</name>
      </trkpt>
      <trkpt lat="35.072156000" lon="-106.482310000">
        <ele>1838.000</ele>
        <time>2016-02-21T17:34:11Z</time>
        <name>WPT.137</name>
      </trkpt>
      <trkpt lat="35.072106000" lon="-106.482328000">
        <ele>1838.000</ele>
        <time>2016-02-21T17:34:14Z</time>
        <name>WPT.138</name>
      </trkpt>
      <trkpt lat="35.072052000" lon="-106.482338000">
        <ele>1839.000</ele>
        <time>2016-02-21T17:34:18Z</time>
        <name>WPT.139</name>
      </trkpt>
      <trkpt lat="35.071998000" lon="-106.482353000">
        <ele>1838.000</ele>
        <time>2016-02-21T17:34:23Z</time>
        <name>WPT.140</name>
      </trkpt>
      <trkpt lat="35.071954000" lon="-106.482386000">
        <ele>1840.000</ele>
        <time>2016-02-21T17:34:30Z</time>
        <name>WPT.141</name>
      </trkpt>
      <trkpt lat="35.071902000" lon="-106.482397000">
        <ele>1841.000</ele>
        <time>2016-02-21T17:34:35Z</time>
        <name>WPT.142</name>
      </trkpt>
      <trkpt lat="35.071848000" lon="-106.482402000">
        <ele>1841.000</ele>
        <time>2016-02-21T17:34:41Z</time>
        <name>WPT.143</name>
      </trkpt>
      <trkpt lat="35.071794000" lon="-106.482381000">
        <ele>1842.000</ele>
        <time>2016-02-21T17:34:47Z</time>
        <name>WPT.144</name>
      </trkpt>
      <trkpt lat="35.071760000" lon="-106.482341000">
        <ele>1846.000</ele>
        <time>2016-02-21T17:34:53Z</time>
        <name>WPT.145</name>
      </trkpt>
      <trkpt lat="35.071713000" lon="-106.482322000">
        <ele>1845.000</ele>
        <time>2016-02-21T17:34:57Z</time>
        <name>WPT.146</name>
      </trkpt>
      <trkpt lat="35.071670000" lon="-106.482294000">
        <ele>1850.000</ele>
        <time>2016-02-21T17:35:04Z</time>
        <name>WPT.147</name>
      </trkpt>
      <trkpt lat="35.071673000" lon="-106.482238000">
        <ele>1848.000</ele>
        <time>2016-02-21T17:35:22Z</time>
        <name>WPT.148</name>
      </trkpt>
      <trkpt lat="35.071688000" lon="-106.482186000">
        <ele>1850.000</ele>
        <time>2016-02-21T17:35:29Z</time>
        <name>WPT.149</name>
      </trkpt>
      <trkpt lat="35.071712000" lon="-106.482133000">
        <ele>1850.000</ele>
        <time>2016-02-21T17:35:34Z</time>
        <name>WPT.150</name>
      </trkpt>
      <trkpt lat="35.071731000" lon="-106.482077000">
        <ele>1849.000</ele>
        <time>2016-02-21T17:35:41Z</time>
        <name>WPT.151</name>
      </trkpt>
      <trkpt lat="35.071740000" lon="-106.482014000">
        <ele>1850.000</ele>
        <time>2016-02-21T17:35:47Z</time>
        <name>WPT.152</name>
      </trkpt>
      <trkpt lat="35.071761000" lon="-106.481955000">
        <ele>1852.000</ele>
        <time>2016-02-21T17:35:53Z</time>
        <name>WPT.153</name>
      </trkpt>
      <trkpt lat="35.071773000" lon="-106.481896000">
        <ele>1856.000</ele>
        <time>2016-02-21T17:35:58Z</time>
        <name>WPT.154</name>
      </trkpt>
      <trkpt lat="35.071765000" lon="-106.481841000">
        <ele>1857.000</ele>
        <time>2016-02-21T17:36:04Z</time>
        <name>WPT.155</name>
      </trkpt>
      <trkpt lat="35.071802000" lon="-106.481794000">
        <ele>1857.000</ele>
        <time>2016-02-21T17:36:09Z</time>
        <name>WPT.156</name>
      </trkpt>
      <trkpt lat="35.071790000" lon="-106.481731000">
        <ele>1861.000</ele>
        <time>2016-02-21T17:37:28Z</time>
        <name>WPT.157</name>
      </trkpt>
      <trkpt lat="35.071753000" lon="-106.481691000">
        <ele>1860.000</ele>
        <time>2016-02-21T17:37:33Z</time>
        <name>WPT.158</name>
      </trkpt>
      <trkpt lat="35.071758000" lon="-106.481624000">
        <ele>1862.000</ele>
        <time>2016-02-21T17:37:39Z</time>
        <name>WPT.159</name>
      </trkpt>
      <trkpt lat="35.071747000" lon="-106.481556000">
        <ele>1864.000</ele>
        <time>2016-02-21T17:37:48Z</time>
        <name>WPT.160</name>
      </trkpt>
      <trkpt lat="35.071706000" lon="-106.481515000">
        <ele>1865.000</ele>
        <time>2016-02-21T17:37:53Z</time>
        <name>WPT.161</name>
      </trkpt>
      <trkpt lat="35.071696000" lon="-106.481460000">
        <ele>1868.000</ele>
        <time>2016-02-21T17:38:00Z</time>
        <name>WPT.162</name>
      </trkpt>
      <trkpt lat="35.071664000" lon="-106.481414000">
        <ele>1869.000</ele>
        <time>2016-02-21T17:38:05Z</time>
        <name>WPT.163</name>
      </trkpt>
      <trkpt lat="35.071641000" lon="-106.481361000">
        <ele>1872.000</ele>
        <time>2016-02-21T17:38:12Z</time>
        <name>WPT.164</name>
      </trkpt>
      <trkpt lat="35.071626000" lon="-106.481302000">
        <ele>1875.000</ele>
        <time>2016-02-21T17:38:18Z</time>
        <name>WPT.165</name>
      </trkpt>
      <trkpt lat="35.071592000" lon="-106.481248000">
        <ele>1875.000</ele>
        <time>2016-02-21T17:38:24Z</time>
        <name>WPT.166</name>
      </trkpt>
      <trkpt lat="35.071566000" lon="-106.481196000">
        <ele>1874.000</ele>
        <time>2016-02-21T17:38:30Z</time>
        <name>WPT.167</name>
      </trkpt>
      <trkpt lat="35.071549000" lon="-106.481142000">
        <ele>1874.000</ele>
        <time>2016-02-21T17:38:35Z</time>
        <name>WPT.168</name>
      </trkpt>
      <trkpt lat="35.071550000" lon="-106.481082000">
        <ele>1874.000</ele>
        <time>2016-02-21T17:38:42Z</time>
        <name>WPT.169</name>
      </trkpt>
      <trkpt lat="35.071560000" lon="-106.481018000">
        <ele>1881.000</ele>
        <time>2016-02-21T17:38:47Z</time>
        <name>WPT.170</name>
      </trkpt>
      <trkpt lat="35.071618000" lon="-106.481083000">
        <ele>1881.000</ele>
        <time>2016-02-21T17:41:15Z</time>
        <name>WPT.171</name>
      </trkpt>
      <trkpt lat="35.071586000" lon="-106.481036000">
        <ele>1877.000</ele>
        <time>2016-02-21T17:41:18Z</time>
        <name>WPT.172</name>
      </trkpt>
      <trkpt lat="35.071590000" lon="-106.480981000">
        <ele>1877.000</ele>
        <time>2016-02-21T17:42:26Z</time>
        <name>WPT.173</name>
      </trkpt>
      <trkpt lat="35.071599000" lon="-106.480925000">
        <ele>1880.000</ele>
        <time>2016-02-21T17:42:31Z</time>
        <name>WPT.174</name>
      </trkpt>
      <trkpt lat="35.071623000" lon="-106.480871000">
        <ele>1885.000</ele>
        <time>2016-02-21T17:42:39Z</time>
        <name>WPT.175</name>
      </trkpt>
      <trkpt lat="35.071636000" lon="-106.480805000">
        <ele>1888.000</ele>
        <time>2016-02-21T17:42:45Z</time>
        <name>WPT.176</name>
      </trkpt>
      <trkpt lat="35.071642000" lon="-106.480745000">
        <ele>1888.000</ele>
        <time>2016-02-21T17:42:51Z</time>
        <name>WPT.177</name>
      </trkpt>
      <trkpt lat="35.071645000" lon="-106.480683000">
        <ele>1889.000</ele>
        <time>2016-02-21T17:42:57Z</time>
        <name>WPT.178</name>
      </trkpt>
      <trkpt lat="35.071648000" lon="-106.480618000">
        <ele>1888.000</ele>
        <time>2016-02-21T17:43:03Z</time>
        <name>WPT.179</name>
      </trkpt>
      <trkpt lat="35.071662000" lon="-106.480558000">
        <ele>1889.000</ele>
        <time>2016-02-21T17:43:10Z</time>
        <name>WPT.180</name>
      </trkpt>
      <trkpt lat="35.071697000" lon="-106.480521000">
        <ele>1888.000</ele>
        <time>2016-02-21T17:47:46Z</time>
        <name>WPT.181</name>
      </trkpt>
      <trkpt lat="35.071732000" lon="-106.480487000">
        <ele>1890.000</ele>
        <time>2016-02-21T17:47:56Z</time>
        <name>WPT.182</name>
      </trkpt>
      <trkpt lat="35.071754000" lon="-106.480432000">
        <ele>1891.000</ele>
        <time>2016-02-21T17:48:02Z</time>
        <name>WPT.183</name>
      </trkpt>
      <trkpt lat="35.071781000" lon="-106.480380000">
        <ele>1892.000</ele>
        <time>2016-02-21T17:48:07Z</time>
        <name>WPT.184</name>
      </trkpt>
      <trkpt lat="35.071773000" lon="-106.480319000">
        <ele>1893.000</ele>
        <time>2016-02-21T17:48:16Z</time>
        <name>WPT.185</name>
      </trkpt>
      <trkpt lat="35.071758000" lon="-106.480257000">
        <ele>1896.000</ele>
        <time>2016-02-21T17:48:23Z</time>
        <name>WPT.186</name>
      </trkpt>
      <trkpt lat="35.071747000" lon="-106.480201000">
        <ele>1896.000</ele>
        <time>2016-02-21T17:48:30Z</time>
        <name>WPT.187</name>
      </trkpt>
      <trkpt lat="35.071716000" lon="-106.480149000">
        <ele>1897.000</ele>
        <time>2016-02-21T17:48:36Z</time>
        <name>WPT.188</name>
      </trkpt>
      <trkpt lat="35.071696000" lon="-106.480087000">
        <ele>1897.000</ele>
        <time>2016-02-21T17:48:41Z</time>
        <name>WPT.189</name>
      </trkpt>
      <trkpt lat="35.071671000" lon="-106.480033000">
        <ele>1898.000</ele>
        <time>2016-02-21T17:48:45Z</time>
        <name>WPT.190</name>
      </trkpt>
      <trkpt lat="35.071688000" lon="-106.479965000">
        <ele>1898.000</ele>
        <time>2016-02-21T17:48:50Z</time>
        <name>WPT.191</name>
      </trkpt>
      <trkpt lat="35.071674000" lon="-106.479910000">
        <ele>1900.000</ele>
        <time>2016-02-21T17:48:54Z</time>
        <name>WPT.192</name>
      </trkpt>
      <trkpt lat="35.071646000" lon="-106.479865000">
        <ele>1899.000</ele>
        <time>2016-02-21T17:48:59Z</time>
        <name>WPT.193</name>
      </trkpt>
      <trkpt lat="35.071617000" lon="-106.479820000">
        <ele>1898.000</ele>
        <time>2016-02-21T17:49:03Z</time>
        <name>WPT.194</name>
      </trkpt>
      <trkpt lat="35.071566000" lon="-106.479798000">
        <ele>1903.000</ele>
        <time>2016-02-21T17:49:10Z</time>
        <name>WPT.195</name>
      </trkpt>
      <trkpt lat="35.071521000" lon="-106.479775000">
        <ele>1903.000</ele>
        <time>2016-02-21T17:49:15Z</time>
        <name>WPT.196</name>
      </trkpt>
      <trkpt lat="35.071472000" lon="-106.479772000">
        <ele>1903.000</ele>
        <time>2016-02-21T17:49:21Z</time>
        <name>WPT.197</name>
      </trkpt>
      <trkpt lat="35.071433000" lon="-106.479737000">
        <ele>1904.000</ele>
        <time>2016-02-21T17:49:25Z</time>
        <name>WPT.198</name>
      </trkpt>
      <trkpt lat="35.071384000" lon="-106.479715000">
        <ele>1906.000</ele>
        <time>2016-02-21T17:49:30Z</time>
        <name>WPT.199</name>
      </trkpt>
      <trkpt lat="35.071342000" lon="-106.479739000">
        <ele>1906.000</ele>
        <time>2016-02-21T17:49:33Z</time>
        <name>WPT.200</name>
      </trkpt>
      <trkpt lat="35.071297000" lon="-106.479742000">
        <ele>1904.000</ele>
        <time>2016-02-21T17:49:37Z</time>
        <name>WPT.201</name>
      </trkpt>
      <trkpt lat="35.071248000" lon="-106.479746000">
        <ele>1905.000</ele>
        <time>2016-02-21T17:49:43Z</time>
        <name>WPT.202</name>
      </trkpt>
      <trkpt lat="35.071203000" lon="-106.479726000">
        <ele>1903.000</ele>
        <time>2016-02-21T17:49:48Z</time>
        <name>WPT.203</name>
      </trkpt>
      <trkpt lat="35.071189000" lon="-106.479662000">
        <ele>1905.000</ele>
        <time>2016-02-21T17:50:16Z</time>
        <name>WPT.204</name>
      </trkpt>
      <trkpt lat="35.071192000" lon="-106.479606000">
        <ele>1904.000</ele>
        <time>2016-02-21T17:50:22Z</time>
        <name>WPT.205</name>
      </trkpt>
      <trkpt lat="35.071203000" lon="-106.479541000">
        <ele>1905.000</ele>
        <time>2016-02-21T17:50:29Z</time>
        <name>WPT.206</name>
      </trkpt>
      <trkpt lat="35.071227000" lon="-106.479491000">
        <ele>1906.000</ele>
        <time>2016-02-21T17:50:35Z</time>
        <name>WPT.207</name>
      </trkpt>
      <trkpt lat="35.071238000" lon="-106.479433000">
        <ele>1907.000</ele>
        <time>2016-02-21T17:50:40Z</time>
        <name>WPT.208</name>
      </trkpt>
      <trkpt lat="35.071234000" lon="-106.479372000">
        <ele>1909.000</ele>
        <time>2016-02-21T17:50:44Z</time>
        <name>WPT.209</name>
      </trkpt>
      <trkpt lat="35.071272000" lon="-106.479341000">
        <ele>1906.000</ele>
        <time>2016-02-21T17:50:52Z</time>
        <name>WPT.210</name>
      </trkpt>
      <trkpt lat="35.071313000" lon="-106.479297000">
        <ele>1907.000</ele>
        <time>2016-02-21T17:51:32Z</time>
        <name>WPT.211</name>
      </trkpt>
      <trkpt lat="35.071364000" lon="-106.479297000">
        <ele>1907.000</ele>
        <time>2016-02-21T17:51:36Z</time>
        <name>WPT.212</name>
      </trkpt>
      <trkpt lat="35.071411000" lon="-106.479296000">
        <ele>1907.000</ele>
        <time>2016-02-21T17:51:40Z</time>
        <name>WPT.213</name>
      </trkpt>
      <trkpt lat="35.071364000" lon="-106.479294000">
        <ele>1903.000</ele>
        <time>2016-02-21T17:54:40Z</time>
        <name>WPT.214</name>
      </trkpt>
      <trkpt lat="35.071319000" lon="-106.479283000">
        <ele>1904.000</ele>
        <time>2016-02-21T17:54:45Z</time>
        <name>WPT.215</name>
      </trkpt>
      <trkpt lat="35.071298000" lon="-106.479221000">
        <ele>1904.000</ele>
        <time>2016-02-21T17:54:50Z</time>
        <name>WPT.216</name>
      </trkpt>
      <trkpt lat="35.071268000" lon="-106.479164000">
        <ele>1906.000</ele>
        <time>2016-02-21T17:54:55Z</time>
        <name>WPT.217</name>
      </trkpt>
      <trkpt lat="35.071252000" lon="-106.479103000">
        <ele>1907.000</ele>
        <time>2016-02-21T17:55:01Z</time>
        <name>WPT.218</name>
      </trkpt>
      <trkpt lat="35.071233000" lon="-106.479040000">
        <ele>1908.000</ele>
        <time>2016-02-21T17:55:06Z</time>
        <name>WPT.219</name>
      </trkpt>
      <trkpt lat="35.071223000" lon="-106.478970000">
        <ele>1905.000</ele>
        <time>2016-02-21T17:55:12Z</time>
        <name>WPT.220</name>
      </trkpt>
      <trkpt lat="35.071186000" lon="-106.478919000">
        <ele>1906.000</ele>
        <time>2016-02-21T17:55:17Z</time>
        <name>WPT.221</name>
      </trkpt>
      <trkpt lat="35.071163000" lon="-106.478868000">
        <ele>1908.000</ele>
        <time>2016-02-21T17:55:22Z</time>
        <name>WPT.222</name>
      </trkpt>
      <trkpt lat="35.071133000" lon="-106.478810000">
        <ele>1908.000</ele>
        <time>2016-02-21T17:55:27Z</time>
        <name>WPT.223</name>
      </trkpt>
      <trkpt lat="35.071108000" lon="-106.478757000">
        <ele>1909.000</ele>
        <time>2016-02-21T17:55:31Z</time>
        <name>WPT.224</name>
      </trkpt>
      <trkpt lat="35.071080000" lon="-106.478709000">
        <ele>1908.000</ele>
        <time>2016-02-21T17:55:36Z</time>
        <name>WPT.225</name>
      </trkpt>
      <trkpt lat="35.071075000" lon="-106.478649000">
        <ele>1909.000</ele>
        <time>2016-02-21T17:55:47Z</time>
        <name>WPT.226</name>
      </trkpt>
      <trkpt lat="35.071074000" lon="-106.478582000">
        <ele>1910.000</ele>
        <time>2016-02-21T17:55:54Z</time>
        <name>WPT.227</name>
      </trkpt>
      <trkpt lat="35.071063000" lon="-106.478521000">
        <ele>1913.000</ele>
        <time>2016-02-21T17:56:00Z</time>
        <name>WPT.228</name>
      </trkpt>
      <trkpt lat="35.071068000" lon="-106.478462000">
        <ele>1914.000</ele>
        <time>2016-02-21T17:56:05Z</time>
        <name>WPT.229</name>
      </trkpt>
      <trkpt lat="35.071052000" lon="-106.478400000">
        <ele>1916.000</ele>
        <time>2016-02-21T17:56:12Z</time>
        <name>WPT.230</name>
      </trkpt>
      <trkpt lat="35.071025000" lon="-106.478350000">
        <ele>1918.000</ele>
        <time>2016-02-21T17:56:16Z</time>
        <name>WPT.231</name>
      </trkpt>
      <trkpt lat="35.071036000" lon="-106.478294000">
        <ele>1919.000</ele>
        <time>2016-02-21T17:56:21Z</time>
        <name>WPT.232</name>
      </trkpt>
      <trkpt lat="35.071043000" lon="-106.478236000">
        <ele>1922.000</ele>
        <time>2016-02-21T17:56:27Z</time>
        <name>WPT.233</name>
      </trkpt>
      <trkpt lat="35.071073000" lon="-106.478194000">
        <ele>1923.000</ele>
        <time>2016-02-21T17:58:29Z</time>
        <name>WPT.234</name>
      </trkpt>
      <trkpt lat="35.071094000" lon="-106.478145000">
        <ele>1925.000</ele>
        <time>2016-02-21T17:58:35Z</time>
        <name>WPT.235</name>
      </trkpt>
      <trkpt lat="35.071110000" lon="-106.478093000">
        <ele>1928.000</ele>
        <time>2016-02-21T17:58:48Z</time>
        <name>WPT.236</name>
      </trkpt>
      <trkpt lat="35.071083000" lon="-106.478044000">
        <ele>1929.000</ele>
        <time>2016-02-21T17:58:54Z</time>
        <name>WPT.237</name>
      </trkpt>
      <trkpt lat="35.071094000" lon="-106.477988000">
        <ele>1930.000</ele>
        <time>2016-02-21T17:59:01Z</time>
        <name>WPT.238</name>
      </trkpt>
      <trkpt lat="35.071103000" lon="-106.477933000">
        <ele>1932.000</ele>
        <time>2016-02-21T17:59:06Z</time>
        <name>WPT.239</name>
      </trkpt>
      <trkpt lat="35.071111000" lon="-106.477874000">
        <ele>1933.000</ele>
        <time>2016-02-21T17:59:12Z</time>
        <name>WPT.240</name>
      </trkpt>
      <trkpt lat="35.071119000" lon="-106.477807000">
        <ele>1930.000</ele>
        <time>2016-02-21T17:59:19Z</time>
        <name>WPT.241</name>
      </trkpt>
      <trkpt lat="35.071114000" lon="-106.477748000">
        <ele>1932.000</ele>
        <time>2016-02-21T17:59:25Z</time>
        <name>WPT.242</name>
      </trkpt>
      <trkpt lat="35.071131000" lon="-106.477695000">
        <ele>1933.000</ele>
        <time>2016-02-21T17:59:29Z</time>
        <name>WPT.243</name>
      </trkpt>
      <trkpt lat="35.071168000" lon="-106.477659000">
        <ele>1934.000</ele>
        <time>2016-02-21T17:59:37Z</time>
        <name>WPT.244</name>
      </trkpt>
      <trkpt lat="35.071143000" lon="-106.477610000">
        <ele>1935.000</ele>
        <time>2016-02-21T17:59:44Z</time>
        <name>WPT.245</name>
      </trkpt>
      <trkpt lat="35.071135000" lon="-106.477551000">
        <ele>1937.000</ele>
        <time>2016-02-21T17:59:50Z</time>
        <name>WPT.246</name>
      </trkpt>
      <trkpt lat="35.071165000" lon="-106.477511000">
        <ele>1938.000</ele>
        <time>2016-02-21T17:59:56Z</time>
        <name>WPT.247</name>
      </trkpt>
      <trkpt lat="35.071181000" lon="-106.477452000">
        <ele>1941.000</ele>
        <time>2016-02-21T18:02:35Z</time>
        <name>WPT.248</name>
      </trkpt>
      <trkpt lat="35.071195000" lon="-106.477398000">
        <ele>1940.000</ele>
        <time>2016-02-21T18:03:16Z</time>
        <name>WPT.249</name>
      </trkpt>
      <trkpt lat="35.071226000" lon="-106.477339000">
        <ele>1943.000</ele>
        <time>2016-02-21T18:03:30Z</time>
        <name>WPT.250</name>
      </trkpt>
      <trkpt lat="35.071271000" lon="-106.477338000">
        <ele>1941.000</ele>
        <time>2016-02-21T18:05:27Z</time>
        <name>WPT.251</name>
      </trkpt>
      <trkpt lat="35.071321000" lon="-106.477328000">
        <ele>1943.000</ele>
        <time>2016-02-21T18:05:33Z</time>
        <name>WPT.252</name>
      </trkpt>
      <trkpt lat="35.071372000" lon="-106.477319000">
        <ele>1945.000</ele>
        <time>2016-02-21T18:05:38Z</time>
        <name>WPT.253</name>
      </trkpt>
      <trkpt lat="35.071417000" lon="-106.477347000">
        <ele>1945.000</ele>
        <time>2016-02-21T18:05:42Z</time>
        <name>WPT.254</name>
      </trkpt>
      <trkpt lat="35.071458000" lon="-106.477314000">
        <ele>1946.000</ele>
        <time>2016-02-21T18:05:47Z</time>
        <name>WPT.255</name>
      </trkpt>
      <trkpt lat="35.071484000" lon="-106.477265000">
        <ele>1945.000</ele>
        <time>2016-02-21T18:05:51Z</time>
        <name>WPT.256</name>
      </trkpt>
      <trkpt lat="35.071525000" lon="-106.477223000">
        <ele>1944.000</ele>
        <time>2016-02-21T18:05:56Z</time>
        <name>WPT.257</name>
      </trkpt>
      <trkpt lat="35.071548000" lon="-106.477157000">
        <ele>1943.000</ele>
        <time>2016-02-21T18:06:01Z</time>
        <name>WPT.258</name>
      </trkpt>
      <trkpt lat="35.071579000" lon="-106.477108000">
        <ele>1943.000</ele>
        <time>2016-02-21T18:06:05Z</time>
        <name>WPT.259</name>
      </trkpt>
      <trkpt lat="35.071625000" lon="-106.477131000">
        <ele>1942.000</ele>
        <time>2016-02-21T18:06:09Z</time>
        <name>WPT.260</name>
      </trkpt>
      <trkpt lat="35.071665000" lon="-106.477106000">
        <ele>1945.000</ele>
        <time>2016-02-21T18:06:14Z</time>
        <name>WPT.261</name>
      </trkpt>
      <trkpt lat="35.071707000" lon="-106.477074000">
        <ele>1946.000</ele>
        <time>2016-02-21T18:06:21Z</time>
        <name>WPT.262</name>
      </trkpt>
      <trkpt lat="35.071750000" lon="-106.477046000">
        <ele>1948.000</ele>
        <time>2016-02-21T18:06:27Z</time>
        <name>WPT.263</name>
      </trkpt>
      <trkpt lat="35.071799000" lon="-106.477034000">
        <ele>1949.000</ele>
        <time>2016-02-21T18:06:33Z</time>
        <name>WPT.264</name>
      </trkpt>
      <trkpt lat="35.071841000" lon="-106.477012000">
        <ele>1948.000</ele>
        <time>2016-02-21T18:06:38Z</time>
        <name>WPT.265</name>
      </trkpt>
      <trkpt lat="35.071870000" lon="-106.476970000">
        <ele>1949.000</ele>
        <time>2016-02-21T18:06:41Z</time>
        <name>WPT.266</name>
      </trkpt>
      <trkpt lat="35.071918000" lon="-106.476980000">
        <ele>1948.000</ele>
        <time>2016-02-21T18:06:46Z</time>
        <name>WPT.267</name>
      </trkpt>
      <trkpt lat="35.071970000" lon="-106.476981000">
        <ele>1949.000</ele>
        <time>2016-02-21T18:06:56Z</time>
        <name>WPT.268</name>
      </trkpt>
      <trkpt lat="35.072005000" lon="-106.476939000">
        <ele>1951.000</ele>
        <time>2016-02-21T18:07:03Z</time>
        <name>WPT.269</name>
      </trkpt>
      <trkpt lat="35.072051000" lon="-106.476929000">
        <ele>1953.000</ele>
        <time>2016-02-21T18:08:16Z</time>
        <name>WPT.270</name>
      </trkpt>
      <trkpt lat="35.072112000" lon="-106.476945000">
        <ele>1952.000</ele>
        <time>2016-02-21T18:08:28Z</time>
        <name>WPT.271</name>
      </trkpt>
      <trkpt lat="35.072126000" lon="-106.476888000">
        <ele>1952.000</ele>
        <time>2016-02-21T18:08:37Z</time>
        <name>WPT.272</name>
      </trkpt>
      <trkpt lat="35.072171000" lon="-106.476881000">
        <ele>1952.000</ele>
        <time>2016-02-21T18:08:42Z</time>
        <name>WPT.273</name>
      </trkpt>
      <trkpt lat="35.072207000" lon="-106.476924000">
        <ele>1954.000</ele>
        <time>2016-02-21T18:08:49Z</time>
        <name>WPT.274</name>
      </trkpt>
      <trkpt lat="35.072232000" lon="-106.476875000">
        <ele>1958.000</ele>
        <time>2016-02-21T18:09:05Z</time>
        <name>WPT.275</name>
      </trkpt>
      <trkpt lat="35.072278000" lon="-106.476872000">
        <ele>1958.000</ele>
        <time>2016-02-21T18:09:11Z</time>
        <name>WPT.276</name>
      </trkpt>
      <trkpt lat="35.072322000" lon="-106.476859000">
        <ele>1964.000</ele>
        <time>2016-02-21T18:09:26Z</time>
        <name>WPT.277</name>
      </trkpt>
      <trkpt lat="35.072354000" lon="-106.476901000">
        <ele>1965.000</ele>
        <time>2016-02-21T18:09:35Z</time>
        <name>WPT.278</name>
      </trkpt>
      <trkpt lat="35.072405000" lon="-106.476911000">
        <ele>1966.000</ele>
        <time>2016-02-21T18:10:08Z</time>
        <name>WPT.279</name>
      </trkpt>
      <trkpt lat="35.072460000" lon="-106.476893000">
        <ele>1966.000</ele>
        <time>2016-02-21T18:10:14Z</time>
        <name>WPT.280</name>
      </trkpt>
      <trkpt lat="35.072509000" lon="-106.476910000">
        <ele>1968.000</ele>
        <time>2016-02-21T18:10:21Z</time>
        <name>WPT.281</name>
      </trkpt>
      <trkpt lat="35.072551000" lon="-106.476870000">
        <ele>1969.000</ele>
        <time>2016-02-21T18:10:26Z</time>
        <name>WPT.282</name>
      </trkpt>
      <trkpt lat="35.072582000" lon="-106.476827000">
        <ele>1970.000</ele>
        <time>2016-02-21T18:10:31Z</time>
        <name>WPT.283</name>
      </trkpt>
      <trkpt lat="35.072624000" lon="-106.476805000">
        <ele>1969.000</ele>
        <time>2016-02-21T18:10:38Z</time>
        <name>WPT.284</name>
      </trkpt>
      <trkpt lat="35.072665000" lon="-106.476772000">
        <ele>1968.000</ele>
        <time>2016-02-21T18:10:44Z</time>
        <name>WPT.285</name>
      </trkpt>
      <trkpt lat="35.072710000" lon="-106.476796000">
        <ele>1973.000</ele>
        <time>2016-02-21T18:10:51Z</time>
        <name>WPT.286</name>
      </trkpt>
      <trkpt lat="35.072759000" lon="-106.476781000">
        <ele>1976.000</ele>
        <time>2016-02-21T18:10:59Z</time>
        <name>WPT.287</name>
      </trkpt>
      <trkpt lat="35.072808000" lon="-106.476786000">
        <ele>1978.000</ele>
        <time>2016-02-21T18:11:05Z</time>
        <name>WPT.288</name>
      </trkpt>
      <trkpt lat="35.072849000" lon="-106.476743000">
        <ele>1978.000</ele>
        <time>2016-02-21T18:15:20Z</time>
        <name>WPT.289</name>
      </trkpt>
      <trkpt lat="35.072839000" lon="-106.476686000">
        <ele>1980.000</ele>
        <time>2016-02-21T18:15:30Z</time>
        <name>WPT.290</name>
      </trkpt>
      <trkpt lat="35.072852000" lon="-106.476609000">
        <ele>1978.000</ele>
        <time>2016-02-21T18:15:43Z</time>
        <name>WPT.291</name>
      </trkpt>
      <trkpt lat="35.072864000" lon="-106.476550000">
        <ele>1978.000</ele>
        <time>2016-02-21T18:15:47Z</time>
        <name>WPT.292</name>
      </trkpt>
      <trkpt lat="35.072900000" lon="-106.476513000">
        <ele>1977.000</ele>
        <time>2016-02-21T18:15:55Z</time>
        <name>WPT.293</name>
      </trkpt>
      <trkpt lat="35.072878000" lon="-106.476449000">
        <ele>1980.000</ele>
        <time>2016-02-21T18:16:02Z</time>
        <name>WPT.294</name>
      </trkpt>
      <trkpt lat="35.072856000" lon="-106.476397000">
        <ele>1978.000</ele>
        <time>2016-02-21T18:16:08Z</time>
        <name>WPT.295</name>
      </trkpt>
      <trkpt lat="35.072845000" lon="-106.476331000">
        <ele>1980.000</ele>
        <time>2016-02-21T18:16:13Z</time>
        <name>WPT.296</name>
      </trkpt>
      <trkpt lat="35.072811000" lon="-106.476289000">
        <ele>1980.000</ele>
        <time>2016-02-21T18:16:19Z</time>
        <name>WPT.297</name>
      </trkpt>
      <trkpt lat="35.072772000" lon="-106.476251000">
        <ele>1981.000</ele>
        <time>2016-02-21T18:16:24Z</time>
        <name>WPT.298</name>
      </trkpt>
      <trkpt lat="35.072759000" lon="-106.476193000">
        <ele>1980.000</ele>
        <time>2016-02-21T18:16:29Z</time>
        <name>WPT.299</name>
      </trkpt>
      <trkpt lat="35.072743000" lon="-106.476138000">
        <ele>1979.000</ele>
        <time>2016-02-21T18:16:34Z</time>
        <name>WPT.300</name>
      </trkpt>
      <trkpt lat="35.072729000" lon="-106.476082000">
        <ele>1979.000</ele>
        <time>2016-02-21T18:16:38Z</time>
        <name>WPT.301</name>
      </trkpt>
      <trkpt lat="35.072687000" lon="-106.476047000">
        <ele>1981.000</ele>
        <time>2016-02-21T18:16:43Z</time>
        <name>WPT.302</name>
      </trkpt>
      <trkpt lat="35.072665000" lon="-106.475999000">
        <ele>1986.000</ele>
        <time>2016-02-21T18:17:49Z</time>
        <name>WPT.303</name>
      </trkpt>
      <trkpt lat="35.072628000" lon="-106.475949000">
        <ele>1988.000</ele>
        <time>2016-02-21T18:18:36Z</time>
        <name>WPT.304</name>
      </trkpt>
      <trkpt lat="35.072584000" lon="-106.475911000">
        <ele>1986.000</ele>
        <time>2016-02-21T18:18:43Z</time>
        <name>WPT.305</name>
      </trkpt>
      <trkpt lat="35.072540000" lon="-106.475880000">
        <ele>1986.000</ele>
        <time>2016-02-21T18:18:48Z</time>
        <name>WPT.306</name>
      </trkpt>
      <trkpt lat="35.072490000" lon="-106.475859000">
        <ele>1986.000</ele>
        <time>2016-02-21T18:18:53Z</time>
        <name>WPT.307</name>
      </trkpt>
      <trkpt lat="35.072444000" lon="-106.475822000">
        <ele>1985.000</ele>
        <time>2016-02-21T18:18:59Z</time>
        <name>WPT.308</name>
      </trkpt>
      <trkpt lat="35.072401000" lon="-106.475791000">
        <ele>1986.000</ele>
        <time>2016-02-21T18:19:04Z</time>
        <name>WPT.309</name>
      </trkpt>
      <trkpt lat="35.072377000" lon="-106.475742000">
        <ele>1986.000</ele>
        <time>2016-02-21T18:19:08Z</time>
        <name>WPT.310</name>
      </trkpt>
      <trkpt lat="35.072363000" lon="-106.475685000">
        <ele>1984.000</ele>
        <time>2016-02-21T18:19:13Z</time>
        <name>WPT.311</name>
      </trkpt>
      <trkpt lat="35.072318000" lon="-106.475667000">
        <ele>1987.000</ele>
        <time>2016-02-21T18:19:20Z</time>
        <name>WPT.312</name>
      </trkpt>
      <trkpt lat="35.072271000" lon="-106.475672000">
        <ele>1986.000</ele>
        <time>2016-02-21T18:19:26Z</time>
        <name>WPT.313</name>
      </trkpt>
      <trkpt lat="35.072223000" lon="-106.475674000">
        <ele>1987.000</ele>
        <time>2016-02-21T18:19:31Z</time>
        <name>WPT.314</name>
      </trkpt>
      <trkpt lat="35.072200000" lon="-106.475605000">
        <ele>1989.000</ele>
        <time>2016-02-21T18:19:42Z</time>
        <name>WPT.315</name>
      </trkpt>
      <trkpt lat="35.072184000" lon="-106.475552000">
        <ele>1990.000</ele>
        <time>2016-02-21T18:20:34Z</time>
        <name>WPT.316</name>
      </trkpt>
      <trkpt lat="35.072165000" lon="-106.475495000">
        <ele>1990.000</ele>
        <time>2016-02-21T18:21:00Z</time>
        <name>WPT.317</name>
      </trkpt>
      <trkpt lat="35.072163000" lon="-106.475440000">
        <ele>1991.000</ele>
        <time>2016-02-21T18:21:05Z</time>
        <name>WPT.318</name>
      </trkpt>
      <trkpt lat="35.072156000" lon="-106.475379000">
        <ele>1994.000</ele>
        <time>2016-02-21T18:21:11Z</time>
        <name>WPT.319</name>
      </trkpt>
      <trkpt lat="35.072153000" lon="-106.475318000">
        <ele>1994.000</ele>
        <time>2016-02-21T18:21:17Z</time>
        <name>WPT.320</name>
      </trkpt>
      <trkpt lat="35.072141000" lon="-106.475259000">
        <ele>1995.000</ele>
        <time>2016-02-21T18:21:22Z</time>
        <name>WPT.321</name>
      </trkpt>
      <trkpt lat="35.072116000" lon="-106.475205000">
        <ele>1995.000</ele>
        <time>2016-02-21T18:21:27Z</time>
        <name>WPT.322</name>
      </trkpt>
      <trkpt lat="35.072170000" lon="-106.475172000">
        <ele>1992.000</ele>
        <time>2016-02-21T18:21:29Z</time>
        <name>WPT.323</name>
      </trkpt>
      <trkpt lat="35.072139000" lon="-106.475124000">
        <ele>1994.000</ele>
        <time>2016-02-21T18:21:35Z</time>
        <name>WPT.324</name>
      </trkpt>
      <trkpt lat="35.072093000" lon="-106.475101000">
        <ele>1996.000</ele>
        <time>2016-02-21T18:21:38Z</time>
        <name>WPT.325</name>
      </trkpt>
      <trkpt lat="35.072081000" lon="-106.475042000">
        <ele>1995.000</ele>
        <time>2016-02-21T18:21:43Z</time>
        <name>WPT.326</name>
      </trkpt>
      <trkpt lat="35.072027000" lon="-106.475052000">
        <ele>2000.000</ele>
        <time>2016-02-21T18:21:52Z</time>
        <name>WPT.327</name>
      </trkpt>
      <trkpt lat="35.071985000" lon="-106.475090000">
        <ele>2003.000</ele>
        <time>2016-02-21T18:21:59Z</time>
        <name>WPT.328</name>
      </trkpt>
      <trkpt lat="35.071937000" lon="-106.475113000">
        <ele>2006.000</ele>
        <time>2016-02-21T18:22:10Z</time>
        <name>WPT.329</name>
      </trkpt>
      <trkpt lat="35.071893000" lon="-106.475079000">
        <ele>2007.000</ele>
        <time>2016-02-21T18:22:15Z</time>
        <name>WPT.330</name>
      </trkpt>
      <trkpt lat="35.071865000" lon="-106.475020000">
        <ele>2010.000</ele>
        <time>2016-02-21T18:22:21Z</time>
        <name>WPT.331</name>
      </trkpt>
      <trkpt lat="35.071818000" lon="-106.475006000">
        <ele>2008.000</ele>
        <time>2016-02-21T18:22:31Z</time>
        <name>WPT.332</name>
      </trkpt>
      <trkpt lat="35.071849000" lon="-106.474954000">
        <ele>2012.000</ele>
        <time>2016-02-21T18:23:36Z</time>
        <name>WPT.333</name>
      </trkpt>
      <trkpt lat="35.071887000" lon="-106.474913000">
        <ele>2009.000</ele>
        <time>2016-02-21T18:23:41Z</time>
        <name>WPT.334</name>
      </trkpt>
      <trkpt lat="35.071931000" lon="-106.474874000">
        <ele>2011.000</ele>
        <time>2016-02-21T18:23:46Z</time>
        <name>WPT.335</name>
      </trkpt>
      <trkpt lat="35.071955000" lon="-106.474816000">
        <ele>2013.000</ele>
        <time>2016-02-21T18:26:01Z</time>
        <name>WPT.336</name>
      </trkpt>
      <trkpt lat="35.071965000" lon="-106.474761000">
        <ele>2010.000</ele>
        <time>2016-02-21T18:26:06Z</time>
        <name>WPT.337</name>
      </trkpt>
      <trkpt lat="35.071994000" lon="-106.474717000">
        <ele>2010.000</ele>
        <time>2016-02-21T18:26:14Z</time>
        <name>WPT.338</name>
      </trkpt>
      <trkpt lat="35.071971000" lon="-106.474655000">
        <ele>2011.000</ele>
        <time>2016-02-21T18:26:20Z</time>
        <name>WPT.339</name>
      </trkpt>
      <trkpt lat="35.071934000" lon="-106.474620000">
        <ele>2015.000</ele>
        <time>2016-02-21T18:26:25Z</time>
        <name>WPT.340</name>
      </trkpt>
      <trkpt lat="35.071907000" lon="-106.474571000">
        <ele>2016.000</ele>
        <time>2016-02-21T18:26:32Z</time>
        <name>WPT.341</name>
      </trkpt>
      <trkpt lat="35.071894000" lon="-106.474515000">
        <ele>2016.000</ele>
        <time>2016-02-21T18:26:37Z</time>
        <name>WPT.342</name>
      </trkpt>
      <trkpt lat="35.071916000" lon="-106.474466000">
        <ele>2016.000</ele>
        <time>2016-02-21T18:26:44Z</time>
        <name>WPT.343</name>
      </trkpt>
      <trkpt lat="35.071961000" lon="-106.474451000">
        <ele>2019.000</ele>
        <time>2016-02-21T18:26:53Z</time>
        <name>WPT.344</name>
      </trkpt>
      <trkpt lat="35.072009000" lon="-106.474460000">
        <ele>2022.000</ele>
        <time>2016-02-21T18:26:58Z</time>
        <name>WPT.345</name>
      </trkpt>
      <trkpt lat="35.072063000" lon="-106.474446000">
        <ele>2023.000</ele>
        <time>2016-02-21T18:27:03Z</time>
        <name>WPT.346</name>
      </trkpt>
      <trkpt lat="35.072112000" lon="-106.474457000">
        <ele>2024.000</ele>
        <time>2016-02-21T18:27:08Z</time>
        <name>WPT.347</name>
      </trkpt>
      <trkpt lat="35.072158000" lon="-106.474437000">
        <ele>2024.000</ele>
        <time>2016-02-21T18:27:12Z</time>
        <name>WPT.348</name>
      </trkpt>
      <trkpt lat="35.072201000" lon="-106.474415000">
        <ele>2024.000</ele>
        <time>2016-02-21T18:27:16Z</time>
        <name>WPT.349</name>
      </trkpt>
      <trkpt lat="35.072247000" lon="-106.474395000">
        <ele>2023.000</ele>
        <time>2016-02-21T18:27:21Z</time>
        <name>WPT.350</name>
      </trkpt>
      <trkpt lat="35.072285000" lon="-106.474365000">
        <ele>2023.000</ele>
        <time>2016-02-21T18:27:26Z</time>
        <name>WPT.351</name>
      </trkpt>
      <trkpt lat="35.072309000" lon="-106.474308000">
        <ele>2024.000</ele>
        <time>2016-02-21T18:27:42Z</time>
        <name>WPT.352</name>
      </trkpt>
      <trkpt lat="35.072354000" lon="-106.474274000">
        <ele>2022.000</ele>
        <time>2016-02-21T18:27:47Z</time>
        <name>WPT.353</name>
      </trkpt>
      <trkpt lat="35.072409000" lon="-106.474262000">
        <ele>2023.000</ele>
        <time>2016-02-21T18:27:52Z</time>
        <name>WPT.354</name>
      </trkpt>
      <trkpt lat="35.072454000" lon="-106.474247000">
        <ele>2022.000</ele>
        <time>2016-02-21T18:27:56Z</time>
        <name>WPT.355</name>
      </trkpt>
      <trkpt lat="35.072498000" lon="-106.474235000">
        <ele>2021.000</ele>
        <time>2016-02-21T18:28:00Z</time>
        <name>WPT.356</name>
      </trkpt>
      <trkpt lat="35.072553000" lon="-106.474223000">
        <ele>2021.000</ele>
        <time>2016-02-21T18:28:06Z</time>
        <name>WPT.357</name>
      </trkpt>
      <trkpt lat="35.072604000" lon="-106.474221000">
        <ele>2022.000</ele>
        <time>2016-02-21T18:28:11Z</time>
        <name>WPT.358</name>
      </trkpt>
      <trkpt lat="35.072652000" lon="-106.474229000">
        <ele>2024.000</ele>
        <time>2016-02-21T18:28:15Z</time>
        <name>WPT.359</name>
      </trkpt>
      <trkpt lat="35.072695000" lon="-106.474272000">
        <ele>2022.000</ele>
        <time>2016-02-21T18:28:18Z</time>
        <name>WPT.360</name>
      </trkpt>
      <trkpt lat="35.072747000" lon="-106.474273000">
        <ele>2022.000</ele>
        <time>2016-02-21T18:28:22Z</time>
        <name>WPT.361</name>
      </trkpt>
      <trkpt lat="35.072792000" lon="-106.474279000">
        <ele>2022.000</ele>
        <time>2016-02-21T18:28:26Z</time>
        <name>WPT.362</name>
      </trkpt>
      <trkpt lat="35.072837000" lon="-106.474306000">
        <ele>2022.000</ele>
        <time>2016-02-21T18:28:30Z</time>
        <name>WPT.363</name>
      </trkpt>
      <trkpt lat="35.072881000" lon="-106.474320000">
        <ele>2023.000</ele>
        <time>2016-02-21T18:28:34Z</time>
        <name>WPT.364</name>
      </trkpt>
      <trkpt lat="35.072927000" lon="-106.474327000">
        <ele>2024.000</ele>
        <time>2016-02-21T18:28:38Z</time>
        <name>WPT.365</name>
      </trkpt>
      <trkpt lat="35.072969000" lon="-106.474306000">
        <ele>2027.000</ele>
        <time>2016-02-21T18:28:44Z</time>
        <name>WPT.366</name>
      </trkpt>
      <trkpt lat="35.073018000" lon="-106.474302000">
        <ele>2028.000</ele>
        <time>2016-02-21T18:29:54Z</time>
        <name>WPT.367</name>
      </trkpt>
      <trkpt lat="35.073058000" lon="-106.474355000">
        <ele>2029.000</ele>
        <time>2016-02-21T18:29:59Z</time>
        <name>WPT.368</name>
      </trkpt>
      <trkpt lat="35.073100000" lon="-106.474334000">
        <ele>2029.000</ele>
        <time>2016-02-21T18:30:10Z</time>
        <name>WPT.369</name>
      </trkpt>
      <trkpt lat="35.073131000" lon="-106.474291000">
        <ele>2029.000</ele>
        <time>2016-02-21T18:30:24Z</time>
        <name>WPT.370</name>
      </trkpt>
      <trkpt lat="35.073148000" lon="-106.474241000">
        <ele>2029.000</ele>
        <time>2016-02-21T18:30:29Z</time>
        <name>WPT.371</name>
      </trkpt>
      <trkpt lat="35.073160000" lon="-106.474180000">
        <ele>2028.000</ele>
        <time>2016-02-21T18:30:34Z</time>
        <name>WPT.372</name>
      </trkpt>
      <trkpt lat="35.073192000" lon="-106.474128000">
        <ele>2030.000</ele>
        <time>2016-02-21T18:30:40Z</time>
        <name>WPT.373</name>
      </trkpt>
      <trkpt lat="35.073211000" lon="-106.474074000">
        <ele>2032.000</ele>
        <time>2016-02-21T18:30:44Z</time>
        <name>WPT.374</name>
      </trkpt>
      <trkpt lat="35.073211000" lon="-106.474017000">
        <ele>2032.000</ele>
        <time>2016-02-21T18:30:49Z</time>
        <name>WPT.375</name>
      </trkpt>
      <trkpt lat="35.073205000" lon="-106.473953000">
        <ele>2030.000</ele>
        <time>2016-02-21T18:30:54Z</time>
        <name>WPT.376</name>
      </trkpt>
      <trkpt lat="35.073212000" lon="-106.473891000">
        <ele>2031.000</ele>
        <time>2016-02-21T18:31:00Z</time>
        <name>WPT.377</name>
      </trkpt>
      <trkpt lat="35.073237000" lon="-106.473844000">
        <ele>2032.000</ele>
        <time>2016-02-21T18:31:05Z</time>
        <name>WPT.378</name>
      </trkpt>
      <trkpt lat="35.073278000" lon="-106.473792000">
        <ele>2037.000</ele>
        <time>2016-02-21T18:31:25Z</time>
        <name>WPT.379</name>
      </trkpt>
      <trkpt lat="35.073269000" lon="-106.473731000">
        <ele>2037.000</ele>
        <time>2016-02-21T18:31:33Z</time>
        <name>WPT.380</name>
      </trkpt>
      <trkpt lat="35.073308000" lon="-106.473685000">
        <ele>2039.000</ele>
        <time>2016-02-21T18:31:39Z</time>
        <name>WPT.381</name>
      </trkpt>
      <trkpt lat="35.073340000" lon="-106.473626000">
        <ele>2039.000</ele>
        <time>2016-02-21T18:31:43Z</time>
        <name>WPT.382</name>
      </trkpt>
      <trkpt lat="35.073368000" lon="-106.473581000">
        <ele>2039.000</ele>
        <time>2016-02-21T18:31:48Z</time>
        <name>WPT.383</name>
      </trkpt>
      <trkpt lat="35.073372000" lon="-106.473525000">
        <ele>2044.000</ele>
        <time>2016-02-21T18:33:29Z</time>
        <name>WPT.384</name>
      </trkpt>
      <trkpt lat="35.073419000" lon="-106.473507000">
        <ele>2043.000</ele>
        <time>2016-02-21T18:35:18Z</time>
        <name>WPT.385</name>
      </trkpt>
      <trkpt lat="35.073433000" lon="-106.473442000">
        <ele>2042.000</ele>
        <time>2016-02-21T18:35:23Z</time>
        <name>WPT.386</name>
      </trkpt>
      <trkpt lat="35.073458000" lon="-106.473386000">
        <ele>2043.000</ele>
        <time>2016-02-21T18:35:28Z</time>
        <name>WPT.387</name>
      </trkpt>
      <trkpt lat="35.073499000" lon="-106.473347000">
        <ele>2044.000</ele>
        <time>2016-02-21T18:35:33Z</time>
        <name>WPT.388</name>
      </trkpt>
      <trkpt lat="35.073513000" lon="-106.473291000">
        <ele>2046.000</ele>
        <time>2016-02-21T18:35:44Z</time>
        <name>WPT.389</name>
      </trkpt>
      <trkpt lat="35.073553000" lon="-106.473268000">
        <ele>2045.000</ele>
        <time>2016-02-21T18:35:49Z</time>
        <name>WPT.390</name>
      </trkpt>
      <trkpt lat="35.073558000" lon="-106.473212000">
        <ele>2045.000</ele>
        <time>2016-02-21T18:35:57Z</time>
        <name>WPT.391</name>
      </trkpt>
      <trkpt lat="35.073532000" lon="-106.473157000">
        <ele>2046.000</ele>
        <time>2016-02-21T18:36:03Z</time>
        <name>WPT.392</name>
      </trkpt>
      <trkpt lat="35.073512000" lon="-106.473093000">
        <ele>2049.000</ele>
        <time>2016-02-21T18:36:39Z</time>
        <name>WPT.393</name>
      </trkpt>
      <trkpt lat="35.073514000" lon="-106.473036000">
        <ele>2050.000</ele>
        <time>2016-02-21T18:36:43Z</time>
        <name>WPT.394</name>
      </trkpt>
      <trkpt lat="35.073516000" lon="-106.472973000">
        <ele>2050.000</ele>
        <time>2016-02-21T18:36:48Z</time>
        <name>WPT.395</name>
      </trkpt>
      <trkpt lat="35.073508000" lon="-106.472914000">
        <ele>2051.000</ele>
        <time>2016-02-21T18:36:52Z</time>
        <name>WPT.396</name>
      </trkpt>
      <trkpt lat="35.073515000" lon="-106.472854000">
        <ele>2050.000</ele>
        <time>2016-02-21T18:36:56Z</time>
        <name>WPT.397</name>
      </trkpt>
      <trkpt lat="35.073502000" lon="-106.472791000">
        <ele>2048.000</ele>
        <time>2016-02-21T18:37:01Z</time>
        <name>WPT.398</name>
      </trkpt>
      <trkpt lat="35.073491000" lon="-106.472730000">
        <ele>2049.000</ele>
        <time>2016-02-21T18:37:05Z</time>
        <name>WPT.399</name>
      </trkpt>
      <trkpt lat="35.073494000" lon="-106.472672000">
        <ele>2048.000</ele>
        <time>2016-02-21T18:37:08Z</time>
        <name>WPT.400</name>
      </trkpt>
      <trkpt lat="35.073475000" lon="-106.472621000">
        <ele>2049.000</ele>
        <time>2016-02-21T18:37:13Z</time>
        <name>WPT.401</name>
      </trkpt>
      <trkpt lat="35.073472000" lon="-106.472555000">
        <ele>2049.000</ele>
        <time>2016-02-21T18:37:17Z</time>
        <name>WPT.402</name>
      </trkpt>
      <trkpt lat="35.073443000" lon="-106.472511000">
        <ele>2049.000</ele>
        <time>2016-02-21T18:37:21Z</time>
        <name>WPT.403</name>
      </trkpt>
      <trkpt lat="35.073418000" lon="-106.472462000">
        <ele>2050.000</ele>
        <time>2016-02-21T18:37:25Z</time>
        <name>WPT.404</name>
      </trkpt>
      <trkpt lat="35.073403000" lon="-106.472398000">
        <ele>2051.000</ele>
        <time>2016-02-21T18:37:30Z</time>
        <name>WPT.405</name>
      </trkpt>
      <trkpt lat="35.073373000" lon="-106.472357000">
        <ele>2051.000</ele>
        <time>2016-02-21T18:37:34Z</time>
        <name>WPT.406</name>
      </trkpt>
      <trkpt lat="35.073345000" lon="-106.472312000">
        <ele>2051.000</ele>
        <time>2016-02-21T18:37:40Z</time>
        <name>WPT.407</name>
      </trkpt>
      <trkpt lat="35.073314000" lon="-106.472258000">
        <ele>2050.000</ele>
        <time>2016-02-21T18:37:45Z</time>
        <name>WPT.408</name>
      </trkpt>
      <trkpt lat="35.073290000" lon="-106.472201000">
        <ele>2049.000</ele>
        <time>2016-02-21T18:37:50Z</time>
        <name>WPT.409</name>
      </trkpt>
      <trkpt lat="35.073253000" lon="-106.472155000">
        <ele>2049.000</ele>
        <time>2016-02-21T18:37:54Z</time>
        <name>WPT.410</name>
      </trkpt>
      <trkpt lat="35.073235000" lon="-106.472104000">
        <ele>2051.000</ele>
        <time>2016-02-21T18:38:00Z</time>
        <name>WPT.411</name>
      </trkpt>
      <trkpt lat="35.073245000" lon="-106.472043000">
        <ele>2051.000</ele>
        <time>2016-02-21T18:38:06Z</time>
        <name>WPT.412</name>
      </trkpt>
      <trkpt lat="35.073212000" lon="-106.472000000">
        <ele>2054.000</ele>
        <time>2016-02-21T18:38:12Z</time>
        <name>WPT.413</name>
      </trkpt>
      <trkpt lat="35.073183000" lon="-106.471951000">
        <ele>2056.000</ele>
        <time>2016-02-21T18:38:17Z</time>
        <name>WPT.414</name>
      </trkpt>
      <trkpt lat="35.073139000" lon="-106.471906000">
        <ele>2055.000</ele>
        <time>2016-02-21T18:38:23Z</time>
        <name>WPT.415</name>
      </trkpt>
      <trkpt lat="35.073118000" lon="-106.471848000">
        <ele>2058.000</ele>
        <time>2016-02-21T18:40:54Z</time>
        <name>WPT.416</name>
      </trkpt>
      <trkpt lat="35.073075000" lon="-106.471818000">
        <ele>2058.000</ele>
        <time>2016-02-21T18:41:02Z</time>
        <name>WPT.417</name>
      </trkpt>
      <trkpt lat="35.073063000" lon="-106.471763000">
        <ele>2060.000</ele>
        <time>2016-02-21T18:41:12Z</time>
        <name>WPT.418</name>
      </trkpt>
      <trkpt lat="35.073057000" lon="-106.471707000">
        <ele>2062.000</ele>
        <time>2016-02-21T18:41:18Z</time>
        <name>WPT.419</name>
      </trkpt>
      <trkpt lat="35.073051000" lon="-106.471640000">
        <ele>2061.000</ele>
        <time>2016-02-21T18:41:24Z</time>
        <name>WPT.420</name>
      </trkpt>
      <trkpt lat="35.073038000" lon="-106.471585000">
        <ele>2062.000</ele>
        <time>2016-02-21T18:41:29Z</time>
        <name>WPT.421</name>
      </trkpt>
      <trkpt lat="35.073027000" lon="-106.471525000">
        <ele>2062.000</ele>
        <time>2016-02-21T18:41:34Z</time>
        <name>WPT.422</name>
      </trkpt>
      <trkpt lat="35.073015000" lon="-106.471466000">
        <ele>2061.000</ele>
        <time>2016-02-21T18:41:40Z</time>
        <name>WPT.423</name>
      </trkpt>
      <trkpt lat="35.073018000" lon="-106.471407000">
        <ele>2064.000</ele>
        <time>2016-02-21T18:43:07Z</time>
        <name>WPT.424</name>
      </trkpt>
      <trkpt lat="35.073019000" lon="-106.471344000">
        <ele>2063.000</ele>
        <time>2016-02-21T18:43:13Z</time>
        <name>WPT.425</name>
      </trkpt>
      <trkpt lat="35.073012000" lon="-106.471283000">
        <ele>2063.000</ele>
        <time>2016-02-21T18:43:19Z</time>
        <name>WPT.426</name>
      </trkpt>
      <trkpt lat="35.073004000" lon="-106.471227000">
        <ele>2063.000</ele>
        <time>2016-02-21T18:43:24Z</time>
        <name>WPT.427</name>
      </trkpt>
      <trkpt lat="35.072992000" lon="-106.471166000">
        <ele>2062.000</ele>
        <time>2016-02-21T18:43:29Z</time>
        <name>WPT.428</name>
      </trkpt>
      <trkpt lat="35.072978000" lon="-106.471099000">
        <ele>2062.000</ele>
        <time>2016-02-21T18:43:34Z</time>
        <name>WPT.429</name>
      </trkpt>
      <trkpt lat="35.072987000" lon="-106.471040000">
        <ele>2064.000</ele>
        <time>2016-02-21T18:43:40Z</time>
        <name>WPT.430</name>
      </trkpt>
      <trkpt lat="35.072986000" lon="-106.470973000">
        <ele>2062.000</ele>
        <time>2016-02-21T18:43:45Z</time>
        <name>WPT.431</name>
      </trkpt>
      <trkpt lat="35.072965000" lon="-106.470921000">
        <ele>2065.000</ele>
        <time>2016-02-21T18:43:50Z</time>
        <name>WPT.432</name>
      </trkpt>
      <trkpt lat="35.072955000" lon="-106.470862000">
        <ele>2065.000</ele>
        <time>2016-02-21T18:43:55Z</time>
        <name>WPT.433</name>
      </trkpt>
      <trkpt lat="35.072956000" lon="-106.470807000">
        <ele>2064.000</ele>
        <time>2016-02-21T18:44:00Z</time>
        <name>WPT.434</name>
      </trkpt>
      <trkpt lat="35.072963000" lon="-106.470744000">
        <ele>2066.000</ele>
        <time>2016-02-21T18:44:05Z</time>
        <name>WPT.435</name>
      </trkpt>
      <trkpt lat="35.072937000" lon="-106.470692000">
        <ele>2067.000</ele>
        <time>2016-02-21T18:44:10Z</time>
        <name>WPT.436</name>
      </trkpt>
      <trkpt lat="35.072918000" lon="-106.470642000">
        <ele>2067.000</ele>
        <time>2016-02-21T18:44:14Z</time>
        <name>WPT.437</name>
      </trkpt>
      <trkpt lat="35.072905000" lon="-106.470589000">
        <ele>2067.000</ele>
        <time>2016-02-21T18:44:18Z</time>
        <name>WPT.438</name>
      </trkpt>
      <trkpt lat="35.072903000" lon="-106.470524000">
        <ele>2068.000</ele>
        <time>2016-02-21T18:44:25Z</time>
        <name>WPT.439</name>
      </trkpt>
      <trkpt lat="35.072898000" lon="-106.470464000">
        <ele>2070.000</ele>
        <time>2016-02-21T18:44:29Z</time>
        <name>WPT.440</name>
      </trkpt>
      <trkpt lat="35.072905000" lon="-106.470409000">
        <ele>2070.000</ele>
        <time>2016-02-21T18:44:33Z</time>
        <name>WPT.441</name>
      </trkpt>
      <trkpt lat="35.072909000" lon="-106.470352000">
        <ele>2072.000</ele>
        <time>2016-02-21T18:44:37Z</time>
        <name>WPT.442</name>
      </trkpt>
      <trkpt lat="35.072907000" lon="-106.470294000">
        <ele>2072.000</ele>
        <time>2016-02-21T18:44:41Z</time>
        <name>WPT.443</name>
      </trkpt>
      <trkpt lat="35.072889000" lon="-106.470240000">
        <ele>2073.000</ele>
        <time>2016-02-21T18:44:45Z</time>
        <name>WPT.444</name>
      </trkpt>
      <trkpt lat="35.072888000" lon="-106.470172000">
        <ele>2077.000</ele>
        <time>2016-02-21T18:44:51Z</time>
        <name>WPT.445</name>
      </trkpt>
      <trkpt lat="35.072842000" lon="-106.470144000">
        <ele>2074.000</ele>
        <time>2016-02-21T18:47:05Z</time>
        <name>WPT.446</name>
      </trkpt>
      <trkpt lat="35.072809000" lon="-106.470092000">
        <ele>2076.000</ele>
        <time>2016-02-21T18:47:17Z</time>
        <name>WPT.447</name>
      </trkpt>
      <trkpt lat="35.072770000" lon="-106.470044000">
        <ele>2078.000</ele>
        <time>2016-02-21T18:47:21Z</time>
        <name>WPT.448</name>
      </trkpt>
      <trkpt lat="35.072781000" lon="-106.469989000">
        <ele>2079.000</ele>
        <time>2016-02-21T18:47:25Z</time>
        <name>WPT.449</name>
      </trkpt>
      <trkpt lat="35.072771000" lon="-106.469927000">
        <ele>2079.000</ele>
        <time>2016-02-21T18:47:31Z</time>
        <name>WPT.450</name>
      </trkpt>
      <trkpt lat="35.072784000" lon="-106.469867000">
        <ele>2080.000</ele>
        <time>2016-02-21T18:47:38Z</time>
        <name>WPT.451</name>
      </trkpt>
      <trkpt lat="35.072817000" lon="-106.469828000">
        <ele>2081.000</ele>
        <time>2016-02-21T18:47:43Z</time>
        <name>WPT.452</name>
      </trkpt>
      <trkpt lat="35.072838000" lon="-106.469778000">
        <ele>2083.000</ele>
        <time>2016-02-21T18:47:49Z</time>
        <name>WPT.453</name>
      </trkpt>
      <trkpt lat="35.072803000" lon="-106.469729000">
        <ele>2085.000</ele>
        <time>2016-02-21T18:47:56Z</time>
        <name>WPT.454</name>
      </trkpt>
      <trkpt lat="35.072774000" lon="-106.469684000">
        <ele>2087.000</ele>
        <time>2016-02-21T18:48:01Z</time>
        <name>WPT.455</name>
      </trkpt>
      <trkpt lat="35.072788000" lon="-106.469625000">
        <ele>2089.000</ele>
        <time>2016-02-21T18:49:04Z</time>
        <name>WPT.456</name>
      </trkpt>
      <trkpt lat="35.072777000" lon="-106.469566000">
        <ele>2090.000</ele>
        <time>2016-02-21T18:49:10Z</time>
        <name>WPT.457</name>
      </trkpt>
      <trkpt lat="35.072796000" lon="-106.469507000">
        <ele>2092.000</ele>
        <time>2016-02-21T18:49:16Z</time>
        <name>WPT.458</name>
      </trkpt>
      <trkpt lat="35.072805000" lon="-106.469450000">
        <ele>2092.000</ele>
        <time>2016-02-21T18:49:21Z</time>
        <name>WPT.459</name>
      </trkpt>
      <trkpt lat="35.072841000" lon="-106.469402000">
        <ele>2094.000</ele>
        <time>2016-02-21T18:49:25Z</time>
        <name>WPT.460</name>
      </trkpt>
      <trkpt lat="35.072886000" lon="-106.469380000">
        <ele>2095.000</ele>
        <time>2016-02-21T18:49:29Z</time>
        <name>WPT.461</name>
      </trkpt>
      <trkpt lat="35.072934000" lon="-106.469358000">
        <ele>2097.000</ele>
        <time>2016-02-21T18:49:34Z</time>
        <name>WPT.462</name>
      </trkpt>
      <trkpt lat="35.072974000" lon="-106.469332000">
        <ele>2097.000</ele>
        <time>2016-02-21T18:49:40Z</time>
        <name>WPT.463</name>
      </trkpt>
      <trkpt lat="35.073005000" lon="-106.469279000">
        <ele>2099.000</ele>
        <time>2016-02-21T18:49:46Z</time>
        <name>WPT.464</name>
      </trkpt>
      <trkpt lat="35.073022000" lon="-106.469215000">
        <ele>2101.000</ele>
        <time>2016-02-21T18:49:51Z</time>
        <name>WPT.465</name>
      </trkpt>
      <trkpt lat="35.073061000" lon="-106.469188000">
        <ele>2100.000</ele>
        <time>2016-02-21T18:51:06Z</time>
        <name>WPT.466</name>
      </trkpt>
      <trkpt lat="35.073085000" lon="-106.469136000">
        <ele>2102.000</ele>
        <time>2016-02-21T18:51:12Z</time>
        <name>WPT.467</name>
      </trkpt>
      <trkpt lat="35.073110000" lon="-106.469088000">
        <ele>2105.000</ele>
        <time>2016-02-21T18:51:19Z</time>
        <name>WPT.468</name>
      </trkpt>
      <trkpt lat="35.073152000" lon="-106.469057000">
        <ele>2108.000</ele>
        <time>2016-02-21T18:51:27Z</time>
        <name>WPT.469</name>
      </trkpt>
      <trkpt lat="35.073197000" lon="-106.469034000">
        <ele>2110.000</ele>
        <time>2016-02-21T18:51:35Z</time>
        <name>WPT.470</name>
      </trkpt>
      <trkpt lat="35.073240000" lon="-106.469014000">
        <ele>2110.000</ele>
        <time>2016-02-21T18:52:25Z</time>
        <name>WPT.471</name>
      </trkpt>
      <trkpt lat="35.073272000" lon="-106.468975000">
        <ele>2112.000</ele>
        <time>2016-02-21T18:52:33Z</time>
        <name>WPT.472</name>
      </trkpt>
      <trkpt lat="35.073284000" lon="-106.468907000">
        <ele>2114.000</ele>
        <time>2016-02-21T18:52:39Z</time>
        <name>WPT.473</name>
      </trkpt>
      <trkpt lat="35.073287000" lon="-106.468841000">
        <ele>2117.000</ele>
        <time>2016-02-21T18:52:44Z</time>
        <name>WPT.474</name>
      </trkpt>
      <trkpt lat="35.073307000" lon="-106.468783000">
        <ele>2119.000</ele>
        <time>2016-02-21T18:52:49Z</time>
        <name>WPT.475</name>
      </trkpt>
      <trkpt lat="35.073322000" lon="-106.468724000">
        <ele>2122.000</ele>
        <time>2016-02-21T18:57:59Z</time>
        <name>WPT.476</name>
      </trkpt>
      <trkpt lat="35.073363000" lon="-106.468688000">
        <ele>2122.000</ele>
        <time>2016-02-21T18:58:05Z</time>
        <name>WPT.477</name>
      </trkpt>
      <trkpt lat="35.073368000" lon="-106.468634000">
        <ele>2122.000</ele>
        <time>2016-02-21T18:58:11Z</time>
        <name>WPT.478</name>
      </trkpt>
      <trkpt lat="35.073359000" lon="-106.468575000">
        <ele>2123.000</ele>
        <time>2016-02-21T18:58:17Z</time>
        <name>WPT.479</name>
      </trkpt>
      <trkpt lat="35.073381000" lon="-106.468525000">
        <ele>2124.000</ele>
        <time>2016-02-21T18:58:23Z</time>
        <name>WPT.480</name>
      </trkpt>
      <trkpt lat="35.073396000" lon="-106.468472000">
        <ele>2128.000</ele>
        <time>2016-02-21T18:58:33Z</time>
        <name>WPT.481</name>
      </trkpt>
      <trkpt lat="35.073423000" lon="-106.468415000">
        <ele>2129.000</ele>
        <time>2016-02-21T19:01:58Z</time>
        <name>WPT.482</name>
      </trkpt>
      <trkpt lat="35.073423000" lon="-106.468356000">
        <ele>2130.000</ele>
        <time>2016-02-21T19:02:04Z</time>
        <name>WPT.483</name>
      </trkpt>
      <trkpt lat="35.073429000" lon="-106.468297000">
        <ele>2130.000</ele>
        <time>2016-02-21T19:02:10Z</time>
        <name>WPT.484</name>
      </trkpt>
      <trkpt lat="35.073449000" lon="-106.468247000">
        <ele>2133.000</ele>
        <time>2016-02-21T19:02:18Z</time>
        <name>WPT.485</name>
      </trkpt>
      <trkpt lat="35.073489000" lon="-106.468210000">
        <ele>2135.000</ele>
        <time>2016-02-21T19:02:24Z</time>
        <name>WPT.486</name>
      </trkpt>
      <trkpt lat="35.073528000" lon="-106.468174000">
        <ele>2138.000</ele>
        <time>2016-02-21T19:02:35Z</time>
        <name>WPT.487</name>
      </trkpt>
      <trkpt lat="35.073578000" lon="-106.468178000">
        <ele>2140.000</ele>
        <time>2016-02-21T19:02:42Z</time>
        <name>WPT.488</name>
      </trkpt>
      <trkpt lat="35.073611000" lon="-106.468134000">
        <ele>2141.000</ele>
        <time>2016-02-21T19:02:53Z</time>
        <name>WPT.489</name>
      </trkpt>
      <trkpt lat="35.073659000" lon="-106.468128000">
        <ele>2140.000</ele>
        <time>2016-02-21T19:03:12Z</time>
        <name>WPT.490</name>
      </trkpt>
      <trkpt lat="35.073708000" lon="-106.468096000">
        <ele>2141.000</ele>
        <time>2016-02-21T19:03:18Z</time>
        <name>WPT.491</name>
      </trkpt>
      <trkpt lat="35.073758000" lon="-106.468071000">
        <ele>2142.000</ele>
        <time>2016-02-21T19:03:23Z</time>
        <name>WPT.492</name>
      </trkpt>
      <trkpt lat="35.073789000" lon="-106.468031000">
        <ele>2144.000</ele>
        <time>2016-02-21T19:03:28Z</time>
        <name>WPT.493</name>
      </trkpt>
      <trkpt lat="35.073836000" lon="-106.468029000">
        <ele>2143.000</ele>
        <time>2016-02-21T19:03:33Z</time>
        <name>WPT.494</name>
      </trkpt>
      <trkpt lat="35.073881000" lon="-106.468015000">
        <ele>2141.000</ele>
        <time>2016-02-21T19:04:10Z</time>
        <name>WPT.495</name>
      </trkpt>
      <trkpt lat="35.073933000" lon="-106.467984000">
        <ele>2140.000</ele>
        <time>2016-02-21T19:04:33Z</time>
        <name>WPT.496</name>
      </trkpt>
      <trkpt lat="35.073988000" lon="-106.467971000">
        <ele>2144.000</ele>
        <time>2016-02-21T19:05:16Z</time>
        <name>WPT.497</name>
      </trkpt>
      <trkpt lat="35.074035000" lon="-106.467956000">
        <ele>2145.000</ele>
        <time>2016-02-21T19:05:22Z</time>
        <name>WPT.498</name>
      </trkpt>
      <trkpt lat="35.074076000" lon="-106.467914000">
        <ele>2147.000</ele>
        <time>2016-02-21T19:05:27Z</time>
        <name>WPT.499</name>
      </trkpt>
      <trkpt lat="35.074112000" lon="-106.467870000">
        <ele>2148.000</ele>
        <time>2016-02-21T19:05:32Z</time>
        <name>WPT.500</name>
      </trkpt>
      <trkpt lat="35.074141000" lon="-106.467822000">
        <ele>2148.000</ele>
        <time>2016-02-21T19:05:37Z</time>
        <name>WPT.501</name>
      </trkpt>
      <trkpt lat="35.074163000" lon="-106.467773000">
        <ele>2146.000</ele>
        <time>2016-02-21T19:05:44Z</time>
        <name>WPT.502</name>
      </trkpt>
      <trkpt lat="35.074201000" lon="-106.467721000">
        <ele>2145.000</ele>
        <time>2016-02-21T19:05:49Z</time>
        <name>WPT.503</name>
      </trkpt>
      <trkpt lat="35.074248000" lon="-106.467723000">
        <ele>2145.000</ele>
        <time>2016-02-21T19:05:54Z</time>
        <name>WPT.504</name>
      </trkpt>
      <trkpt lat="35.074294000" lon="-106.467713000">
        <ele>2145.000</ele>
        <time>2016-02-21T19:05:59Z</time>
        <name>WPT.505</name>
      </trkpt>
      <trkpt lat="35.074330000" lon="-106.467672000">
        <ele>2146.000</ele>
        <time>2016-02-21T19:06:04Z</time>
        <name>WPT.506</name>
      </trkpt>
      <trkpt lat="35.074350000" lon="-106.467619000">
        <ele>2148.000</ele>
        <time>2016-02-21T19:06:09Z</time>
        <name>WPT.507</name>
      </trkpt>
      <trkpt lat="35.074373000" lon="-106.467569000">
        <ele>2148.000</ele>
        <time>2016-02-21T19:06:14Z</time>
        <name>WPT.508</name>
      </trkpt>
      <trkpt lat="35.074407000" lon="-106.467514000">
        <ele>2148.000</ele>
        <time>2016-02-21T19:06:28Z</time>
        <name>WPT.509</name>
      </trkpt>
      <trkpt lat="35.074414000" lon="-106.467451000">
        <ele>2148.000</ele>
        <time>2016-02-21T19:06:34Z</time>
        <name>WPT.510</name>
      </trkpt>
      <trkpt lat="35.074441000" lon="-106.467397000">
        <ele>2149.000</ele>
        <time>2016-02-21T19:06:39Z</time>
        <name>WPT.511</name>
      </trkpt>
      <trkpt lat="35.074460000" lon="-106.467342000">
        <ele>2150.000</ele>
        <time>2016-02-21T19:06:43Z</time>
        <name>WPT.512</name>
      </trkpt>
      <trkpt lat="35.074491000" lon="-106.467290000">
        <ele>2152.000</ele>
        <time>2016-02-21T19:06:49Z</time>
        <name>WPT.513</name>
      </trkpt>
      <trkpt lat="35.074516000" lon="-106.467237000">
        <ele>2154.000</ele>
        <time>2016-02-21T19:06:53Z</time>
        <name>WPT.514</name>
      </trkpt>
      <trkpt lat="35.074560000" lon="-106.467217000">
        <ele>2156.000</ele>
        <time>2016-02-21T19:06:57Z</time>
        <name>WPT.515</name>
      </trkpt>
      <trkpt lat="35.074615000" lon="-106.467187000">
        <ele>2158.000</ele>
        <time>2016-02-21T19:07:04Z</time>
        <name>WPT.516</name>
      </trkpt>
      <trkpt lat="35.074651000" lon="-106.467146000">
        <ele>2159.000</ele>
        <time>2016-02-21T19:07:11Z</time>
        <name>WPT.517</name>
      </trkpt>
      <trkpt lat="35.074670000" lon="-106.467090000">
        <ele>2158.000</ele>
        <time>2016-02-21T19:07:17Z</time>
        <name>WPT.518</name>
      </trkpt>
      <trkpt lat="35.074690000" lon="-106.467024000">
        <ele>2158.000</ele>
        <time>2016-02-21T19:11:27Z</time>
        <name>WPT.519</name>
      </trkpt>
      <trkpt lat="35.074719000" lon="-106.466972000">
        <ele>2159.000</ele>
        <time>2016-02-21T19:11:31Z</time>
        <name>WPT.520</name>
      </trkpt>
      <trkpt lat="35.074755000" lon="-106.466923000">
        <ele>2160.000</ele>
        <time>2016-02-21T19:11:37Z</time>
        <name>WPT.521</name>
      </trkpt>
      <trkpt lat="35.074801000" lon="-106.466909000">
        <ele>2161.000</ele>
        <time>2016-02-21T19:11:42Z</time>
        <name>WPT.522</name>
      </trkpt>
      <trkpt lat="35.074842000" lon="-106.466940000">
        <ele>2160.000</ele>
        <time>2016-02-21T19:11:46Z</time>
        <name>WPT.523</name>
      </trkpt>
      <trkpt lat="35.074892000" lon="-106.466956000">
        <ele>2162.000</ele>
        <time>2016-02-21T19:11:51Z</time>
        <name>WPT.524</name>
      </trkpt>
      <trkpt lat="35.074939000" lon="-106.466955000">
        <ele>2166.000</ele>
        <time>2016-02-21T19:11:55Z</time>
        <name>WPT.525</name>
      </trkpt>
      <trkpt lat="35.074978000" lon="-106.466994000">
        <ele>2167.000</ele>
        <time>2016-02-21T19:12:00Z</time>
        <name>WPT.526</name>
      </trkpt>
      <trkpt lat="35.075024000" lon="-106.467005000">
        <ele>2169.000</ele>
        <time>2016-02-21T19:12:04Z</time>
        <name>WPT.527</name>
      </trkpt>
      <trkpt lat="35.075073000" lon="-106.467014000">
        <ele>2170.000</ele>
        <time>2016-02-21T19:12:09Z</time>
        <name>WPT.528</name>
      </trkpt>
      <trkpt lat="35.075120000" lon="-106.467025000">
        <ele>2169.000</ele>
        <time>2016-02-21T19:12:14Z</time>
        <name>WPT.529</name>
      </trkpt>
      <trkpt lat="35.075166000" lon="-106.467027000">
        <ele>2172.000</ele>
        <time>2016-02-21T19:12:21Z</time>
        <name>WPT.530</name>
      </trkpt>
      <trkpt lat="35.075209000" lon="-106.467051000">
        <ele>2174.000</ele>
        <time>2016-02-21T19:12:26Z</time>
        <name>WPT.531</name>
      </trkpt>
      <trkpt lat="35.075250000" lon="-106.467089000">
        <ele>2175.000</ele>
        <time>2016-02-21T19:12:31Z</time>
        <name>WPT.532</name>
      </trkpt>
      <trkpt lat="35.075290000" lon="-106.467117000">
        <ele>2175.000</ele>
        <time>2016-02-21T19:12:36Z</time>
        <name>WPT.533</name>
      </trkpt>
      <trkpt lat="35.075339000" lon="-106.467142000">
        <ele>2177.000</ele>
        <time>2016-02-21T19:12:42Z</time>
        <name>WPT.534</name>
      </trkpt>
      <trkpt lat="35.075387000" lon="-106.467162000">
        <ele>2177.000</ele>
        <time>2016-02-21T19:13:17Z</time>
        <name>WPT.535</name>
      </trkpt>
      <trkpt lat="35.075430000" lon="-106.467181000">
        <ele>2178.000</ele>
        <time>2016-02-21T19:13:22Z</time>
        <name>WPT.536</name>
      </trkpt>
      <trkpt lat="35.075475000" lon="-106.467191000">
        <ele>2179.000</ele>
        <time>2016-02-21T19:13:27Z</time>
        <name>WPT.537</name>
      </trkpt>
      <trkpt lat="35.075519000" lon="-106.467207000">
        <ele>2178.000</ele>
        <time>2016-02-21T19:13:32Z</time>
        <name>WPT.538</name>
      </trkpt>
      <trkpt lat="35.075554000" lon="-106.467168000">
        <ele>2180.000</ele>
        <time>2016-02-21T19:13:40Z</time>
        <name>WPT.539</name>
      </trkpt>
      <trkpt lat="35.075598000" lon="-106.467147000">
        <ele>2181.000</ele>
        <time>2016-02-21T19:14:30Z</time>
        <name>WPT.540</name>
      </trkpt>
      <trkpt lat="35.075628000" lon="-106.467101000">
        <ele>2182.000</ele>
        <time>2016-02-21T19:14:35Z</time>
        <name>WPT.541</name>
      </trkpt>
      <trkpt lat="35.075634000" lon="-106.467042000">
        <ele>2184.000</ele>
        <time>2016-02-21T19:14:40Z</time>
        <name>WPT.542</name>
      </trkpt>
      <trkpt lat="35.075673000" lon="-106.467003000">
        <ele>2184.000</ele>
        <time>2016-02-21T19:14:44Z</time>
        <name>WPT.543</name>
      </trkpt>
      <trkpt lat="35.075718000" lon="-106.466961000">
        <ele>2186.000</ele>
        <time>2016-02-21T19:14:50Z</time>
        <name>WPT.544</name>
      </trkpt>
      <trkpt lat="35.075756000" lon="-106.466930000">
        <ele>2187.000</ele>
        <time>2016-02-21T19:14:56Z</time>
        <name>WPT.545</name>
      </trkpt>
      <trkpt lat="35.075802000" lon="-106.466936000">
        <ele>2184.000</ele>
        <time>2016-02-21T19:15:34Z</time>
        <name>WPT.546</name>
      </trkpt>
      <trkpt lat="35.075844000" lon="-106.466889000">
        <ele>2182.000</ele>
        <time>2016-02-21T19:15:40Z</time>
        <name>WPT.547</name>
      </trkpt>
      <trkpt lat="35.075880000" lon="-106.466842000">
        <ele>2182.000</ele>
        <time>2016-02-21T19:15:44Z</time>
        <name>WPT.548</name>
      </trkpt>
      <trkpt lat="35.075929000" lon="-106.466824000">
        <ele>2182.000</ele>
        <time>2016-02-21T19:15:49Z</time>
        <name>WPT.549</name>
      </trkpt>
      <trkpt lat="35.075975000" lon="-106.466799000">
        <ele>2181.000</ele>
        <time>2016-02-21T19:15:53Z</time>
        <name>WPT.550</name>
      </trkpt>
      <trkpt lat="35.076015000" lon="-106.466770000">
        <ele>2181.000</ele>
        <time>2016-02-21T19:15:57Z</time>
        <name>WPT.551</name>
      </trkpt>
      <trkpt lat="35.076058000" lon="-106.466747000">
        <ele>2181.000</ele>
        <time>2016-02-21T19:16:02Z</time>
        <name>WPT.552</name>
      </trkpt>
      <trkpt lat="35.076089000" lon="-106.466695000">
        <ele>2184.000</ele>
        <time>2016-02-21T19:16:08Z</time>
        <name>WPT.553</name>
      </trkpt>
      <trkpt lat="35.076127000" lon="-106.466660000">
        <ele>2185.000</ele>
        <time>2016-02-21T19:16:12Z</time>
        <name>WPT.554</name>
      </trkpt>
      <trkpt lat="35.076155000" lon="-106.466613000">
        <ele>2185.000</ele>
        <time>2016-02-21T19:16:18Z</time>
        <name>WPT.555</name>
      </trkpt>
      <trkpt lat="35.076198000" lon="-106.466580000">
        <ele>2187.000</ele>
        <time>2016-02-21T19:16:25Z</time>
        <name>WPT.556</name>
      </trkpt>
      <trkpt lat="35.076218000" lon="-106.466514000">
        <ele>2187.000</ele>
        <time>2016-02-21T19:16:33Z</time>
        <name>WPT.557</name>
      </trkpt>
      <trkpt lat="35.076252000" lon="-106.466471000">
        <ele>2189.000</ele>
        <time>2016-02-21T19:16:38Z</time>
        <name>WPT.558</name>
      </trkpt>
      <trkpt lat="35.076253000" lon="-106.466409000">
        <ele>2192.000</ele>
        <time>2016-02-21T19:16:43Z</time>
        <name>WPT.559</name>
      </trkpt>
      <trkpt lat="35.076284000" lon="-106.466457000">
        <ele>2187.000</ele>
        <time>2016-02-21T19:16:53Z</time>
        <name>WPT.560</name>
      </trkpt>
      <trkpt lat="35.076239000" lon="-106.466441000">
        <ele>2186.000</ele>
        <time>2016-02-21T19:17:45Z</time>
        <name>WPT.561</name>
      </trkpt>
      <trkpt lat="35.076240000" lon="-106.466381000">
        <ele>2182.000</ele>
        <time>2016-02-21T19:19:14Z</time>
        <name>WPT.562</name>
      </trkpt>
      <trkpt lat="35.076260000" lon="-106.466331000">
        <ele>2183.000</ele>
        <time>2016-02-21T19:19:25Z</time>
        <name>WPT.563</name>
      </trkpt>
      <trkpt lat="35.076302000" lon="-106.466310000">
        <ele>2184.000</ele>
        <time>2016-02-21T19:19:32Z</time>
        <name>WPT.564</name>
      </trkpt>
      <trkpt lat="35.076342000" lon="-106.466280000">
        <ele>2184.000</ele>
        <time>2016-02-21T19:19:46Z</time>
        <name>WPT.565</name>
      </trkpt>
      <trkpt lat="35.076387000" lon="-106.466286000">
        <ele>2187.000</ele>
        <time>2016-02-21T19:20:19Z</time>
        <name>WPT.566</name>
      </trkpt>
      <trkpt lat="35.076420000" lon="-106.466326000">
        <ele>2188.000</ele>
        <time>2016-02-21T19:20:31Z</time>
        <name>WPT.567</name>
      </trkpt>
      <trkpt lat="35.076445000" lon="-106.466375000">
        <ele>2193.000</ele>
        <time>2016-02-21T19:20:42Z</time>
        <name>WPT.568</name>
      </trkpt>
      <trkpt lat="35.076490000" lon="-106.466413000">
        <ele>2195.000</ele>
        <time>2016-02-21T19:20:51Z</time>
        <name>WPT.569</name>
      </trkpt>
      <trkpt lat="35.076530000" lon="-106.466439000">
        <ele>2198.000</ele>
        <time>2016-02-21T19:20:57Z</time>
        <name>WPT.570</name>
      </trkpt>
      <trkpt lat="35.076570000" lon="-106.466471000">
        <ele>2198.000</ele>
        <time>2016-02-21T19:21:01Z</time>
        <name>WPT.571</name>
      </trkpt>
      <trkpt lat="35.076604000" lon="-106.466431000">
        <ele>2200.000</ele>
        <time>2016-02-21T19:21:19Z</time>
        <name>WPT.572</name>
      </trkpt>
      <trkpt lat="35.076634000" lon="-106.466384000">
        <ele>2199.000</ele>
        <time>2016-02-21T19:21:30Z</time>
        <name>WPT.573</name>
      </trkpt>
      <trkpt lat="35.076627000" lon="-106.466327000">
        <ele>2195.000</ele>
        <time>2016-02-21T19:21:52Z</time>
        <name>WPT.574</name>
      </trkpt>
      <trkpt lat="35.076660000" lon="-106.466282000">
        <ele>2193.000</ele>
        <time>2016-02-21T19:22:09Z</time>
        <name>WPT.575</name>
      </trkpt>
      <trkpt lat="35.076691000" lon="-106.466235000">
        <ele>2192.000</ele>
        <time>2016-02-21T19:22:23Z</time>
        <name>WPT.576</name>
      </trkpt>
      <trkpt lat="35.076738000" lon="-106.466216000">
        <ele>2195.000</ele>
        <time>2016-02-21T19:22:28Z</time>
        <name>WPT.577</name>
      </trkpt>
      <trkpt lat="35.076786000" lon="-106.466217000">
        <ele>2195.000</ele>
        <time>2016-02-21T19:22:32Z</time>
        <name>WPT.578</name>
      </trkpt>
      <trkpt lat="35.076832000" lon="-106.466199000">
        <ele>2197.000</ele>
        <time>2016-02-21T19:22:37Z</time>
        <name>WPT.579</name>
      </trkpt>
      <trkpt lat="35.076878000" lon="-106.466174000">
        <ele>2198.000</ele>
        <time>2016-02-21T19:22:41Z</time>
        <name>WPT.580</name>
      </trkpt>
      <trkpt lat="35.076925000" lon="-106.466185000">
        <ele>2198.000</ele>
        <time>2016-02-21T19:22:48Z</time>
        <name>WPT.581</name>
      </trkpt>
      <trkpt lat="35.076988000" lon="-106.466201000">
        <ele>2198.000</ele>
        <time>2016-02-21T19:22:58Z</time>
        <name>WPT.582</name>
      </trkpt>
      <trkpt lat="35.077023000" lon="-106.466242000">
        <ele>2196.000</ele>
        <time>2016-02-21T19:23:09Z</time>
        <name>WPT.583</name>
      </trkpt>
      <trkpt lat="35.077046000" lon="-106.466292000">
        <ele>2194.000</ele>
        <time>2016-02-21T19:23:15Z</time>
        <name>WPT.584</name>
      </trkpt>
      <trkpt lat="35.076993000" lon="-106.466313000">
        <ele>2195.000</ele>
        <time>2016-02-21T19:23:56Z</time>
        <name>WPT.585</name>
      </trkpt>
      <trkpt lat="35.076947000" lon="-106.466316000">
        <ele>2196.000</ele>
        <time>2016-02-21T19:24:07Z</time>
        <name>WPT.586</name>
      </trkpt>
      <trkpt lat="35.076918000" lon="-106.466273000">
        <ele>2207.000</ele>
        <time>2016-02-21T19:24:24Z</time>
        <name>WPT.587</name>
      </trkpt>
      <trkpt lat="35.076911000" lon="-106.466219000">
        <ele>2208.000</ele>
        <time>2016-02-21T19:24:30Z</time>
        <name>WPT.588</name>
      </trkpt>
      <trkpt lat="35.076947000" lon="-106.466176000">
        <ele>2207.000</ele>
        <time>2016-02-21T19:24:47Z</time>
        <name>WPT.589</name>
      </trkpt>
      <trkpt lat="35.076990000" lon="-106.466131000">
        <ele>2212.000</ele>
        <time>2016-02-21T19:24:55Z</time>
        <name>WPT.590</name>
      </trkpt>
      <trkpt lat="35.076982000" lon="-106.466187000">
        <ele>2204.000</ele>
        <time>2016-02-21T19:25:09Z</time>
        <name>WPT.591</name>
      </trkpt>
      <trkpt lat="35.076949000" lon="-106.466224000">
        <ele>2201.000</ele>
        <time>2016-02-21T19:25:31Z</time>
        <name>WPT.592</name>
      </trkpt>
      <trkpt lat="35.076905000" lon="-106.466253000">
        <ele>2202.000</ele>
        <time>2016-02-21T19:25:36Z</time>
        <name>WPT.593</name>
      </trkpt>
      <trkpt lat="35.076867000" lon="-106.466299000">
        <ele>2198.000</ele>
        <time>2016-02-21T19:26:30Z</time>
        <name>WPT.594</name>
      </trkpt>
      <trkpt lat="35.076857000" lon="-106.466353000">
        <ele>2199.000</ele>
        <time>2016-02-21T19:26:56Z</time>
        <name>WPT.595</name>
      </trkpt>
      <trkpt lat="35.076845000" lon="-106.466297000">
        <ele>2200.000</ele>
        <time>2016-02-21T20:03:55Z</time>
        <name>WPT.596</name>
      </trkpt>
      <trkpt lat="35.076801000" lon="-106.466272000">
        <ele>2195.000</ele>
        <time>2016-02-21T20:04:28Z</time>
        <name>WPT.597</name>
      </trkpt>
      <trkpt lat="35.076749000" lon="-106.466253000">
        <ele>2192.000</ele>
        <time>2016-02-21T20:04:36Z</time>
        <name>WPT.598</name>
      </trkpt>
      <trkpt lat="35.076704000" lon="-106.466245000">
        <ele>2191.000</ele>
        <time>2016-02-21T20:05:37Z</time>
        <name>WPT.599</name>
      </trkpt>
      <trkpt lat="35.076655000" lon="-106.466246000">
        <ele>2191.000</ele>
        <time>2016-02-21T20:05:54Z</time>
        <name>WPT.600</name>
      </trkpt>
      <trkpt lat="35.076611000" lon="-106.466222000">
        <ele>2185.000</ele>
        <time>2016-02-21T20:06:03Z</time>
        <name>WPT.601</name>
      </trkpt>
      <trkpt lat="35.076565000" lon="-106.466219000">
        <ele>2185.000</ele>
        <time>2016-02-21T20:06:09Z</time>
        <name>WPT.602</name>
      </trkpt>
      <trkpt lat="35.076530000" lon="-106.466256000">
        <ele>2188.000</ele>
        <time>2016-02-21T20:06:18Z</time>
        <name>WPT.603</name>
      </trkpt>
      <trkpt lat="35.076490000" lon="-106.466293000">
        <ele>2187.000</ele>
        <time>2016-02-21T20:06:24Z</time>
        <name>WPT.604</name>
      </trkpt>
      <trkpt lat="35.076438000" lon="-106.466304000">
        <ele>2185.000</ele>
        <time>2016-02-21T20:06:34Z</time>
        <name>WPT.605</name>
      </trkpt>
      <trkpt lat="35.076396000" lon="-106.466324000">
        <ele>2184.000</ele>
        <time>2016-02-21T20:06:43Z</time>
        <name>WPT.606</name>
      </trkpt>
      <trkpt lat="35.076345000" lon="-106.466325000">
        <ele>2183.000</ele>
        <time>2016-02-21T20:07:07Z</time>
        <name>WPT.607</name>
      </trkpt>
      <trkpt lat="35.076302000" lon="-106.466350000">
        <ele>2182.000</ele>
        <time>2016-02-21T20:07:16Z</time>
        <name>WPT.608</name>
      </trkpt>
      <trkpt lat="35.076259000" lon="-106.466378000">
        <ele>2182.000</ele>
        <time>2016-02-21T20:07:23Z</time>
        <name>WPT.609</name>
      </trkpt>
      <trkpt lat="35.076237000" lon="-106.466427000">
        <ele>2183.000</ele>
        <time>2016-02-21T20:07:28Z</time>
        <name>WPT.610</name>
      </trkpt>
      <trkpt lat="35.076228000" lon="-106.466488000">
        <ele>2184.000</ele>
        <time>2016-02-21T20:07:36Z</time>
        <name>WPT.611</name>
      </trkpt>
      <trkpt lat="35.076217000" lon="-106.466544000">
        <ele>2184.000</ele>
        <time>2016-02-21T20:07:44Z</time>
        <name>WPT.612</name>
      </trkpt>
      <trkpt lat="35.076181000" lon="-106.466583000">
        <ele>2183.000</ele>
        <time>2016-02-21T20:07:49Z</time>
        <name>WPT.613</name>
      </trkpt>
      <trkpt lat="35.076140000" lon="-106.466613000">
        <ele>2180.000</ele>
        <time>2016-02-21T20:07:55Z</time>
        <name>WPT.614</name>
      </trkpt>
      <trkpt lat="35.076121000" lon="-106.466664000">
        <ele>2179.000</ele>
        <time>2016-02-21T20:08:00Z</time>
        <name>WPT.615</name>
      </trkpt>
      <trkpt lat="35.076084000" lon="-106.466711000">
        <ele>2178.000</ele>
        <time>2016-02-21T20:08:05Z</time>
        <name>WPT.616</name>
      </trkpt>
      <trkpt lat="35.076041000" lon="-106.466737000">
        <ele>2179.000</ele>
        <time>2016-02-21T20:08:09Z</time>
        <name>WPT.617</name>
      </trkpt>
      <trkpt lat="35.075994000" lon="-106.466762000">
        <ele>2177.000</ele>
        <time>2016-02-21T20:08:15Z</time>
        <name>WPT.618</name>
      </trkpt>
      <trkpt lat="35.075947000" lon="-106.466794000">
        <ele>2176.000</ele>
        <time>2016-02-21T20:08:21Z</time>
        <name>WPT.619</name>
      </trkpt>
      <trkpt lat="35.075901000" lon="-106.466823000">
        <ele>2177.000</ele>
        <time>2016-02-21T20:08:26Z</time>
        <name>WPT.620</name>
      </trkpt>
      <trkpt lat="35.075854000" lon="-106.466849000">
        <ele>2178.000</ele>
        <time>2016-02-21T20:08:32Z</time>
        <name>WPT.621</name>
      </trkpt>
      <trkpt lat="35.075815000" lon="-106.466895000">
        <ele>2177.000</ele>
        <time>2016-02-21T20:08:37Z</time>
        <name>WPT.622</name>
      </trkpt>
      <trkpt lat="35.075781000" lon="-106.466933000">
        <ele>2180.000</ele>
        <time>2016-02-21T20:08:42Z</time>
        <name>WPT.623</name>
      </trkpt>
      <trkpt lat="35.075732000" lon="-106.466960000">
        <ele>2181.000</ele>
        <time>2016-02-21T20:08:47Z</time>
        <name>WPT.624</name>
      </trkpt>
      <trkpt lat="35.075693000" lon="-106.466992000">
        <ele>2181.000</ele>
        <time>2016-02-21T20:08:53Z</time>
        <name>WPT.625</name>
      </trkpt>
      <trkpt lat="35.075654000" lon="-106.467029000">
        <ele>2178.000</ele>
        <time>2016-02-21T20:09:00Z</time>
        <name>WPT.626</name>
      </trkpt>
      <trkpt lat="35.075644000" lon="-106.467084000">
        <ele>2179.000</ele>
        <time>2016-02-21T20:09:10Z</time>
        <name>WPT.627</name>
      </trkpt>
      <trkpt lat="35.075610000" lon="-106.467123000">
        <ele>2177.000</ele>
        <time>2016-02-21T20:09:24Z</time>
        <name>WPT.628</name>
      </trkpt>
      <trkpt lat="35.075586000" lon="-106.467173000">
        <ele>2175.000</ele>
        <time>2016-02-21T20:09:37Z</time>
        <name>WPT.629</name>
      </trkpt>
      <trkpt lat="35.075545000" lon="-106.467205000">
        <ele>2173.000</ele>
        <time>2016-02-21T20:09:46Z</time>
        <name>WPT.630</name>
      </trkpt>
      <trkpt lat="35.075492000" lon="-106.467220000">
        <ele>2173.000</ele>
        <time>2016-02-21T20:09:52Z</time>
        <name>WPT.631</name>
      </trkpt>
      <trkpt lat="35.075447000" lon="-106.467208000">
        <ele>2172.000</ele>
        <time>2016-02-21T20:09:56Z</time>
        <name>WPT.632</name>
      </trkpt>
      <trkpt lat="35.075397000" lon="-106.467197000">
        <ele>2171.000</ele>
        <time>2016-02-21T20:10:01Z</time>
        <name>WPT.633</name>
      </trkpt>
      <trkpt lat="35.075351000" lon="-106.467174000">
        <ele>2171.000</ele>
        <time>2016-02-21T20:10:06Z</time>
        <name>WPT.634</name>
      </trkpt>
      <trkpt lat="35.075310000" lon="-106.467143000">
        <ele>2169.000</ele>
        <time>2016-02-21T20:10:10Z</time>
        <name>WPT.635</name>
      </trkpt>
      <trkpt lat="35.075262000" lon="-106.467125000">
        <ele>2169.000</ele>
        <time>2016-02-21T20:10:15Z</time>
        <name>WPT.636</name>
      </trkpt>
      <trkpt lat="35.075225000" lon="-106.467086000">
        <ele>2168.000</ele>
        <time>2016-02-21T20:10:21Z</time>
        <name>WPT.637</name>
      </trkpt>
      <trkpt lat="35.075186000" lon="-106.467056000">
        <ele>2166.000</ele>
        <time>2016-02-21T20:10:26Z</time>
        <name>WPT.638</name>
      </trkpt>
      <trkpt lat="35.075133000" lon="-106.467055000">
        <ele>2164.000</ele>
        <time>2016-02-21T20:10:32Z</time>
        <name>WPT.639</name>
      </trkpt>
      <trkpt lat="35.075085000" lon="-106.467040000">
        <ele>2166.000</ele>
        <time>2016-02-21T20:10:37Z</time>
        <name>WPT.640</name>
      </trkpt>
      <trkpt lat="35.075039000" lon="-106.467026000">
        <ele>2163.000</ele>
        <time>2016-02-21T20:10:41Z</time>
        <name>WPT.641</name>
      </trkpt>
      <trkpt lat="35.074992000" lon="-106.467008000">
        <ele>2162.000</ele>
        <time>2016-02-21T20:10:46Z</time>
        <name>WPT.642</name>
      </trkpt>
      <trkpt lat="35.074949000" lon="-106.466971000">
        <ele>2160.000</ele>
        <time>2016-02-21T20:10:51Z</time>
        <name>WPT.643</name>
      </trkpt>
      <trkpt lat="35.074902000" lon="-106.466962000">
        <ele>2158.000</ele>
        <time>2016-02-21T20:10:56Z</time>
        <name>WPT.644</name>
      </trkpt>
      <trkpt lat="35.074859000" lon="-106.466938000">
        <ele>2158.000</ele>
        <time>2016-02-21T20:11:01Z</time>
        <name>WPT.645</name>
      </trkpt>
      <trkpt lat="35.074810000" lon="-106.466933000">
        <ele>2159.000</ele>
        <time>2016-02-21T20:11:05Z</time>
        <name>WPT.646</name>
      </trkpt>
      <trkpt lat="35.074754000" lon="-106.466940000">
        <ele>2159.000</ele>
        <time>2016-02-21T20:11:10Z</time>
        <name>WPT.647</name>
      </trkpt>
      <trkpt lat="35.074721000" lon="-106.466977000">
        <ele>2158.000</ele>
        <time>2016-02-21T20:11:15Z</time>
        <name>WPT.648</name>
      </trkpt>
      <trkpt lat="35.074692000" lon="-106.467024000">
        <ele>2159.000</ele>
        <time>2016-02-21T20:11:21Z</time>
        <name>WPT.649</name>
      </trkpt>
      <trkpt lat="35.074691000" lon="-106.467079000">
        <ele>2158.000</ele>
        <time>2016-02-21T20:11:27Z</time>
        <name>WPT.650</name>
      </trkpt>
      <trkpt lat="35.074680000" lon="-106.467142000">
        <ele>2155.000</ele>
        <time>2016-02-21T20:11:35Z</time>
        <name>WPT.651</name>
      </trkpt>
      <trkpt lat="35.074648000" lon="-106.467190000">
        <ele>2152.000</ele>
        <time>2016-02-21T20:11:40Z</time>
        <name>WPT.652</name>
      </trkpt>
      <trkpt lat="35.074605000" lon="-106.467216000">
        <ele>2151.000</ele>
        <time>2016-02-21T20:11:45Z</time>
        <name>WPT.653</name>
      </trkpt>
      <trkpt lat="35.074558000" lon="-106.467243000">
        <ele>2149.000</ele>
        <time>2016-02-21T20:11:50Z</time>
        <name>WPT.654</name>
      </trkpt>
      <trkpt lat="35.074516000" lon="-106.467279000">
        <ele>2149.000</ele>
        <time>2016-02-21T20:11:55Z</time>
        <name>WPT.655</name>
      </trkpt>
      <trkpt lat="35.074477000" lon="-106.467327000">
        <ele>2148.000</ele>
        <time>2016-02-21T20:12:00Z</time>
        <name>WPT.656</name>
      </trkpt>
      <trkpt lat="35.074448000" lon="-106.467379000">
        <ele>2149.000</ele>
        <time>2016-02-21T20:12:05Z</time>
        <name>WPT.657</name>
      </trkpt>
      <trkpt lat="35.074411000" lon="-106.467438000">
        <ele>2148.000</ele>
        <time>2016-02-21T20:12:10Z</time>
        <name>WPT.658</name>
      </trkpt>
      <trkpt lat="35.074403000" lon="-106.467494000">
        <ele>2150.000</ele>
        <time>2016-02-21T20:12:16Z</time>
        <name>WPT.659</name>
      </trkpt>
      <trkpt lat="35.074376000" lon="-106.467545000">
        <ele>2149.000</ele>
        <time>2016-02-21T20:12:22Z</time>
        <name>WPT.660</name>
      </trkpt>
      <trkpt lat="35.074368000" lon="-106.467602000">
        <ele>2149.000</ele>
        <time>2016-02-21T20:12:27Z</time>
        <name>WPT.661</name>
      </trkpt>
      <trkpt lat="35.074347000" lon="-106.467660000">
        <ele>2150.000</ele>
        <time>2016-02-21T20:12:32Z</time>
        <name>WPT.662</name>
      </trkpt>
      <trkpt lat="35.074303000" lon="-106.467708000">
        <ele>2148.000</ele>
        <time>2016-02-21T20:12:36Z</time>
        <name>WPT.663</name>
      </trkpt>
      <trkpt lat="35.074260000" lon="-106.467728000">
        <ele>2148.000</ele>
        <time>2016-02-21T20:12:40Z</time>
        <name>WPT.664</name>
      </trkpt>
      <trkpt lat="35.074207000" lon="-106.467718000">
        <ele>2147.000</ele>
        <time>2016-02-21T20:12:45Z</time>
        <name>WPT.665</name>
      </trkpt>
      <trkpt lat="35.074163000" lon="-106.467743000">
        <ele>2145.000</ele>
        <time>2016-02-21T20:12:50Z</time>
        <name>WPT.666</name>
      </trkpt>
      <trkpt lat="35.074163000" lon="-106.467801000">
        <ele>2146.000</ele>
        <time>2016-02-21T20:12:56Z</time>
        <name>WPT.667</name>
      </trkpt>
      <trkpt lat="35.074140000" lon="-106.467858000">
        <ele>2148.000</ele>
        <time>2016-02-21T20:13:19Z</time>
        <name>WPT.668</name>
      </trkpt>
      <trkpt lat="35.074101000" lon="-106.467886000">
        <ele>2147.000</ele>
        <time>2016-02-21T20:13:23Z</time>
        <name>WPT.669</name>
      </trkpt>
      <trkpt lat="35.074067000" lon="-106.467923000">
        <ele>2147.000</ele>
        <time>2016-02-21T20:13:27Z</time>
        <name>WPT.670</name>
      </trkpt>
      <trkpt lat="35.074024000" lon="-106.467957000">
        <ele>2147.000</ele>
        <time>2016-02-21T20:13:31Z</time>
        <name>WPT.671</name>
      </trkpt>
      <trkpt lat="35.073986000" lon="-106.467996000">
        <ele>2144.000</ele>
        <time>2016-02-21T20:13:36Z</time>
        <name>WPT.672</name>
      </trkpt>
      <trkpt lat="35.073941000" lon="-106.468018000">
        <ele>2145.000</ele>
        <time>2016-02-21T20:13:40Z</time>
        <name>WPT.673</name>
      </trkpt>
      <trkpt lat="35.073893000" lon="-106.468021000">
        <ele>2145.000</ele>
        <time>2016-02-21T20:13:45Z</time>
        <name>WPT.674</name>
      </trkpt>
      <trkpt lat="35.073937000" lon="-106.468008000">
        <ele>2146.000</ele>
        <time>2016-02-21T20:16:11Z</time>
        <name>WPT.675</name>
      </trkpt>
      <trkpt lat="35.073890000" lon="-106.468023000">
        <ele>2143.000</ele>
        <time>2016-02-21T20:16:40Z</time>
        <name>WPT.676</name>
      </trkpt>
      <trkpt lat="35.073838000" lon="-106.468017000">
        <ele>2140.000</ele>
        <time>2016-02-21T20:19:18Z</time>
        <name>WPT.677</name>
      </trkpt>
      <trkpt lat="35.073803000" lon="-106.468052000">
        <ele>2139.000</ele>
        <time>2016-02-21T20:19:22Z</time>
        <name>WPT.678</name>
      </trkpt>
      <trkpt lat="35.073765000" lon="-106.468091000">
        <ele>2138.000</ele>
        <time>2016-02-21T20:19:27Z</time>
        <name>WPT.679</name>
      </trkpt>
      <trkpt lat="35.073719000" lon="-106.468099000">
        <ele>2137.000</ele>
        <time>2016-02-21T20:19:31Z</time>
        <name>WPT.680</name>
      </trkpt>
      <trkpt lat="35.073682000" lon="-106.468133000">
        <ele>2137.000</ele>
        <time>2016-02-21T20:19:35Z</time>
        <name>WPT.681</name>
      </trkpt>
      <trkpt lat="35.073638000" lon="-106.468151000">
        <ele>2137.000</ele>
        <time>2016-02-21T20:19:39Z</time>
        <name>WPT.682</name>
      </trkpt>
      <trkpt lat="35.073602000" lon="-106.468187000">
        <ele>2137.000</ele>
        <time>2016-02-21T20:19:49Z</time>
        <name>WPT.683</name>
      </trkpt>
      <trkpt lat="35.073556000" lon="-106.468199000">
        <ele>2136.000</ele>
        <time>2016-02-21T20:19:57Z</time>
        <name>WPT.684</name>
      </trkpt>
      <trkpt lat="35.073512000" lon="-106.468217000">
        <ele>2134.000</ele>
        <time>2016-02-21T20:20:12Z</time>
        <name>WPT.685</name>
      </trkpt>
      <trkpt lat="35.073463000" lon="-106.468220000">
        <ele>2131.000</ele>
        <time>2016-02-21T20:20:26Z</time>
        <name>WPT.686</name>
      </trkpt>
      <trkpt lat="35.073420000" lon="-106.468246000">
        <ele>2131.000</ele>
        <time>2016-02-21T20:20:31Z</time>
        <name>WPT.687</name>
      </trkpt>
      <trkpt lat="35.073403000" lon="-106.468304000">
        <ele>2130.000</ele>
        <time>2016-02-21T20:20:36Z</time>
        <name>WPT.688</name>
      </trkpt>
      <trkpt lat="35.073398000" lon="-106.468363000">
        <ele>2127.000</ele>
        <time>2016-02-21T20:20:41Z</time>
        <name>WPT.689</name>
      </trkpt>
      <trkpt lat="35.073406000" lon="-106.468419000">
        <ele>2126.000</ele>
        <time>2016-02-21T20:20:47Z</time>
        <name>WPT.690</name>
      </trkpt>
      <trkpt lat="35.073380000" lon="-106.468477000">
        <ele>2125.000</ele>
        <time>2016-02-21T20:20:58Z</time>
        <name>WPT.691</name>
      </trkpt>
      <trkpt lat="35.073361000" lon="-106.468537000">
        <ele>2120.000</ele>
        <time>2016-02-21T20:21:03Z</time>
        <name>WPT.692</name>
      </trkpt>
      <trkpt lat="35.073347000" lon="-106.468589000">
        <ele>2120.000</ele>
        <time>2016-02-21T20:21:08Z</time>
        <name>WPT.693</name>
      </trkpt>
      <trkpt lat="35.073364000" lon="-106.468640000">
        <ele>2120.000</ele>
        <time>2016-02-21T20:21:14Z</time>
        <name>WPT.694</name>
      </trkpt>
      <trkpt lat="35.073333000" lon="-106.468685000">
        <ele>2120.000</ele>
        <time>2016-02-21T20:21:24Z</time>
        <name>WPT.695</name>
      </trkpt>
      <trkpt lat="35.073325000" lon="-106.468740000">
        <ele>2119.000</ele>
        <time>2016-02-21T20:21:32Z</time>
        <name>WPT.696</name>
      </trkpt>
      <trkpt lat="35.073308000" lon="-106.468791000">
        <ele>2116.000</ele>
        <time>2016-02-21T20:21:40Z</time>
        <name>WPT.697</name>
      </trkpt>
      <trkpt lat="35.073299000" lon="-106.468848000">
        <ele>2113.000</ele>
        <time>2016-02-21T20:21:45Z</time>
        <name>WPT.698</name>
      </trkpt>
      <trkpt lat="35.073290000" lon="-106.468903000">
        <ele>2111.000</ele>
        <time>2016-02-21T20:21:53Z</time>
        <name>WPT.699</name>
      </trkpt>
      <trkpt lat="35.073282000" lon="-106.468962000">
        <ele>2108.000</ele>
        <time>2016-02-21T20:22:01Z</time>
        <name>WPT.700</name>
      </trkpt>
      <trkpt lat="35.073243000" lon="-106.469009000">
        <ele>2108.000</ele>
        <time>2016-02-21T20:22:15Z</time>
        <name>WPT.701</name>
      </trkpt>
      <trkpt lat="35.073198000" lon="-106.469034000">
        <ele>2106.000</ele>
        <time>2016-02-21T20:22:39Z</time>
        <name>WPT.702</name>
      </trkpt>
      <trkpt lat="35.073156000" lon="-106.469060000">
        <ele>2105.000</ele>
        <time>2016-02-21T20:22:52Z</time>
        <name>WPT.703</name>
      </trkpt>
      <trkpt lat="35.073110000" lon="-106.469089000">
        <ele>2102.000</ele>
        <time>2016-02-21T20:23:00Z</time>
        <name>WPT.704</name>
      </trkpt>
      <trkpt lat="35.073075000" lon="-106.469136000">
        <ele>2101.000</ele>
        <time>2016-02-21T20:23:07Z</time>
        <name>WPT.705</name>
      </trkpt>
      <trkpt lat="35.073058000" lon="-106.469188000">
        <ele>2101.000</ele>
        <time>2016-02-21T20:23:15Z</time>
        <name>WPT.706</name>
      </trkpt>
      <trkpt lat="35.073030000" lon="-106.469233000">
        <ele>2100.000</ele>
        <time>2016-02-21T20:23:24Z</time>
        <name>WPT.707</name>
      </trkpt>
      <trkpt lat="35.073010000" lon="-106.469295000">
        <ele>2100.000</ele>
        <time>2016-02-21T20:24:01Z</time>
        <name>WPT.708</name>
      </trkpt>
      <trkpt lat="35.072978000" lon="-106.469338000">
        <ele>2099.000</ele>
        <time>2016-02-21T20:24:06Z</time>
        <name>WPT.709</name>
      </trkpt>
      <trkpt lat="35.072933000" lon="-106.469370000">
        <ele>2098.000</ele>
        <time>2016-02-21T20:24:11Z</time>
        <name>WPT.710</name>
      </trkpt>
      <trkpt lat="35.072882000" lon="-106.469394000">
        <ele>2097.000</ele>
        <time>2016-02-21T20:24:17Z</time>
        <name>WPT.711</name>
      </trkpt>
      <trkpt lat="35.072842000" lon="-106.469420000">
        <ele>2097.000</ele>
        <time>2016-02-21T20:24:21Z</time>
        <name>WPT.712</name>
      </trkpt>
      <trkpt lat="35.072818000" lon="-106.469472000">
        <ele>2097.000</ele>
        <time>2016-02-21T20:24:27Z</time>
        <name>WPT.713</name>
      </trkpt>
      <trkpt lat="35.072797000" lon="-106.469522000">
        <ele>2095.000</ele>
        <time>2016-02-21T20:24:33Z</time>
        <name>WPT.714</name>
      </trkpt>
      <trkpt lat="35.072783000" lon="-106.469576000">
        <ele>2094.000</ele>
        <time>2016-02-21T20:24:41Z</time>
        <name>WPT.715</name>
      </trkpt>
      <trkpt lat="35.072788000" lon="-106.469635000">
        <ele>2091.000</ele>
        <time>2016-02-21T20:24:50Z</time>
        <name>WPT.716</name>
      </trkpt>
      <trkpt lat="35.072793000" lon="-106.469695000">
        <ele>2088.000</ele>
        <time>2016-02-21T20:25:01Z</time>
        <name>WPT.717</name>
      </trkpt>
      <trkpt lat="35.072829000" lon="-106.469738000">
        <ele>2087.000</ele>
        <time>2016-02-21T20:25:09Z</time>
        <name>WPT.718</name>
      </trkpt>
      <trkpt lat="35.072822000" lon="-106.469804000">
        <ele>2083.000</ele>
        <time>2016-02-21T20:25:17Z</time>
        <name>WPT.719</name>
      </trkpt>
      <trkpt lat="35.072791000" lon="-106.469855000">
        <ele>2083.000</ele>
        <time>2016-02-21T20:25:26Z</time>
        <name>WPT.720</name>
      </trkpt>
      <trkpt lat="35.072795000" lon="-106.469915000">
        <ele>2080.000</ele>
        <time>2016-02-21T20:25:33Z</time>
        <name>WPT.721</name>
      </trkpt>
      <trkpt lat="35.072798000" lon="-106.469973000">
        <ele>2078.000</ele>
        <time>2016-02-21T20:25:39Z</time>
        <name>WPT.722</name>
      </trkpt>
      <trkpt lat="35.072811000" lon="-106.470029000">
        <ele>2079.000</ele>
        <time>2016-02-21T20:25:46Z</time>
        <name>WPT.723</name>
      </trkpt>
      <trkpt lat="35.072840000" lon="-106.470082000">
        <ele>2078.000</ele>
        <time>2016-02-21T20:25:54Z</time>
        <name>WPT.724</name>
      </trkpt>
      <trkpt lat="35.072880000" lon="-106.470107000">
        <ele>2075.000</ele>
        <time>2016-02-21T20:26:03Z</time>
        <name>WPT.725</name>
      </trkpt>
      <trkpt lat="35.072926000" lon="-106.470086000">
        <ele>2073.000</ele>
        <time>2016-02-21T20:26:08Z</time>
        <name>WPT.726</name>
      </trkpt>
      <trkpt lat="35.072978000" lon="-106.470070000">
        <ele>2075.000</ele>
        <time>2016-02-21T20:26:13Z</time>
        <name>WPT.727</name>
      </trkpt>
      <trkpt lat="35.073027000" lon="-106.470049000">
        <ele>2075.000</ele>
        <time>2016-02-21T20:26:18Z</time>
        <name>WPT.728</name>
      </trkpt>
      <trkpt lat="35.073078000" lon="-106.470066000">
        <ele>2076.000</ele>
        <time>2016-02-21T20:26:22Z</time>
        <name>WPT.729</name>
      </trkpt>
      <trkpt lat="35.073127000" lon="-106.470074000">
        <ele>2075.000</ele>
        <time>2016-02-21T20:26:27Z</time>
        <name>WPT.730</name>
      </trkpt>
      <trkpt lat="35.073178000" lon="-106.470092000">
        <ele>2074.000</ele>
        <time>2016-02-21T20:26:31Z</time>
        <name>WPT.731</name>
      </trkpt>
      <trkpt lat="35.073228000" lon="-106.470088000">
        <ele>2074.000</ele>
        <time>2016-02-21T20:26:36Z</time>
        <name>WPT.732</name>
      </trkpt>
      <trkpt lat="35.073274000" lon="-106.470077000">
        <ele>2075.000</ele>
        <time>2016-02-21T20:26:41Z</time>
        <name>WPT.733</name>
      </trkpt>
      <trkpt lat="35.073322000" lon="-106.470082000">
        <ele>2076.000</ele>
        <time>2016-02-21T20:26:46Z</time>
        <name>WPT.734</name>
      </trkpt>
      <trkpt lat="35.073369000" lon="-106.470078000">
        <ele>2077.000</ele>
        <time>2016-02-21T20:26:50Z</time>
        <name>WPT.735</name>
      </trkpt>
      <trkpt lat="35.073414000" lon="-106.470068000">
        <ele>2079.000</ele>
        <time>2016-02-21T20:26:55Z</time>
        <name>WPT.736</name>
      </trkpt>
      <trkpt lat="35.073458000" lon="-106.470085000">
        <ele>2079.000</ele>
        <time>2016-02-21T20:26:59Z</time>
        <name>WPT.737</name>
      </trkpt>
      <trkpt lat="35.073508000" lon="-106.470099000">
        <ele>2079.000</ele>
        <time>2016-02-21T20:27:04Z</time>
        <name>WPT.738</name>
      </trkpt>
      <trkpt lat="35.073553000" lon="-106.470093000">
        <ele>2077.000</ele>
        <time>2016-02-21T20:27:10Z</time>
        <name>WPT.739</name>
      </trkpt>
      <trkpt lat="35.073609000" lon="-106.470096000">
        <ele>2076.000</ele>
        <time>2016-02-21T20:27:16Z</time>
        <name>WPT.740</name>
      </trkpt>
      <trkpt lat="35.073655000" lon="-106.470093000">
        <ele>2076.000</ele>
        <time>2016-02-21T20:27:21Z</time>
        <name>WPT.741</name>
      </trkpt>
      <trkpt lat="35.073702000" lon="-106.470117000">
        <ele>2076.000</ele>
        <time>2016-02-21T20:27:27Z</time>
        <name>WPT.742</name>
      </trkpt>
      <trkpt lat="35.073744000" lon="-106.470155000">
        <ele>2073.000</ele>
        <time>2016-02-21T20:27:33Z</time>
        <name>WPT.743</name>
      </trkpt>
      <trkpt lat="35.073788000" lon="-106.470193000">
        <ele>2075.000</ele>
        <time>2016-02-21T20:27:38Z</time>
        <name>WPT.744</name>
      </trkpt>
      <trkpt lat="35.073833000" lon="-106.470217000">
        <ele>2079.000</ele>
        <time>2016-02-21T20:27:43Z</time>
        <name>WPT.745</name>
      </trkpt>
      <trkpt lat="35.073881000" lon="-106.470245000">
        <ele>2077.000</ele>
        <time>2016-02-21T20:27:49Z</time>
        <name>WPT.746</name>
      </trkpt>
      <trkpt lat="35.073925000" lon="-106.470233000">
        <ele>2074.000</ele>
        <time>2016-02-21T20:27:55Z</time>
        <name>WPT.747</name>
      </trkpt>
      <trkpt lat="35.073953000" lon="-106.470189000">
        <ele>2075.000</ele>
        <time>2016-02-21T20:27:59Z</time>
        <name>WPT.748</name>
      </trkpt>
      <trkpt lat="35.073999000" lon="-106.470152000">
        <ele>2076.000</ele>
        <time>2016-02-21T20:28:04Z</time>
        <name>WPT.749</name>
      </trkpt>
      <trkpt lat="35.074047000" lon="-106.470155000">
        <ele>2077.000</ele>
        <time>2016-02-21T20:28:09Z</time>
        <name>WPT.750</name>
      </trkpt>
      <trkpt lat="35.074091000" lon="-106.470130000">
        <ele>2077.000</ele>
        <time>2016-02-21T20:28:15Z</time>
        <name>WPT.751</name>
      </trkpt>
      <trkpt lat="35.074135000" lon="-106.470108000">
        <ele>2073.000</ele>
        <time>2016-02-21T20:28:23Z</time>
        <name>WPT.752</name>
      </trkpt>
      <trkpt lat="35.074181000" lon="-106.470087000">
        <ele>2072.000</ele>
        <time>2016-02-21T20:28:29Z</time>
        <name>WPT.753</name>
      </trkpt>
      <trkpt lat="35.074224000" lon="-106.470112000">
        <ele>2072.000</ele>
        <time>2016-02-21T20:28:34Z</time>
        <name>WPT.754</name>
      </trkpt>
      <trkpt lat="35.074264000" lon="-106.470138000">
        <ele>2072.000</ele>
        <time>2016-02-21T20:28:38Z</time>
        <name>WPT.755</name>
      </trkpt>
      <trkpt lat="35.074309000" lon="-106.470146000">
        <ele>2068.000</ele>
        <time>2016-02-21T20:28:42Z</time>
        <name>WPT.756</name>
      </trkpt>
      <trkpt lat="35.074354000" lon="-106.470159000">
        <ele>2068.000</ele>
        <time>2016-02-21T20:28:45Z</time>
        <name>WPT.757</name>
      </trkpt>
      <trkpt lat="35.074392000" lon="-106.470187000">
        <ele>2069.000</ele>
        <time>2016-02-21T20:28:48Z</time>
        <name>WPT.758</name>
      </trkpt>
      <trkpt lat="35.074441000" lon="-106.470200000">
        <ele>2068.000</ele>
        <time>2016-02-21T20:28:52Z</time>
        <name>WPT.759</name>
      </trkpt>
      <trkpt lat="35.074483000" lon="-106.470163000">
        <ele>2068.000</ele>
        <time>2016-02-21T20:28:57Z</time>
        <name>WPT.760</name>
      </trkpt>
      <trkpt lat="35.074533000" lon="-106.470164000">
        <ele>2069.000</ele>
        <time>2016-02-21T20:29:02Z</time>
        <name>WPT.761</name>
      </trkpt>
      <trkpt lat="35.074589000" lon="-106.470173000">
        <ele>2070.000</ele>
        <time>2016-02-21T20:29:07Z</time>
        <name>WPT.762</name>
      </trkpt>
      <trkpt lat="35.074638000" lon="-106.470175000">
        <ele>2070.000</ele>
        <time>2016-02-21T20:29:13Z</time>
        <name>WPT.763</name>
      </trkpt>
      <trkpt lat="35.074686000" lon="-106.470166000">
        <ele>2070.000</ele>
        <time>2016-02-21T20:29:17Z</time>
        <name>WPT.764</name>
      </trkpt>
      <trkpt lat="35.074731000" lon="-106.470146000">
        <ele>2071.000</ele>
        <time>2016-02-21T20:29:22Z</time>
        <name>WPT.765</name>
      </trkpt>
      <trkpt lat="35.074775000" lon="-106.470123000">
        <ele>2071.000</ele>
        <time>2016-02-21T20:29:26Z</time>
        <name>WPT.766</name>
      </trkpt>
      <trkpt lat="35.074825000" lon="-106.470130000">
        <ele>2072.000</ele>
        <time>2016-02-21T20:29:30Z</time>
        <name>WPT.767</name>
      </trkpt>
      <trkpt lat="35.074869000" lon="-106.470149000">
        <ele>2071.000</ele>
        <time>2016-02-21T20:29:34Z</time>
        <name>WPT.768</name>
      </trkpt>
      <trkpt lat="35.074913000" lon="-106.470178000">
        <ele>2072.000</ele>
        <time>2016-02-21T20:29:38Z</time>
        <name>WPT.769</name>
      </trkpt>
      <trkpt lat="35.074958000" lon="-106.470184000">
        <ele>2072.000</ele>
        <time>2016-02-21T20:29:42Z</time>
        <name>WPT.770</name>
      </trkpt>
      <trkpt lat="35.075012000" lon="-106.470169000">
        <ele>2071.000</ele>
        <time>2016-02-21T20:29:47Z</time>
        <name>WPT.771</name>
      </trkpt>
      <trkpt lat="35.075065000" lon="-106.470161000">
        <ele>2074.000</ele>
        <time>2016-02-21T20:29:52Z</time>
        <name>WPT.772</name>
      </trkpt>
      <trkpt lat="35.075118000" lon="-106.470152000">
        <ele>2075.000</ele>
        <time>2016-02-21T20:29:57Z</time>
        <name>WPT.773</name>
      </trkpt>
      <trkpt lat="35.075161000" lon="-106.470128000">
        <ele>2073.000</ele>
        <time>2016-02-21T20:30:02Z</time>
        <name>WPT.774</name>
      </trkpt>
      <trkpt lat="35.075207000" lon="-106.470124000">
        <ele>2071.000</ele>
        <time>2016-02-21T20:30:06Z</time>
        <name>WPT.775</name>
      </trkpt>
      <trkpt lat="35.075268000" lon="-106.470102000">
        <ele>2072.000</ele>
        <time>2016-02-21T20:30:12Z</time>
        <name>WPT.776</name>
      </trkpt>
      <trkpt lat="35.075314000" lon="-106.470099000">
        <ele>2072.000</ele>
        <time>2016-02-21T20:30:16Z</time>
        <name>WPT.777</name>
      </trkpt>
      <trkpt lat="35.075352000" lon="-106.470145000">
        <ele>2070.000</ele>
        <time>2016-02-21T20:30:20Z</time>
        <name>WPT.778</name>
      </trkpt>
      <trkpt lat="35.075387000" lon="-106.470195000">
        <ele>2070.000</ele>
        <time>2016-02-21T20:30:25Z</time>
        <name>WPT.779</name>
      </trkpt>
      <trkpt lat="35.075419000" lon="-106.470244000">
        <ele>2068.000</ele>
        <time>2016-02-21T20:30:37Z</time>
        <name>WPT.780</name>
      </trkpt>
      <trkpt lat="35.075424000" lon="-106.470300000">
        <ele>2068.000</ele>
        <time>2016-02-21T20:30:41Z</time>
        <name>WPT.781</name>
      </trkpt>
      <trkpt lat="35.075452000" lon="-106.470354000">
        <ele>2070.000</ele>
        <time>2016-02-21T20:30:46Z</time>
        <name>WPT.782</name>
      </trkpt>
      <trkpt lat="35.075480000" lon="-106.470406000">
        <ele>2070.000</ele>
        <time>2016-02-21T20:30:51Z</time>
        <name>WPT.783</name>
      </trkpt>
      <trkpt lat="35.075514000" lon="-106.470456000">
        <ele>2070.000</ele>
        <time>2016-02-21T20:30:56Z</time>
        <name>WPT.784</name>
      </trkpt>
      <trkpt lat="35.075546000" lon="-106.470495000">
        <ele>2070.000</ele>
        <time>2016-02-21T20:31:00Z</time>
        <name>WPT.785</name>
      </trkpt>
      <trkpt lat="35.075582000" lon="-106.470532000">
        <ele>2067.000</ele>
        <time>2016-02-21T20:31:05Z</time>
        <name>WPT.786</name>
      </trkpt>
      <trkpt lat="35.075620000" lon="-106.470563000">
        <ele>2066.000</ele>
        <time>2016-02-21T20:31:09Z</time>
        <name>WPT.787</name>
      </trkpt>
      <trkpt lat="35.075664000" lon="-106.470582000">
        <ele>2065.000</ele>
        <time>2016-02-21T20:31:13Z</time>
        <name>WPT.788</name>
      </trkpt>
      <trkpt lat="35.075718000" lon="-106.470605000">
        <ele>2064.000</ele>
        <time>2016-02-21T20:31:18Z</time>
        <name>WPT.789</name>
      </trkpt>
      <trkpt lat="35.075773000" lon="-106.470611000">
        <ele>2065.000</ele>
        <time>2016-02-21T20:31:23Z</time>
        <name>WPT.790</name>
      </trkpt>
      <trkpt lat="35.075823000" lon="-106.470640000">
        <ele>2066.000</ele>
        <time>2016-02-21T20:31:29Z</time>
        <name>WPT.791</name>
      </trkpt>
      <trkpt lat="35.075866000" lon="-106.470668000">
        <ele>2066.000</ele>
        <time>2016-02-21T20:31:33Z</time>
        <name>WPT.792</name>
      </trkpt>
      <trkpt lat="35.075903000" lon="-106.470718000">
        <ele>2064.000</ele>
        <time>2016-02-21T20:31:38Z</time>
        <name>WPT.793</name>
      </trkpt>
      <trkpt lat="35.075917000" lon="-106.470770000">
        <ele>2065.000</ele>
        <time>2016-02-21T20:31:42Z</time>
        <name>WPT.794</name>
      </trkpt>
      <trkpt lat="35.075947000" lon="-106.470815000">
        <ele>2067.000</ele>
        <time>2016-02-21T20:31:46Z</time>
        <name>WPT.795</name>
      </trkpt>
      <trkpt lat="35.075975000" lon="-106.470876000">
        <ele>2066.000</ele>
        <time>2016-02-21T20:31:52Z</time>
        <name>WPT.796</name>
      </trkpt>
      <trkpt lat="35.076011000" lon="-106.470922000">
        <ele>2069.000</ele>
        <time>2016-02-21T20:31:57Z</time>
        <name>WPT.797</name>
      </trkpt>
      <trkpt lat="35.076049000" lon="-106.470968000">
        <ele>2069.000</ele>
        <time>2016-02-21T20:32:03Z</time>
        <name>WPT.798</name>
      </trkpt>
      <trkpt lat="35.076095000" lon="-106.471004000">
        <ele>2071.000</ele>
        <time>2016-02-21T20:32:42Z</time>
        <name>WPT.799</name>
      </trkpt>
      <trkpt lat="35.076140000" lon="-106.471024000">
        <ele>2068.000</ele>
        <time>2016-02-21T20:32:47Z</time>
        <name>WPT.800</name>
      </trkpt>
      <trkpt lat="35.076177000" lon="-106.471061000">
        <ele>2064.000</ele>
        <time>2016-02-21T20:32:52Z</time>
        <name>WPT.801</name>
      </trkpt>
      <trkpt lat="35.076212000" lon="-106.471111000">
        <ele>2064.000</ele>
        <time>2016-02-21T20:32:57Z</time>
        <name>WPT.802</name>
      </trkpt>
      <trkpt lat="35.076258000" lon="-106.471141000">
        <ele>2063.000</ele>
        <time>2016-02-21T20:33:01Z</time>
        <name>WPT.803</name>
      </trkpt>
      <trkpt lat="35.076274000" lon="-106.471197000">
        <ele>2062.000</ele>
        <time>2016-02-21T20:33:06Z</time>
        <name>WPT.804</name>
      </trkpt>
      <trkpt lat="35.076294000" lon="-106.471251000">
        <ele>2062.000</ele>
        <time>2016-02-21T20:33:10Z</time>
        <name>WPT.805</name>
      </trkpt>
      <trkpt lat="35.076330000" lon="-106.471303000">
        <ele>2065.000</ele>
        <time>2016-02-21T20:33:16Z</time>
        <name>WPT.806</name>
      </trkpt>
      <trkpt lat="35.076358000" lon="-106.471357000">
        <ele>2066.000</ele>
        <time>2016-02-21T20:33:21Z</time>
        <name>WPT.807</name>
      </trkpt>
      <trkpt lat="35.076369000" lon="-106.471411000">
        <ele>2066.000</ele>
        <time>2016-02-21T20:33:26Z</time>
        <name>WPT.808</name>
      </trkpt>
      <trkpt lat="35.076404000" lon="-106.471461000">
        <ele>2066.000</ele>
        <time>2016-02-21T20:33:30Z</time>
        <name>WPT.809</name>
      </trkpt>
      <trkpt lat="35.076428000" lon="-106.471508000">
        <ele>2067.000</ele>
        <time>2016-02-21T20:33:34Z</time>
        <name>WPT.810</name>
      </trkpt>
      <trkpt lat="35.076447000" lon="-106.471565000">
        <ele>2067.000</ele>
        <time>2016-02-21T20:33:39Z</time>
        <name>WPT.811</name>
      </trkpt>
      <trkpt lat="35.076430000" lon="-106.471618000">
        <ele>2068.000</ele>
        <time>2016-02-21T20:33:43Z</time>
        <name>WPT.812</name>
      </trkpt>
      <trkpt lat="35.076398000" lon="-106.471661000">
        <ele>2067.000</ele>
        <time>2016-02-21T20:33:47Z</time>
        <name>WPT.813</name>
      </trkpt>
      <trkpt lat="35.076431000" lon="-106.471701000">
        <ele>2066.000</ele>
        <time>2016-02-21T20:33:52Z</time>
        <name>WPT.814</name>
      </trkpt>
      <trkpt lat="35.076449000" lon="-106.471763000">
        <ele>2066.000</ele>
        <time>2016-02-21T20:33:57Z</time>
        <name>WPT.815</name>
      </trkpt>
      <trkpt lat="35.076480000" lon="-106.471811000">
        <ele>2066.000</ele>
        <time>2016-02-21T20:34:01Z</time>
        <name>WPT.816</name>
      </trkpt>
      <trkpt lat="35.076511000" lon="-106.471883000">
        <ele>2068.000</ele>
        <time>2016-02-21T20:34:06Z</time>
        <name>WPT.817</name>
      </trkpt>
      <trkpt lat="35.076524000" lon="-106.471936000">
        <ele>2069.000</ele>
        <time>2016-02-21T20:34:11Z</time>
        <name>WPT.818</name>
      </trkpt>
      <trkpt lat="35.076535000" lon="-106.471992000">
        <ele>2070.000</ele>
        <time>2016-02-21T20:34:15Z</time>
        <name>WPT.819</name>
      </trkpt>
      <trkpt lat="35.076563000" lon="-106.472049000">
        <ele>2070.000</ele>
        <time>2016-02-21T20:34:20Z</time>
        <name>WPT.820</name>
      </trkpt>
      <trkpt lat="35.076532000" lon="-106.472091000">
        <ele>2067.000</ele>
        <time>2016-02-21T20:34:24Z</time>
        <name>WPT.821</name>
      </trkpt>
      <trkpt lat="35.076499000" lon="-106.472129000">
        <ele>2065.000</ele>
        <time>2016-02-21T20:34:43Z</time>
        <name>WPT.822</name>
      </trkpt>
      <trkpt lat="35.076471000" lon="-106.472181000">
        <ele>2065.000</ele>
        <time>2016-02-21T20:34:49Z</time>
        <name>WPT.823</name>
      </trkpt>
      <trkpt lat="35.076448000" lon="-106.472229000">
        <ele>2064.000</ele>
        <time>2016-02-21T20:34:55Z</time>
        <name>WPT.824</name>
      </trkpt>
      <trkpt lat="35.076395000" lon="-106.472247000">
        <ele>2062.000</ele>
        <time>2016-02-21T20:34:59Z</time>
        <name>WPT.825</name>
      </trkpt>
      <trkpt lat="35.076339000" lon="-106.472254000">
        <ele>2061.000</ele>
        <time>2016-02-21T20:35:05Z</time>
        <name>WPT.826</name>
      </trkpt>
      <trkpt lat="35.076291000" lon="-106.472253000">
        <ele>2060.000</ele>
        <time>2016-02-21T20:35:09Z</time>
        <name>WPT.827</name>
      </trkpt>
      <trkpt lat="35.076246000" lon="-106.472267000">
        <ele>2058.000</ele>
        <time>2016-02-21T20:35:14Z</time>
        <name>WPT.828</name>
      </trkpt>
      <trkpt lat="35.076197000" lon="-106.472278000">
        <ele>2058.000</ele>
        <time>2016-02-21T20:35:19Z</time>
        <name>WPT.829</name>
      </trkpt>
      <trkpt lat="35.076159000" lon="-106.472321000">
        <ele>2058.000</ele>
        <time>2016-02-21T20:35:24Z</time>
        <name>WPT.830</name>
      </trkpt>
      <trkpt lat="35.076118000" lon="-106.472352000">
        <ele>2057.000</ele>
        <time>2016-02-21T20:35:28Z</time>
        <name>WPT.831</name>
      </trkpt>
      <trkpt lat="35.076076000" lon="-106.472396000">
        <ele>2058.000</ele>
        <time>2016-02-21T20:35:34Z</time>
        <name>WPT.832</name>
      </trkpt>
      <trkpt lat="35.076051000" lon="-106.472443000">
        <ele>2057.000</ele>
        <time>2016-02-21T20:35:39Z</time>
        <name>WPT.833</name>
      </trkpt>
      <trkpt lat="35.076019000" lon="-106.472495000">
        <ele>2058.000</ele>
        <time>2016-02-21T20:35:46Z</time>
        <name>WPT.834</name>
      </trkpt>
      <trkpt lat="35.075975000" lon="-106.472514000">
        <ele>2055.000</ele>
        <time>2016-02-21T20:35:50Z</time>
        <name>WPT.835</name>
      </trkpt>
      <trkpt lat="35.075933000" lon="-106.472545000">
        <ele>2053.000</ele>
        <time>2016-02-21T20:35:53Z</time>
        <name>WPT.836</name>
      </trkpt>
      <trkpt lat="35.075885000" lon="-106.472567000">
        <ele>2053.000</ele>
        <time>2016-02-21T20:35:58Z</time>
        <name>WPT.837</name>
      </trkpt>
      <trkpt lat="35.075840000" lon="-106.472584000">
        <ele>2053.000</ele>
        <time>2016-02-21T20:36:04Z</time>
        <name>WPT.838</name>
      </trkpt>
      <trkpt lat="35.075818000" lon="-106.472634000">
        <ele>2052.000</ele>
        <time>2016-02-21T20:36:10Z</time>
        <name>WPT.839</name>
      </trkpt>
      <trkpt lat="35.075794000" lon="-106.472683000">
        <ele>2051.000</ele>
        <time>2016-02-21T20:36:14Z</time>
        <name>WPT.840</name>
      </trkpt>
      <trkpt lat="35.075786000" lon="-106.472737000">
        <ele>2050.000</ele>
        <time>2016-02-21T20:36:19Z</time>
        <name>WPT.841</name>
      </trkpt>
      <trkpt lat="35.075788000" lon="-106.472793000">
        <ele>2051.000</ele>
        <time>2016-02-21T20:36:23Z</time>
        <name>WPT.842</name>
      </trkpt>
      <trkpt lat="35.075763000" lon="-106.472843000">
        <ele>2050.000</ele>
        <time>2016-02-21T20:36:29Z</time>
        <name>WPT.843</name>
      </trkpt>
      <trkpt lat="35.075744000" lon="-106.472897000">
        <ele>2051.000</ele>
        <time>2016-02-21T20:36:47Z</time>
        <name>WPT.844</name>
      </trkpt>
      <trkpt lat="35.075772000" lon="-106.472941000">
        <ele>2049.000</ele>
        <time>2016-02-21T20:37:12Z</time>
        <name>WPT.845</name>
      </trkpt>
      <trkpt lat="35.075809000" lon="-106.472987000">
        <ele>2050.000</ele>
        <time>2016-02-21T20:37:18Z</time>
        <name>WPT.846</name>
      </trkpt>
      <trkpt lat="35.075856000" lon="-106.473001000">
        <ele>2048.000</ele>
        <time>2016-02-21T20:37:25Z</time>
        <name>WPT.847</name>
      </trkpt>
      <trkpt lat="35.075895000" lon="-106.473048000">
        <ele>2048.000</ele>
        <time>2016-02-21T20:37:30Z</time>
        <name>WPT.848</name>
      </trkpt>
      <trkpt lat="35.075939000" lon="-106.473066000">
        <ele>2047.000</ele>
        <time>2016-02-21T20:37:35Z</time>
        <name>WPT.849</name>
      </trkpt>
      <trkpt lat="35.075973000" lon="-106.473116000">
        <ele>2047.000</ele>
        <time>2016-02-21T20:37:44Z</time>
        <name>WPT.850</name>
      </trkpt>
      <trkpt lat="35.076004000" lon="-106.473158000">
        <ele>2046.000</ele>
        <time>2016-02-21T20:37:49Z</time>
        <name>WPT.851</name>
      </trkpt>
      <trkpt lat="35.076049000" lon="-106.473185000">
        <ele>2046.000</ele>
        <time>2016-02-21T20:37:55Z</time>
        <name>WPT.852</name>
      </trkpt>
      <trkpt lat="35.076086000" lon="-106.473221000">
        <ele>2045.000</ele>
        <time>2016-02-21T20:38:04Z</time>
        <name>WPT.853</name>
      </trkpt>
      <trkpt lat="35.076141000" lon="-106.473245000">
        <ele>2044.000</ele>
        <time>2016-02-21T20:38:08Z</time>
        <name>WPT.854</name>
      </trkpt>
      <trkpt lat="35.076182000" lon="-106.473285000">
        <ele>2043.000</ele>
        <time>2016-02-21T20:38:13Z</time>
        <name>WPT.855</name>
      </trkpt>
      <trkpt lat="35.076226000" lon="-106.473309000">
        <ele>2042.000</ele>
        <time>2016-02-21T20:38:18Z</time>
        <name>WPT.856</name>
      </trkpt>
      <trkpt lat="35.076252000" lon="-106.473357000">
        <ele>2043.000</ele>
        <time>2016-02-21T20:38:25Z</time>
        <name>WPT.857</name>
      </trkpt>
      <trkpt lat="35.076276000" lon="-106.473417000">
        <ele>2043.000</ele>
        <time>2016-02-21T20:38:31Z</time>
        <name>WPT.858</name>
      </trkpt>
      <trkpt lat="35.076312000" lon="-106.473459000">
        <ele>2043.000</ele>
        <time>2016-02-21T20:38:36Z</time>
        <name>WPT.859</name>
      </trkpt>
      <trkpt lat="35.076325000" lon="-106.473519000">
        <ele>2044.000</ele>
        <time>2016-02-21T20:38:40Z</time>
        <name>WPT.860</name>
      </trkpt>
      <trkpt lat="35.076327000" lon="-106.473578000">
        <ele>2040.000</ele>
        <time>2016-02-21T20:38:46Z</time>
        <name>WPT.861</name>
      </trkpt>
      <trkpt lat="35.076326000" lon="-106.473643000">
        <ele>2036.000</ele>
        <time>2016-02-21T20:38:54Z</time>
        <name>WPT.862</name>
      </trkpt>
      <trkpt lat="35.076326000" lon="-106.473708000">
        <ele>2033.000</ele>
        <time>2016-02-21T20:39:01Z</time>
        <name>WPT.863</name>
      </trkpt>
      <trkpt lat="35.076324000" lon="-106.473766000">
        <ele>2033.000</ele>
        <time>2016-02-21T20:39:06Z</time>
        <name>WPT.864</name>
      </trkpt>
      <trkpt lat="35.076320000" lon="-106.473831000">
        <ele>2034.000</ele>
        <time>2016-02-21T20:39:12Z</time>
        <name>WPT.865</name>
      </trkpt>
      <trkpt lat="35.076308000" lon="-106.473895000">
        <ele>2033.000</ele>
        <time>2016-02-21T20:39:18Z</time>
        <name>WPT.866</name>
      </trkpt>
      <trkpt lat="35.076285000" lon="-106.473944000">
        <ele>2032.000</ele>
        <time>2016-02-21T20:39:23Z</time>
        <name>WPT.867</name>
      </trkpt>
      <trkpt lat="35.076294000" lon="-106.474003000">
        <ele>2032.000</ele>
        <time>2016-02-21T20:39:29Z</time>
        <name>WPT.868</name>
      </trkpt>
      <trkpt lat="35.076312000" lon="-106.474056000">
        <ele>2030.000</ele>
        <time>2016-02-21T20:39:39Z</time>
        <name>WPT.869</name>
      </trkpt>
      <trkpt lat="35.076336000" lon="-106.474103000">
        <ele>2030.000</ele>
        <time>2016-02-21T20:39:51Z</time>
        <name>WPT.870</name>
      </trkpt>
      <trkpt lat="35.076330000" lon="-106.474164000">
        <ele>2030.000</ele>
        <time>2016-02-21T20:40:13Z</time>
        <name>WPT.871</name>
      </trkpt>
      <trkpt lat="35.076337000" lon="-106.474222000">
        <ele>2029.000</ele>
        <time>2016-02-21T20:40:29Z</time>
        <name>WPT.872</name>
      </trkpt>
      <trkpt lat="35.076344000" lon="-106.474281000">
        <ele>2028.000</ele>
        <time>2016-02-21T20:40:40Z</time>
        <name>WPT.873</name>
      </trkpt>
      <trkpt lat="35.076382000" lon="-106.474312000">
        <ele>2026.000</ele>
        <time>2016-02-21T20:40:59Z</time>
        <name>WPT.874</name>
      </trkpt>
      <trkpt lat="35.076399000" lon="-106.474368000">
        <ele>2027.000</ele>
        <time>2016-02-21T20:41:16Z</time>
        <name>WPT.875</name>
      </trkpt>
      <trkpt lat="35.076401000" lon="-106.474427000">
        <ele>2025.000</ele>
        <time>2016-02-21T20:41:24Z</time>
        <name>WPT.876</name>
      </trkpt>
      <trkpt lat="35.076405000" lon="-106.474488000">
        <ele>2022.000</ele>
        <time>2016-02-21T20:41:37Z</time>
        <name>WPT.877</name>
      </trkpt>
      <trkpt lat="35.076406000" lon="-106.474548000">
        <ele>2023.000</ele>
        <time>2016-02-21T20:41:42Z</time>
        <name>WPT.878</name>
      </trkpt>
      <trkpt lat="35.076435000" lon="-106.474605000">
        <ele>2017.000</ele>
        <time>2016-02-21T20:41:52Z</time>
        <name>WPT.879</name>
      </trkpt>
      <trkpt lat="35.076458000" lon="-106.474657000">
        <ele>2016.000</ele>
        <time>2016-02-21T20:42:01Z</time>
        <name>WPT.880</name>
      </trkpt>
      <trkpt lat="35.076502000" lon="-106.474682000">
        <ele>2017.000</ele>
        <time>2016-02-21T20:42:07Z</time>
        <name>WPT.881</name>
      </trkpt>
      <trkpt lat="35.076549000" lon="-106.474708000">
        <ele>2016.000</ele>
        <time>2016-02-21T20:42:13Z</time>
        <name>WPT.882</name>
      </trkpt>
      <trkpt lat="35.076591000" lon="-106.474745000">
        <ele>2016.000</ele>
        <time>2016-02-21T20:42:20Z</time>
        <name>WPT.883</name>
      </trkpt>
      <trkpt lat="35.076638000" lon="-106.474775000">
        <ele>2015.000</ele>
        <time>2016-02-21T20:42:27Z</time>
        <name>WPT.884</name>
      </trkpt>
      <trkpt lat="35.076679000" lon="-106.474798000">
        <ele>2013.000</ele>
        <time>2016-02-21T20:42:39Z</time>
        <name>WPT.885</name>
      </trkpt>
      <trkpt lat="35.076707000" lon="-106.474843000">
        <ele>2012.000</ele>
        <time>2016-02-21T20:42:54Z</time>
        <name>WPT.886</name>
      </trkpt>
      <trkpt lat="35.076726000" lon="-106.474896000">
        <ele>2013.000</ele>
        <time>2016-02-21T20:43:47Z</time>
        <name>WPT.887</name>
      </trkpt>
      <trkpt lat="35.076752000" lon="-106.474946000">
        <ele>2009.000</ele>
        <time>2016-02-21T20:43:55Z</time>
        <name>WPT.888</name>
      </trkpt>
      <trkpt lat="35.076798000" lon="-106.474973000">
        <ele>2010.000</ele>
        <time>2016-02-21T20:44:00Z</time>
        <name>WPT.889</name>
      </trkpt>
      <trkpt lat="35.076820000" lon="-106.475022000">
        <ele>2006.000</ele>
        <time>2016-02-21T20:44:07Z</time>
        <name>WPT.890</name>
      </trkpt>
      <trkpt lat="35.076845000" lon="-106.475072000">
        <ele>2002.000</ele>
        <time>2016-02-21T20:44:15Z</time>
        <name>WPT.891</name>
      </trkpt>
      <trkpt lat="35.076877000" lon="-106.475112000">
        <ele>2001.000</ele>
        <time>2016-02-21T20:44:20Z</time>
        <name>WPT.892</name>
      </trkpt>
      <trkpt lat="35.076914000" lon="-106.475155000">
        <ele>1997.000</ele>
        <time>2016-02-21T20:44:26Z</time>
        <name>WPT.893</name>
      </trkpt>
      <trkpt lat="35.076965000" lon="-106.475191000">
        <ele>1996.000</ele>
        <time>2016-02-21T20:44:32Z</time>
        <name>WPT.894</name>
      </trkpt>
      <trkpt lat="35.076986000" lon="-106.475240000">
        <ele>1994.000</ele>
        <time>2016-02-21T20:44:36Z</time>
        <name>WPT.895</name>
      </trkpt>
      <trkpt lat="35.077008000" lon="-106.475294000">
        <ele>1994.000</ele>
        <time>2016-02-21T20:44:40Z</time>
        <name>WPT.896</name>
      </trkpt>
      <trkpt lat="35.077043000" lon="-106.475337000">
        <ele>1991.000</ele>
        <time>2016-02-21T20:44:46Z</time>
        <name>WPT.897</name>
      </trkpt>
      <trkpt lat="35.077065000" lon="-106.475396000">
        <ele>1993.000</ele>
        <time>2016-02-21T20:45:01Z</time>
        <name>WPT.898</name>
      </trkpt>
      <trkpt lat="35.077103000" lon="-106.475430000">
        <ele>1993.000</ele>
        <time>2016-02-21T20:45:08Z</time>
        <name>WPT.899</name>
      </trkpt>
      <trkpt lat="35.077121000" lon="-106.475485000">
        <ele>1991.000</ele>
        <time>2016-02-21T20:45:14Z</time>
        <name>WPT.900</name>
      </trkpt>
      <trkpt lat="35.077149000" lon="-106.475540000">
        <ele>1991.000</ele>
        <time>2016-02-21T20:45:25Z</time>
        <name>WPT.901</name>
      </trkpt>
      <trkpt lat="35.077151000" lon="-106.475595000">
        <ele>1988.000</ele>
        <time>2016-02-21T20:45:30Z</time>
        <name>WPT.902</name>
      </trkpt>
      <trkpt lat="35.077156000" lon="-106.475653000">
        <ele>1985.000</ele>
        <time>2016-02-21T20:45:34Z</time>
        <name>WPT.903</name>
      </trkpt>
      <trkpt lat="35.077167000" lon="-106.475709000">
        <ele>1983.000</ele>
        <time>2016-02-21T20:45:39Z</time>
        <name>WPT.904</name>
      </trkpt>
      <trkpt lat="35.077176000" lon="-106.475770000">
        <ele>1982.000</ele>
        <time>2016-02-21T20:45:51Z</time>
        <name>WPT.905</name>
      </trkpt>
      <trkpt lat="35.077191000" lon="-106.475822000">
        <ele>1978.000</ele>
        <time>2016-02-21T20:45:58Z</time>
        <name>WPT.906</name>
      </trkpt>
      <trkpt lat="35.077240000" lon="-106.475860000">
        <ele>1979.000</ele>
        <time>2016-02-21T20:46:03Z</time>
        <name>WPT.907</name>
      </trkpt>
      <trkpt lat="35.077285000" lon="-106.475874000">
        <ele>1978.000</ele>
        <time>2016-02-21T20:46:12Z</time>
        <name>WPT.908</name>
      </trkpt>
      <trkpt lat="35.077333000" lon="-106.475884000">
        <ele>1978.000</ele>
        <time>2016-02-21T20:46:31Z</time>
        <name>WPT.909</name>
      </trkpt>
      <trkpt lat="35.077371000" lon="-106.475921000">
        <ele>1973.000</ele>
        <time>2016-02-21T20:46:49Z</time>
        <name>WPT.910</name>
      </trkpt>
      <trkpt lat="35.077423000" lon="-106.475906000">
        <ele>1971.000</ele>
        <time>2016-02-21T20:46:58Z</time>
        <name>WPT.911</name>
      </trkpt>
      <trkpt lat="35.077449000" lon="-106.475853000">
        <ele>1970.000</ele>
        <time>2016-02-21T20:47:02Z</time>
        <name>WPT.912</name>
      </trkpt>
      <trkpt lat="35.077492000" lon="-106.475877000">
        <ele>1967.000</ele>
        <time>2016-02-21T20:47:07Z</time>
        <name>WPT.913</name>
      </trkpt>
      <trkpt lat="35.077514000" lon="-106.475937000">
        <ele>1965.000</ele>
        <time>2016-02-21T20:47:11Z</time>
        <name>WPT.914</name>
      </trkpt>
      <trkpt lat="35.077558000" lon="-106.475970000">
        <ele>1962.000</ele>
        <time>2016-02-21T20:47:20Z</time>
        <name>WPT.915</name>
      </trkpt>
      <trkpt lat="35.077605000" lon="-106.475999000">
        <ele>1959.000</ele>
        <time>2016-02-21T20:47:36Z</time>
        <name>WPT.916</name>
      </trkpt>
      <trkpt lat="35.077629000" lon="-106.476054000">
        <ele>1957.000</ele>
        <time>2016-02-21T20:47:41Z</time>
        <name>WPT.917</name>
      </trkpt>
      <trkpt lat="35.077675000" lon="-106.476082000">
        <ele>1956.000</ele>
        <time>2016-02-21T20:47:48Z</time>
        <name>WPT.918</name>
      </trkpt>
      <trkpt lat="35.077726000" lon="-106.476102000">
        <ele>1954.000</ele>
        <time>2016-02-21T20:47:55Z</time>
        <name>WPT.919</name>
      </trkpt>
      <trkpt lat="35.077755000" lon="-106.476151000">
        <ele>1953.000</ele>
        <time>2016-02-21T20:48:01Z</time>
        <name>WPT.920</name>
      </trkpt>
      <trkpt lat="35.077776000" lon="-106.476204000">
        <ele>1953.000</ele>
        <time>2016-02-21T20:48:05Z</time>
        <name>WPT.921</name>
      </trkpt>
      <trkpt lat="35.077800000" lon="-106.476254000">
        <ele>1951.000</ele>
        <time>2016-02-21T20:48:15Z</time>
        <name>WPT.922</name>
      </trkpt>
      <trkpt lat="35.077848000" lon="-106.476260000">
        <ele>1950.000</ele>
        <time>2016-02-21T20:48:21Z</time>
        <name>WPT.923</name>
      </trkpt>
      <trkpt lat="35.077896000" lon="-106.476268000">
        <ele>1950.000</ele>
        <time>2016-02-21T20:48:27Z</time>
        <name>WPT.924</name>
      </trkpt>
      <trkpt lat="35.077943000" lon="-106.476254000">
        <ele>1949.000</ele>
        <time>2016-02-21T20:48:33Z</time>
        <name>WPT.925</name>
      </trkpt>
      <trkpt lat="35.077987000" lon="-106.476232000">
        <ele>1948.000</ele>
        <time>2016-02-21T20:48:41Z</time>
        <name>WPT.926</name>
      </trkpt>
      <trkpt lat="35.078031000" lon="-106.476256000">
        <ele>1948.000</ele>
        <time>2016-02-21T20:48:47Z</time>
        <name>WPT.927</name>
      </trkpt>
      <trkpt lat="35.078066000" lon="-106.476300000">
        <ele>1946.000</ele>
        <time>2016-02-21T20:48:51Z</time>
        <name>WPT.928</name>
      </trkpt>
      <trkpt lat="35.078118000" lon="-106.476317000">
        <ele>1945.000</ele>
        <time>2016-02-21T20:48:58Z</time>
        <name>WPT.929</name>
      </trkpt>
      <trkpt lat="35.078162000" lon="-106.476347000">
        <ele>1945.000</ele>
        <time>2016-02-21T20:49:04Z</time>
        <name>WPT.930</name>
      </trkpt>
      <trkpt lat="35.078208000" lon="-106.476375000">
        <ele>1943.000</ele>
        <time>2016-02-21T20:49:11Z</time>
        <name>WPT.931</name>
      </trkpt>
      <trkpt lat="35.078249000" lon="-106.476401000">
        <ele>1942.000</ele>
        <time>2016-02-21T20:49:21Z</time>
        <name>WPT.932</name>
      </trkpt>
      <trkpt lat="35.078295000" lon="-106.476410000">
        <ele>1940.000</ele>
        <time>2016-02-21T20:49:29Z</time>
        <name>WPT.933</name>
      </trkpt>
      <trkpt lat="35.078310000" lon="-106.476474000">
        <ele>1939.000</ele>
        <time>2016-02-21T20:49:40Z</time>
        <name>WPT.934</name>
      </trkpt>
      <trkpt lat="35.078327000" lon="-106.476533000">
        <ele>1938.000</ele>
        <time>2016-02-21T20:49:46Z</time>
        <name>WPT.935</name>
      </trkpt>
      <trkpt lat="35.078338000" lon="-106.476587000">
        <ele>1937.000</ele>
        <time>2016-02-21T20:49:51Z</time>
        <name>WPT.936</name>
      </trkpt>
      <trkpt lat="35.078372000" lon="-106.476630000">
        <ele>1931.000</ele>
        <time>2016-02-21T20:50:14Z</time>
        <name>WPT.937</name>
      </trkpt>
      <trkpt lat="35.078381000" lon="-106.476688000">
        <ele>1929.000</ele>
        <time>2016-02-21T20:50:19Z</time>
        <name>WPT.938</name>
      </trkpt>
      <trkpt lat="35.078410000" lon="-106.476742000">
        <ele>1928.000</ele>
        <time>2016-02-21T20:50:23Z</time>
        <name>WPT.939</name>
      </trkpt>
      <trkpt lat="35.078442000" lon="-106.476796000">
        <ele>1925.000</ele>
        <time>2016-02-21T20:50:32Z</time>
        <name>WPT.940</name>
      </trkpt>
      <trkpt lat="35.078480000" lon="-106.476831000">
        <ele>1925.000</ele>
        <time>2016-02-21T20:50:37Z</time>
        <name>WPT.941</name>
      </trkpt>
      <trkpt lat="35.078523000" lon="-106.476868000">
        <ele>1926.000</ele>
        <time>2016-02-21T20:50:43Z</time>
        <name>WPT.942</name>
      </trkpt>
      <trkpt lat="35.078573000" lon="-106.476891000">
        <ele>1924.000</ele>
        <time>2016-02-21T20:50:50Z</time>
        <name>WPT.943</name>
      </trkpt>
      <trkpt lat="35.078582000" lon="-106.476946000">
        <ele>1920.000</ele>
        <time>2016-02-21T20:50:56Z</time>
        <name>WPT.944</name>
      </trkpt>
      <trkpt lat="35.078615000" lon="-106.476996000">
        <ele>1920.000</ele>
        <time>2016-02-21T20:51:03Z</time>
        <name>WPT.945</name>
      </trkpt>
      <trkpt lat="35.078621000" lon="-106.477054000">
        <ele>1919.000</ele>
        <time>2016-02-21T20:51:07Z</time>
        <name>WPT.946</name>
      </trkpt>
      <trkpt lat="35.078623000" lon="-106.477111000">
        <ele>1918.000</ele>
        <time>2016-02-21T20:51:13Z</time>
        <name>WPT.947</name>
      </trkpt>
      <trkpt lat="35.078665000" lon="-106.477151000">
        <ele>1918.000</ele>
        <time>2016-02-21T20:51:21Z</time>
        <name>WPT.948</name>
      </trkpt>
      <trkpt lat="35.078693000" lon="-106.477194000">
        <ele>1917.000</ele>
        <time>2016-02-21T20:51:27Z</time>
        <name>WPT.949</name>
      </trkpt>
      <trkpt lat="35.078688000" lon="-106.477255000">
        <ele>1915.000</ele>
        <time>2016-02-21T20:51:33Z</time>
        <name>WPT.950</name>
      </trkpt>
      <trkpt lat="35.078717000" lon="-106.477301000">
        <ele>1913.000</ele>
        <time>2016-02-21T20:51:39Z</time>
        <name>WPT.951</name>
      </trkpt>
      <trkpt lat="35.078743000" lon="-106.477358000">
        <ele>1913.000</ele>
        <time>2016-02-21T20:51:44Z</time>
        <name>WPT.952</name>
      </trkpt>
      <trkpt lat="35.078773000" lon="-106.477405000">
        <ele>1911.000</ele>
        <time>2016-02-21T20:51:51Z</time>
        <name>WPT.953</name>
      </trkpt>
      <trkpt lat="35.078766000" lon="-106.477466000">
        <ele>1910.000</ele>
        <time>2016-02-21T20:51:57Z</time>
        <name>WPT.954</name>
      </trkpt>
      <trkpt lat="35.078798000" lon="-106.477515000">
        <ele>1911.000</ele>
        <time>2016-02-21T20:52:03Z</time>
        <name>WPT.955</name>
      </trkpt>
      <trkpt lat="35.078811000" lon="-106.477569000">
        <ele>1912.000</ele>
        <time>2016-02-21T20:52:07Z</time>
        <name>WPT.956</name>
      </trkpt>
      <trkpt lat="35.078793000" lon="-106.477624000">
        <ele>1910.000</ele>
        <time>2016-02-21T20:52:14Z</time>
        <name>WPT.957</name>
      </trkpt>
      <trkpt lat="35.078850000" lon="-106.477633000">
        <ele>1914.000</ele>
        <time>2016-02-21T20:52:28Z</time>
        <name>WPT.958</name>
      </trkpt>
      <trkpt lat="35.078873000" lon="-106.477686000">
        <ele>1912.000</ele>
        <time>2016-02-21T20:52:35Z</time>
        <name>WPT.959</name>
      </trkpt>
      <trkpt lat="35.078871000" lon="-106.477741000">
        <ele>1908.000</ele>
        <time>2016-02-21T20:53:46Z</time>
        <name>WPT.960</name>
      </trkpt>
      <trkpt lat="35.078917000" lon="-106.477743000">
        <ele>1911.000</ele>
        <time>2016-02-21T20:54:43Z</time>
        <name>WPT.961</name>
      </trkpt>
      <trkpt lat="35.078972000" lon="-106.477746000">
        <ele>1909.000</ele>
        <time>2016-02-21T20:54:54Z</time>
        <name>WPT.962</name>
      </trkpt>
      <trkpt lat="35.079010000" lon="-106.477784000">
        <ele>1909.000</ele>
        <time>2016-02-21T20:55:00Z</time>
        <name>WPT.963</name>
      </trkpt>
      <trkpt lat="35.079061000" lon="-106.477809000">
        <ele>1908.000</ele>
        <time>2016-02-21T20:55:10Z</time>
        <name>WPT.964</name>
      </trkpt>
      <trkpt lat="35.079090000" lon="-106.477861000">
        <ele>1907.000</ele>
        <time>2016-02-21T20:55:19Z</time>
        <name>WPT.965</name>
      </trkpt>
      <trkpt lat="35.079133000" lon="-106.477901000">
        <ele>1903.000</ele>
        <time>2016-02-21T20:55:26Z</time>
        <name>WPT.966</name>
      </trkpt>
      <trkpt lat="35.079176000" lon="-106.477925000">
        <ele>1902.000</ele>
        <time>2016-02-21T20:55:31Z</time>
        <name>WPT.967</name>
      </trkpt>
      <trkpt lat="35.079221000" lon="-106.477921000">
        <ele>1899.000</ele>
        <time>2016-02-21T20:55:40Z</time>
        <name>WPT.968</name>
      </trkpt>
      <trkpt lat="35.079267000" lon="-106.477911000">
        <ele>1897.000</ele>
        <time>2016-02-21T20:55:47Z</time>
        <name>WPT.969</name>
      </trkpt>
      <trkpt lat="35.079317000" lon="-106.477910000">
        <ele>1897.000</ele>
        <time>2016-02-21T20:55:55Z</time>
        <name>WPT.970</name>
      </trkpt>
      <trkpt lat="35.079346000" lon="-106.477952000">
        <ele>1895.000</ele>
        <time>2016-02-21T20:56:00Z</time>
        <name>WPT.971</name>
      </trkpt>
      <trkpt lat="35.079391000" lon="-106.477981000">
        <ele>1897.000</ele>
        <time>2016-02-21T20:56:06Z</time>
        <name>WPT.972</name>
      </trkpt>
      <trkpt lat="35.079418000" lon="-106.478030000">
        <ele>1893.000</ele>
        <time>2016-02-21T20:56:13Z</time>
        <name>WPT.973</name>
      </trkpt>
      <trkpt lat="35.079453000" lon="-106.478067000">
        <ele>1892.000</ele>
        <time>2016-02-21T20:56:18Z</time>
        <name>WPT.974</name>
      </trkpt>
      <trkpt lat="35.079501000" lon="-106.478090000">
        <ele>1891.000</ele>
        <time>2016-02-21T20:56:25Z</time>
        <name>WPT.975</name>
      </trkpt>
      <trkpt lat="35.079543000" lon="-106.478118000">
        <ele>1889.000</ele>
        <time>2016-02-21T20:56:32Z</time>
        <name>WPT.976</name>
      </trkpt>
      <trkpt lat="35.079589000" lon="-106.478120000">
        <ele>1886.000</ele>
        <time>2016-02-21T20:56:38Z</time>
        <name>WPT.977</name>
      </trkpt>
      <trkpt lat="35.079624000" lon="-106.478167000">
        <ele>1887.000</ele>
        <time>2016-02-21T20:56:42Z</time>
        <name>WPT.978</name>
      </trkpt>
      <trkpt lat="35.079610000" lon="-106.478227000">
        <ele>1886.000</ele>
        <time>2016-02-21T20:56:47Z</time>
        <name>WPT.979</name>
      </trkpt>
      <trkpt lat="35.079613000" lon="-106.478301000">
        <ele>1885.000</ele>
        <time>2016-02-21T20:57:00Z</time>
        <name>WPT.980</name>
      </trkpt>
      <trkpt lat="35.079629000" lon="-106.478355000">
        <ele>1884.000</ele>
        <time>2016-02-21T20:57:10Z</time>
        <name>WPT.981</name>
      </trkpt>
      <trkpt lat="35.079639000" lon="-106.478410000">
        <ele>1881.000</ele>
        <time>2016-02-21T20:57:22Z</time>
        <name>WPT.982</name>
      </trkpt>
      <trkpt lat="35.079646000" lon="-106.478471000">
        <ele>1881.000</ele>
        <time>2016-02-21T20:57:29Z</time>
        <name>WPT.983</name>
      </trkpt>
      <trkpt lat="35.079627000" lon="-106.478522000">
        <ele>1878.000</ele>
        <time>2016-02-21T20:57:34Z</time>
        <name>WPT.984</name>
      </trkpt>
      <trkpt lat="35.079661000" lon="-106.478569000">
        <ele>1876.000</ele>
        <time>2016-02-21T20:57:46Z</time>
        <name>WPT.985</name>
      </trkpt>
      <trkpt lat="35.079704000" lon="-106.478590000">
        <ele>1876.000</ele>
        <time>2016-02-21T20:57:50Z</time>
        <name>WPT.986</name>
      </trkpt>
      <trkpt lat="35.079750000" lon="-106.478614000">
        <ele>1875.000</ele>
        <time>2016-02-21T20:57:55Z</time>
        <name>WPT.987</name>
      </trkpt>
      <trkpt lat="35.079796000" lon="-106.478619000">
        <ele>1875.000</ele>
        <time>2016-02-21T20:57:59Z</time>
        <name>WPT.988</name>
      </trkpt>
      <trkpt lat="35.079842000" lon="-106.478624000">
        <ele>1874.000</ele>
        <time>2016-02-21T20:58:03Z</time>
        <name>WPT.989</name>
      </trkpt>
      <trkpt lat="35.079888000" lon="-106.478629000">
        <ele>1873.000</ele>
        <time>2016-02-21T20:58:10Z</time>
        <name>WPT.990</name>
      </trkpt>
      <trkpt lat="35.079920000" lon="-106.478668000">
        <ele>1872.000</ele>
        <time>2016-02-21T20:58:14Z</time>
        <name>WPT.991</name>
      </trkpt>
      <trkpt lat="35.079968000" lon="-106.478696000">
        <ele>1870.000</ele>
        <time>2016-02-21T20:58:21Z</time>
        <name>WPT.992</name>
      </trkpt>
      <trkpt lat="35.080017000" lon="-106.478718000">
        <ele>1869.000</ele>
        <time>2016-02-21T20:58:28Z</time>
        <name>WPT.993</name>
      </trkpt>
      <trkpt lat="35.080065000" lon="-106.478734000">
        <ele>1867.000</ele>
        <time>2016-02-21T20:58:33Z</time>
        <name>WPT.994</name>
      </trkpt>
      <trkpt lat="35.080106000" lon="-106.478766000">
        <ele>1867.000</ele>
        <time>2016-02-21T20:58:38Z</time>
        <name>WPT.995</name>
      </trkpt>
      <trkpt lat="35.080118000" lon="-106.478830000">
        <ele>1866.000</ele>
        <time>2016-02-21T20:58:42Z</time>
        <name>WPT.996</name>
      </trkpt>
      <trkpt lat="35.080112000" lon="-106.478886000">
        <ele>1864.000</ele>
        <time>2016-02-21T20:58:46Z</time>
        <name>WPT.997</name>
      </trkpt>
      <trkpt lat="35.080080000" lon="-106.478925000">
        <ele>1864.000</ele>
        <time>2016-02-21T20:58:52Z</time>
        <name>WPT.998</name>
      </trkpt>
      <trkpt lat="35.080045000" lon="-106.478968000">
        <ele>1864.000</ele>
        <time>2016-02-21T20:58:56Z</time>
        <name>WPT.999</name>
      </trkpt>
      <trkpt lat="35.080007000" lon="-106.478999000">
        <ele>1862.000</ele>
        <time>2016-02-21T20:58:59Z</time>
        <name>WPT.1000</name>
      </trkpt>
      <trkpt lat="35.079971000" lon="-106.479033000">
        <ele>1862.000</ele>
        <time>2016-02-21T20:59:03Z</time>
        <name>WPT.1001</name>
      </trkpt>
      <trkpt lat="35.079930000" lon="-106.479071000">
        <ele>1862.000</ele>
        <time>2016-02-21T20:59:17Z</time>
        <name>WPT.1002</name>
      </trkpt>
      <trkpt lat="35.079885000" lon="-106.479089000">
        <ele>1861.000</ele>
        <time>2016-02-21T20:59:22Z</time>
        <name>WPT.1003</name>
      </trkpt>
      <trkpt lat="35.079840000" lon="-106.479118000">
        <ele>1862.000</ele>
        <time>2016-02-21T20:59:27Z</time>
        <name>WPT.1004</name>
      </trkpt>
      <trkpt lat="35.079789000" lon="-106.479125000">
        <ele>1861.000</ele>
        <time>2016-02-21T20:59:32Z</time>
        <name>WPT.1005</name>
      </trkpt>
      <trkpt lat="35.079740000" lon="-106.479134000">
        <ele>1859.000</ele>
        <time>2016-02-21T20:59:37Z</time>
        <name>WPT.1006</name>
      </trkpt>
      <trkpt lat="35.079696000" lon="-106.479141000">
        <ele>1858.000</ele>
        <time>2016-02-21T20:59:42Z</time>
        <name>WPT.1007</name>
      </trkpt>
      <trkpt lat="35.079647000" lon="-106.479136000">
        <ele>1857.000</ele>
        <time>2016-02-21T20:59:46Z</time>
        <name>WPT.1008</name>
      </trkpt>
      <trkpt lat="35.079601000" lon="-106.479124000">
        <ele>1856.000</ele>
        <time>2016-02-21T20:59:59Z</time>
        <name>WPT.1009</name>
      </trkpt>
      <trkpt lat="35.079556000" lon="-106.479091000">
        <ele>1855.000</ele>
        <time>2016-02-21T21:00:06Z</time>
        <name>WPT.1010</name>
      </trkpt>
      <trkpt lat="35.079516000" lon="-106.479124000">
        <ele>1857.000</ele>
        <time>2016-02-21T21:00:11Z</time>
        <name>WPT.1011</name>
      </trkpt>
      <trkpt lat="35.079468000" lon="-106.479134000">
        <ele>1855.000</ele>
        <time>2016-02-21T21:00:19Z</time>
        <name>WPT.1012</name>
      </trkpt>
      <trkpt lat="35.079519000" lon="-106.479150000">
        <ele>1854.000</ele>
        <time>2016-02-21T21:00:26Z</time>
        <name>WPT.1013</name>
      </trkpt>
      <trkpt lat="35.079567000" lon="-106.479171000">
        <ele>1855.000</ele>
        <time>2016-02-21T21:00:31Z</time>
        <name>WPT.1014</name>
      </trkpt>
      <trkpt lat="35.079611000" lon="-106.479198000">
        <ele>1855.000</ele>
        <time>2016-02-21T21:00:36Z</time>
        <name>WPT.1015</name>
      </trkpt>
      <trkpt lat="35.079659000" lon="-106.479224000">
        <ele>1855.000</ele>
        <time>2016-02-21T21:00:41Z</time>
        <name>WPT.1016</name>
      </trkpt>
      <trkpt lat="35.079701000" lon="-106.479247000">
        <ele>1858.000</ele>
        <time>2016-02-21T21:00:45Z</time>
        <name>WPT.1017</name>
      </trkpt>
      <trkpt lat="35.079750000" lon="-106.479253000">
        <ele>1857.000</ele>
        <time>2016-02-21T21:00:49Z</time>
        <name>WPT.1018</name>
      </trkpt>
      <trkpt lat="35.079800000" lon="-106.479259000">
        <ele>1856.000</ele>
        <time>2016-02-21T21:00:54Z</time>
        <name>WPT.1019</name>
      </trkpt>
      <trkpt lat="35.079844000" lon="-106.479269000">
        <ele>1856.000</ele>
        <time>2016-02-21T21:00:58Z</time>
        <name>WPT.1020</name>
      </trkpt>
      <trkpt lat="35.079889000" lon="-106.479296000">
        <ele>1855.000</ele>
        <time>2016-02-21T21:01:03Z</time>
        <name>WPT.1021</name>
      </trkpt>
      <trkpt lat="35.079936000" lon="-106.479300000">
        <ele>1855.000</ele>
        <time>2016-02-21T21:01:09Z</time>
        <name>WPT.1022</name>
      </trkpt>
      <trkpt lat="35.079984000" lon="-106.479322000">
        <ele>1854.000</ele>
        <time>2016-02-21T21:01:14Z</time>
        <name>WPT.1023</name>
      </trkpt>
      <trkpt lat="35.080005000" lon="-106.479372000">
        <ele>1854.000</ele>
        <time>2016-02-21T21:01:46Z</time>
        <name>WPT.1024</name>
      </trkpt>
      <trkpt lat="35.080023000" lon="-106.479429000">
        <ele>1854.000</ele>
        <time>2016-02-21T21:02:19Z</time>
        <name>WPT.1025</name>
      </trkpt>
      <trkpt lat="35.080022000" lon="-106.479485000">
        <ele>1854.000</ele>
        <time>2016-02-21T21:02:23Z</time>
        <name>WPT.1026</name>
      </trkpt>
      <trkpt lat="35.080029000" lon="-106.479552000">
        <ele>1852.000</ele>
        <time>2016-02-21T21:02:29Z</time>
        <name>WPT.1027</name>
      </trkpt>
      <trkpt lat="35.080030000" lon="-106.479613000">
        <ele>1850.000</ele>
        <time>2016-02-21T21:02:34Z</time>
        <name>WPT.1028</name>
      </trkpt>
      <trkpt lat="35.080060000" lon="-106.479663000">
        <ele>1849.000</ele>
        <time>2016-02-21T21:02:39Z</time>
        <name>WPT.1029</name>
      </trkpt>
      <trkpt lat="35.080086000" lon="-106.479714000">
        <ele>1850.000</ele>
        <time>2016-02-21T21:02:44Z</time>
        <name>WPT.1030</name>
      </trkpt>
      <trkpt lat="35.080109000" lon="-106.479782000">
        <ele>1851.000</ele>
        <time>2016-02-21T21:02:48Z</time>
        <name>WPT.1031</name>
      </trkpt>
      <trkpt lat="35.080140000" lon="-106.479823000">
        <ele>1848.000</ele>
        <time>2016-02-21T21:02:51Z</time>
        <name>WPT.1032</name>
      </trkpt>
      <trkpt lat="35.080180000" lon="-106.479858000">
        <ele>1846.000</ele>
        <time>2016-02-21T21:02:55Z</time>
        <name>WPT.1033</name>
      </trkpt>
      <trkpt lat="35.080227000" lon="-106.479894000">
        <ele>1846.000</ele>
        <time>2016-02-21T21:03:00Z</time>
        <name>WPT.1034</name>
      </trkpt>
      <trkpt lat="35.080249000" lon="-106.479945000">
        <ele>1848.000</ele>
        <time>2016-02-21T21:03:10Z</time>
        <name>WPT.1035</name>
      </trkpt>
      <trkpt lat="35.080253000" lon="-106.480008000">
        <ele>1848.000</ele>
        <time>2016-02-21T21:03:14Z</time>
        <name>WPT.1036</name>
      </trkpt>
      <trkpt lat="35.080228000" lon="-106.480066000">
        <ele>1848.000</ele>
        <time>2016-02-21T21:03:18Z</time>
        <name>WPT.1037</name>
      </trkpt>
      <trkpt lat="35.080213000" lon="-106.480127000">
        <ele>1847.000</ele>
        <time>2016-02-21T21:03:23Z</time>
        <name>WPT.1038</name>
      </trkpt>
      <trkpt lat="35.080199000" lon="-106.480188000">
        <ele>1846.000</ele>
        <time>2016-02-21T21:03:28Z</time>
        <name>WPT.1039</name>
      </trkpt>
      <trkpt lat="35.080205000" lon="-106.480246000">
        <ele>1845.000</ele>
        <time>2016-02-21T21:03:34Z</time>
        <name>WPT.1040</name>
      </trkpt>
      <trkpt lat="35.080223000" lon="-106.480297000">
        <ele>1844.000</ele>
        <time>2016-02-21T21:03:37Z</time>
        <name>WPT.1041</name>
      </trkpt>
      <trkpt lat="35.080244000" lon="-106.480355000">
        <ele>1842.000</ele>
        <time>2016-02-21T21:03:42Z</time>
        <name>WPT.1042</name>
      </trkpt>
      <trkpt lat="35.080253000" lon="-106.480422000">
        <ele>1843.000</ele>
        <time>2016-02-21T21:03:48Z</time>
        <name>WPT.1043</name>
      </trkpt>
      <trkpt lat="35.080245000" lon="-106.480477000">
        <ele>1842.000</ele>
        <time>2016-02-21T21:03:52Z</time>
        <name>WPT.1044</name>
      </trkpt>
      <trkpt lat="35.080255000" lon="-106.480537000">
        <ele>1842.000</ele>
        <time>2016-02-21T21:03:56Z</time>
        <name>WPT.1045</name>
      </trkpt>
      <trkpt lat="35.080236000" lon="-106.480593000">
        <ele>1844.000</ele>
        <time>2016-02-21T21:04:00Z</time>
        <name>WPT.1046</name>
      </trkpt>
      <trkpt lat="35.080188000" lon="-106.480578000">
        <ele>1843.000</ele>
        <time>2016-02-21T21:04:04Z</time>
        <name>WPT.1047</name>
      </trkpt>
      <trkpt lat="35.080153000" lon="-106.480533000">
        <ele>1843.000</ele>
        <time>2016-02-21T21:04:09Z</time>
        <name>WPT.1048</name>
      </trkpt>
      <trkpt lat="35.080110000" lon="-106.480512000">
        <ele>1843.000</ele>
        <time>2016-02-21T21:04:14Z</time>
        <name>WPT.1049</name>
      </trkpt>
      <trkpt lat="35.080082000" lon="-106.480462000">
        <ele>1843.000</ele>
        <time>2016-02-21T21:04:19Z</time>
        <name>WPT.1050</name>
      </trkpt>
      <trkpt lat="35.080058000" lon="-106.480399000">
        <ele>1842.000</ele>
        <time>2016-02-21T21:04:24Z</time>
        <name>WPT.1051</name>
      </trkpt>
      <trkpt lat="35.080043000" lon="-106.480342000">
        <ele>1841.000</ele>
        <time>2016-02-21T21:04:28Z</time>
        <name>WPT.1052</name>
      </trkpt>
      <trkpt lat="35.080036000" lon="-106.480275000">
        <ele>1840.000</ele>
        <time>2016-02-21T21:04:33Z</time>
        <name>WPT.1053</name>
      </trkpt>
      <trkpt lat="35.080011000" lon="-106.480211000">
        <ele>1840.000</ele>
        <time>2016-02-21T21:04:38Z</time>
        <name>WPT.1054</name>
      </trkpt>
      <trkpt lat="35.079997000" lon="-106.480154000">
        <ele>1839.000</ele>
        <time>2016-02-21T21:04:42Z</time>
        <name>WPT.1055</name>
      </trkpt>
      <trkpt lat="35.079957000" lon="-106.480124000">
        <ele>1839.000</ele>
        <time>2016-02-21T21:04:47Z</time>
        <name>WPT.1056</name>
      </trkpt>
      <trkpt lat="35.079910000" lon="-106.480114000">
        <ele>1837.000</ele>
        <time>2016-02-21T21:04:51Z</time>
        <name>WPT.1057</name>
      </trkpt>
      <trkpt lat="35.079861000" lon="-106.480094000">
        <ele>1836.000</ele>
        <time>2016-02-21T21:04:55Z</time>
        <name>WPT.1058</name>
      </trkpt>
      <trkpt lat="35.079832000" lon="-106.480036000">
        <ele>1836.000</ele>
        <time>2016-02-21T21:05:00Z</time>
        <name>WPT.1059</name>
      </trkpt>
      <trkpt lat="35.079807000" lon="-106.479980000">
        <ele>1838.000</ele>
        <time>2016-02-21T21:05:05Z</time>
        <name>WPT.1060</name>
      </trkpt>
      <trkpt lat="35.079771000" lon="-106.479939000">
        <ele>1838.000</ele>
        <time>2016-02-21T21:05:10Z</time>
        <name>WPT.1061</name>
      </trkpt>
      <trkpt lat="35.079719000" lon="-106.479924000">
        <ele>1837.000</ele>
        <time>2016-02-21T21:05:15Z</time>
        <name>WPT.1062</name>
      </trkpt>
      <trkpt lat="35.079675000" lon="-106.479908000">
        <ele>1838.000</ele>
        <time>2016-02-21T21:05:20Z</time>
        <name>WPT.1063</name>
      </trkpt>
      <trkpt lat="35.079623000" lon="-106.479884000">
        <ele>1837.000</ele>
        <time>2016-02-21T21:05:24Z</time>
        <name>WPT.1064</name>
      </trkpt>
      <trkpt lat="35.079574000" lon="-106.479890000">
        <ele>1838.000</ele>
        <time>2016-02-21T21:05:29Z</time>
        <name>WPT.1065</name>
      </trkpt>
      <trkpt lat="35.079530000" lon="-106.479871000">
        <ele>1837.000</ele>
        <time>2016-02-21T21:05:33Z</time>
        <name>WPT.1066</name>
      </trkpt>
      <trkpt lat="35.079511000" lon="-106.479819000">
        <ele>1835.000</ele>
        <time>2016-02-21T21:05:41Z</time>
        <name>WPT.1067</name>
      </trkpt>
      <trkpt lat="35.079467000" lon="-106.479786000">
        <ele>1837.000</ele>
        <time>2016-02-21T21:05:52Z</time>
        <name>WPT.1068</name>
      </trkpt>
      <trkpt lat="35.079415000" lon="-106.479795000">
        <ele>1836.000</ele>
        <time>2016-02-21T21:05:56Z</time>
        <name>WPT.1069</name>
      </trkpt>
      <trkpt lat="35.079370000" lon="-106.479780000">
        <ele>1836.000</ele>
        <time>2016-02-21T21:06:00Z</time>
        <name>WPT.1070</name>
      </trkpt>
      <trkpt lat="35.079328000" lon="-106.479752000">
        <ele>1835.000</ele>
        <time>2016-02-21T21:06:04Z</time>
        <name>WPT.1071</name>
      </trkpt>
      <trkpt lat="35.079284000" lon="-106.479725000">
        <ele>1835.000</ele>
        <time>2016-02-21T21:06:10Z</time>
        <name>WPT.1072</name>
      </trkpt>
      <trkpt lat="35.079235000" lon="-106.479724000">
        <ele>1834.000</ele>
        <time>2016-02-21T21:06:14Z</time>
        <name>WPT.1073</name>
      </trkpt>
      <trkpt lat="35.079189000" lon="-106.479732000">
        <ele>1833.000</ele>
        <time>2016-02-21T21:06:22Z</time>
        <name>WPT.1074</name>
      </trkpt>
      <trkpt lat="35.079138000" lon="-106.479731000">
        <ele>1832.000</ele>
        <time>2016-02-21T21:06:34Z</time>
        <name>WPT.1075</name>
      </trkpt>
      <trkpt lat="35.079090000" lon="-106.479721000">
        <ele>1831.000</ele>
        <time>2016-02-21T21:06:38Z</time>
        <name>WPT.1076</name>
      </trkpt>
      <trkpt lat="35.079039000" lon="-106.479716000">
        <ele>1829.000</ele>
        <time>2016-02-21T21:06:42Z</time>
        <name>WPT.1077</name>
      </trkpt>
      <trkpt lat="35.078992000" lon="-106.479730000">
        <ele>1829.000</ele>
        <time>2016-02-21T21:06:46Z</time>
        <name>WPT.1078</name>
      </trkpt>
      <trkpt lat="35.078950000" lon="-106.479752000">
        <ele>1828.000</ele>
        <time>2016-02-21T21:06:52Z</time>
        <name>WPT.1079</name>
      </trkpt>
      <trkpt lat="35.078986000" lon="-106.479805000">
        <ele>1826.000</ele>
        <time>2016-02-21T21:07:00Z</time>
        <name>WPT.1080</name>
      </trkpt>
      <trkpt lat="35.079011000" lon="-106.479866000">
        <ele>1827.000</ele>
        <time>2016-02-21T21:07:05Z</time>
        <name>WPT.1081</name>
      </trkpt>
      <trkpt lat="35.079022000" lon="-106.479924000">
        <ele>1826.000</ele>
        <time>2016-02-21T21:07:09Z</time>
        <name>WPT.1082</name>
      </trkpt>
      <trkpt lat="35.079066000" lon="-106.479945000">
        <ele>1827.000</ele>
        <time>2016-02-21T21:07:12Z</time>
        <name>WPT.1083</name>
      </trkpt>
      <trkpt lat="35.079081000" lon="-106.480000000">
        <ele>1824.000</ele>
        <time>2016-02-21T21:07:17Z</time>
        <name>WPT.1084</name>
      </trkpt>
      <trkpt lat="35.079117000" lon="-106.480044000">
        <ele>1822.000</ele>
        <time>2016-02-21T21:07:21Z</time>
        <name>WPT.1085</name>
      </trkpt>
      <trkpt lat="35.079157000" lon="-106.480086000">
        <ele>1821.000</ele>
        <time>2016-02-21T21:07:27Z</time>
        <name>WPT.1086</name>
      </trkpt>
      <trkpt lat="35.079176000" lon="-106.480136000">
        <ele>1823.000</ele>
        <time>2016-02-21T21:07:32Z</time>
        <name>WPT.1087</name>
      </trkpt>
      <trkpt lat="35.079215000" lon="-106.480176000">
        <ele>1825.000</ele>
        <time>2016-02-21T21:07:36Z</time>
        <name>WPT.1088</name>
      </trkpt>
      <trkpt lat="35.079253000" lon="-106.480221000">
        <ele>1825.000</ele>
        <time>2016-02-21T21:07:39Z</time>
        <name>WPT.1089</name>
      </trkpt>
      <trkpt lat="35.079285000" lon="-106.480273000">
        <ele>1824.000</ele>
        <time>2016-02-21T21:07:44Z</time>
        <name>WPT.1090</name>
      </trkpt>
      <trkpt lat="35.079319000" lon="-106.480333000">
        <ele>1824.000</ele>
        <time>2016-02-21T21:07:52Z</time>
        <name>WPT.1091</name>
      </trkpt>
      <trkpt lat="35.079348000" lon="-106.480377000">
        <ele>1825.000</ele>
        <time>2016-02-21T21:07:56Z</time>
        <name>WPT.1092</name>
      </trkpt>
      <trkpt lat="35.079380000" lon="-106.480439000">
        <ele>1826.000</ele>
        <time>2016-02-21T21:08:01Z</time>
        <name>WPT.1093</name>
      </trkpt>
      <trkpt lat="35.079397000" lon="-106.480504000">
        <ele>1825.000</ele>
        <time>2016-02-21T21:08:05Z</time>
        <name>WPT.1094</name>
      </trkpt>
      <trkpt lat="35.079415000" lon="-106.480564000">
        <ele>1825.000</ele>
        <time>2016-02-21T21:08:09Z</time>
        <name>WPT.1095</name>
      </trkpt>
      <trkpt lat="35.079445000" lon="-106.480655000">
        <ele>1824.000</ele>
        <time>2016-02-21T21:08:14Z</time>
        <name>WPT.1096</name>
      </trkpt>
      <trkpt lat="35.079438000" lon="-106.480715000">
        <ele>1823.000</ele>
        <time>2016-02-21T21:08:18Z</time>
        <name>WPT.1097</name>
      </trkpt>
      <trkpt lat="35.079439000" lon="-106.480779000">
        <ele>1821.000</ele>
        <time>2016-02-21T21:08:22Z</time>
        <name>WPT.1098</name>
      </trkpt>
      <trkpt lat="35.079430000" lon="-106.480840000">
        <ele>1820.000</ele>
        <time>2016-02-21T21:08:27Z</time>
        <name>WPT.1099</name>
      </trkpt>
      <trkpt lat="35.079428000" lon="-106.480901000">
        <ele>1818.000</ele>
        <time>2016-02-21T21:08:32Z</time>
        <name>WPT.1100</name>
      </trkpt>
      <trkpt lat="35.079431000" lon="-106.480965000">
        <ele>1817.000</ele>
        <time>2016-02-21T21:08:37Z</time>
        <name>WPT.1101</name>
      </trkpt>
      <trkpt lat="35.079429000" lon="-106.481032000">
        <ele>1816.000</ele>
        <time>2016-02-21T21:08:42Z</time>
        <name>WPT.1102</name>
      </trkpt>
      <trkpt lat="35.079413000" lon="-106.481094000">
        <ele>1815.000</ele>
        <time>2016-02-21T21:08:46Z</time>
        <name>WPT.1103</name>
      </trkpt>
      <trkpt lat="35.079422000" lon="-106.481155000">
        <ele>1814.000</ele>
        <time>2016-02-21T21:08:50Z</time>
        <name>WPT.1104</name>
      </trkpt>
      <trkpt lat="35.079415000" lon="-106.481221000">
        <ele>1813.000</ele>
        <time>2016-02-21T21:08:55Z</time>
        <name>WPT.1105</name>
      </trkpt>
      <trkpt lat="35.079426000" lon="-106.481275000">
        <ele>1813.000</ele>
        <time>2016-02-21T21:08:59Z</time>
        <name>WPT.1106</name>
      </trkpt>
      <trkpt lat="35.079413000" lon="-106.481331000">
        <ele>1813.000</ele>
        <time>2016-02-21T21:09:03Z</time>
        <name>WPT.1107</name>
      </trkpt>
      <trkpt lat="35.079411000" lon="-106.481394000">
        <ele>1813.000</ele>
        <time>2016-02-21T21:09:08Z</time>
        <name>WPT.1108</name>
      </trkpt>
      <trkpt lat="35.079405000" lon="-106.481449000">
        <ele>1812.000</ele>
        <time>2016-02-21T21:09:12Z</time>
        <name>WPT.1109</name>
      </trkpt>
      <trkpt lat="35.079410000" lon="-106.481511000">
        <ele>1811.000</ele>
        <time>2016-02-21T21:09:17Z</time>
        <name>WPT.1110</name>
      </trkpt>
      <trkpt lat="35.079420000" lon="-106.481571000">
        <ele>1811.000</ele>
        <time>2016-02-21T21:09:22Z</time>
        <name>WPT.1111</name>
      </trkpt>
      <trkpt lat="35.079418000" lon="-106.481629000">
        <ele>1809.000</ele>
        <time>2016-02-21T21:09:26Z</time>
        <name>WPT.1112</name>
      </trkpt>
      <trkpt lat="35.079411000" lon="-106.481684000">
        <ele>1808.000</ele>
        <time>2016-02-21T21:09:30Z</time>
        <name>WPT.1113</name>
      </trkpt>
      <trkpt lat="35.079400000" lon="-106.481753000">
        <ele>1807.000</ele>
        <time>2016-02-21T21:09:35Z</time>
        <name>WPT.1114</name>
      </trkpt>
      <trkpt lat="35.079398000" lon="-106.481817000">
        <ele>1807.000</ele>
        <time>2016-02-21T21:09:40Z</time>
        <name>WPT.1115</name>
      </trkpt>
      <trkpt lat="35.079411000" lon="-106.481881000">
        <ele>1807.000</ele>
        <time>2016-02-21T21:09:45Z</time>
        <name>WPT.1116</name>
      </trkpt>
      <trkpt lat="35.079405000" lon="-106.481935000">
        <ele>1805.000</ele>
        <time>2016-02-21T21:09:49Z</time>
        <name>WPT.1117</name>
      </trkpt>
      <trkpt lat="35.079404000" lon="-106.482001000">
        <ele>1805.000</ele>
        <time>2016-02-21T21:09:54Z</time>
        <name>WPT.1118</name>
      </trkpt>
      <trkpt lat="35.079405000" lon="-106.482062000">
        <ele>1804.000</ele>
        <time>2016-02-21T21:09:59Z</time>
        <name>WPT.1119</name>
      </trkpt>
      <trkpt lat="35.079412000" lon="-106.482119000">
        <ele>1803.000</ele>
        <time>2016-02-21T21:10:03Z</time>
        <name>WPT.1120</name>
      </trkpt>
      <trkpt lat="35.079420000" lon="-106.482176000">
        <ele>1802.000</ele>
        <time>2016-02-21T21:10:07Z</time>
        <name>WPT.1121</name>
      </trkpt>
      <trkpt lat="35.079415000" lon="-106.482238000">
        <ele>1801.000</ele>
        <time>2016-02-21T21:10:11Z</time>
        <name>WPT.1122</name>
      </trkpt>
      <trkpt lat="35.079435000" lon="-106.482294000">
        <ele>1802.000</ele>
        <time>2016-02-21T21:10:15Z</time>
        <name>WPT.1123</name>
      </trkpt>
      <trkpt lat="35.079454000" lon="-106.482347000">
        <ele>1803.000</ele>
        <time>2016-02-21T21:10:19Z</time>
        <name>WPT.1124</name>
      </trkpt>
      <trkpt lat="35.079466000" lon="-106.482400000">
        <ele>1801.000</ele>
        <time>2016-02-21T21:10:22Z</time>
        <name>WPT.1125</name>
      </trkpt>
      <trkpt lat="35.079455000" lon="-106.482458000">
        <ele>1799.000</ele>
        <time>2016-02-21T21:10:26Z</time>
        <name>WPT.1126</name>
      </trkpt>
      <trkpt lat="35.079465000" lon="-106.482524000">
        <ele>1798.000</ele>
        <time>2016-02-21T21:10:30Z</time>
        <name>WPT.1127</name>
      </trkpt>
      <trkpt lat="35.079447000" lon="-106.482578000">
        <ele>1797.000</ele>
        <time>2016-02-21T21:10:34Z</time>
        <name>WPT.1128</name>
      </trkpt>
      <trkpt lat="35.079451000" lon="-106.482634000">
        <ele>1797.000</ele>
        <time>2016-02-21T21:10:38Z</time>
        <name>WPT.1129</name>
      </trkpt>
      <trkpt lat="35.079440000" lon="-106.482697000">
        <ele>1796.000</ele>
        <time>2016-02-21T21:10:42Z</time>
        <name>WPT.1130</name>
      </trkpt>
      <trkpt lat="35.079437000" lon="-106.482763000">
        <ele>1796.000</ele>
        <time>2016-02-21T21:10:47Z</time>
        <name>WPT.1131</name>
      </trkpt>
      <trkpt lat="35.079430000" lon="-106.482823000">
        <ele>1796.000</ele>
        <time>2016-02-21T21:10:51Z</time>
        <name>WPT.1132</name>
      </trkpt>
      <trkpt lat="35.079424000" lon="-106.482881000">
        <ele>1796.000</ele>
        <time>2016-02-21T21:10:55Z</time>
        <name>WPT.1133</name>
      </trkpt>
      <trkpt lat="35.079405000" lon="-106.482943000">
        <ele>1796.000</ele>
        <time>2016-02-21T21:10:59Z</time>
        <name>WPT.1134</name>
      </trkpt>
      <trkpt lat="35.079392000" lon="-106.482996000">
        <ele>1794.000</ele>
        <time>2016-02-21T21:11:03Z</time>
        <name>WPT.1135</name>
      </trkpt>
      <trkpt lat="35.079376000" lon="-106.483060000">
        <ele>1793.000</ele>
        <time>2016-02-21T21:11:07Z</time>
        <name>WPT.1136</name>
      </trkpt>
      <trkpt lat="35.079384000" lon="-106.483121000">
        <ele>1792.000</ele>
        <time>2016-02-21T21:11:11Z</time>
        <name>WPT.1137</name>
      </trkpt>
      <trkpt lat="35.079405000" lon="-106.483181000">
        <ele>1791.000</ele>
        <time>2016-02-21T21:11:15Z</time>
        <name>WPT.1138</name>
      </trkpt>
      <trkpt lat="35.079404000" lon="-106.483236000">
        <ele>1792.000</ele>
        <time>2016-02-21T21:11:19Z</time>
        <name>WPT.1139</name>
      </trkpt>
      <trkpt lat="35.079393000" lon="-106.483297000">
        <ele>1791.000</ele>
        <time>2016-02-21T21:11:24Z</time>
        <name>WPT.1140</name>
      </trkpt>
      <trkpt lat="35.079386000" lon="-106.483352000">
        <ele>1791.000</ele>
        <time>2016-02-21T21:11:28Z</time>
        <name>WPT.1141</name>
      </trkpt>
      <trkpt lat="35.079373000" lon="-106.483414000">
        <ele>1791.000</ele>
        <time>2016-02-21T21:11:32Z</time>
        <name>WPT.1142</name>
      </trkpt>
      <trkpt lat="35.079360000" lon="-106.483483000">
        <ele>1790.000</ele>
        <time>2016-02-21T21:11:37Z</time>
        <name>WPT.1143</name>
      </trkpt>
      <trkpt lat="35.079347000" lon="-106.483547000">
        <ele>1791.000</ele>
        <time>2016-02-21T21:11:41Z</time>
        <name>WPT.1144</name>
      </trkpt>
      <trkpt lat="35.079347000" lon="-106.483614000">
        <ele>1791.000</ele>
        <time>2016-02-21T21:11:45Z</time>
        <name>WPT.1145</name>
      </trkpt>
      <trkpt lat="35.079337000" lon="-106.483677000">
        <ele>1790.000</ele>
        <time>2016-02-21T21:11:50Z</time>
        <name>WPT.1146</name>
      </trkpt>
      <trkpt lat="35.079320000" lon="-106.483735000">
        <ele>1789.000</ele>
        <time>2016-02-21T21:11:54Z</time>
        <name>WPT.1147</name>
      </trkpt>
      <trkpt lat="35.079305000" lon="-106.483791000">
        <ele>1790.000</ele>
        <time>2016-02-21T21:11:58Z</time>
        <name>WPT.1148</name>
      </trkpt>
      <trkpt lat="35.079295000" lon="-106.483854000">
        <ele>1789.000</ele>
        <time>2016-02-21T21:12:02Z</time>
        <name>WPT.1149</name>
      </trkpt>
      <trkpt lat="35.079281000" lon="-106.483912000">
        <ele>1788.000</ele>
        <time>2016-02-21T21:12:06Z</time>
        <name>WPT.1150</name>
      </trkpt>
      <trkpt lat="35.079269000" lon="-106.483966000">
        <ele>1786.000</ele>
        <time>2016-02-21T21:12:10Z</time>
        <name>WPT.1151</name>
      </trkpt>
      <trkpt lat="35.079256000" lon="-106.484023000">
        <ele>1787.000</ele>
        <time>2016-02-21T21:12:14Z</time>
        <name>WPT.1152</name>
      </trkpt>
      <trkpt lat="35.079251000" lon="-106.484078000">
        <ele>1786.000</ele>
        <time>2016-02-21T21:12:18Z</time>
        <name>WPT.1153</name>
      </trkpt>
      <trkpt lat="35.079218000" lon="-106.484129000">
        <ele>1785.000</ele>
        <time>2016-02-21T21:12:22Z</time>
        <name>WPT.1154</name>
      </trkpt>
      <trkpt lat="35.079235000" lon="-106.484195000">
        <ele>1786.000</ele>
        <time>2016-02-21T21:12:26Z</time>
        <name>WPT.1155</name>
      </trkpt>
      <trkpt lat="35.079246000" lon="-106.484257000">
        <ele>1786.000</ele>
        <time>2016-02-21T21:12:30Z</time>
        <name>WPT.1156</name>
      </trkpt>
      <trkpt lat="35.079249000" lon="-106.484326000">
        <ele>1787.000</ele>
        <time>2016-02-21T21:12:35Z</time>
        <name>WPT.1157</name>
      </trkpt>
      <trkpt lat="35.079231000" lon="-106.484390000">
        <ele>1788.000</ele>
        <time>2016-02-21T21:12:40Z</time>
        <name>WPT.1158</name>
      </trkpt>
      <trkpt lat="35.079225000" lon="-106.484458000">
        <ele>1787.000</ele>
        <time>2016-02-21T21:12:45Z</time>
        <name>WPT.1159</name>
      </trkpt>
      <trkpt lat="35.079239000" lon="-106.484511000">
        <ele>1789.000</ele>
        <time>2016-02-21T21:12:50Z</time>
        <name>WPT.1160</name>
      </trkpt>
      <trkpt lat="35.079214000" lon="-106.484565000">
        <ele>1790.000</ele>
        <time>2016-02-21T21:12:55Z</time>
        <name>WPT.1161</name>
      </trkpt>
      <trkpt lat="35.079231000" lon="-106.484618000">
        <ele>1791.000</ele>
        <time>2016-02-21T21:14:13Z</time>
        <name>WPT.1162</name>
      </trkpt>
      <trkpt lat="35.079259000" lon="-106.484670000">
        <ele>1790.000</ele>
        <time>2016-02-21T21:15:16Z</time>
        <name>WPT.1163</name>
      </trkpt>
    </trkseg>
  </trk>
</gpx>
